<?xml version="1.0" encoding="UTF-8" standalone="no" ?>
<gpx xmlns="http://www.topografix.com/GPX/1/1" xmlns:xsi="http://www.w3.org/2001/XMLSchema-instance" xsi:schemaLocation="http://www.topografix.com/GPX/1/1 http://www.topografix.com/GPX/1/1/gpx.xsd" version="1.1" creator="VisuGPX - https://www.visugpx.com">
  <metadata>
    <name>boucle au départ du parking de l\'église de Rémering les Puttelange</name>
    <desc><![CDATA[randonnée sans grande difficulté]]></desc>
  </metadata>
  <trk>
    <name><![CDATA[2014-03-26-01]]></name>
    <trkseg>
      <trkpt lat="49.03624" lon="6.93939">
        <ele>229.5</ele>
        <time>2014-03-26T07:32:51Z</time>
      </trkpt>
      <trkpt lat="49.03624" lon="6.93939">
        <ele>229.5</ele>
        <time>2014-03-26T07:32:52Z</time>
      </trkpt>
      <trkpt lat="49.03624" lon="6.93939">
        <ele>230</ele>
        <time>2014-03-26T07:32:57Z</time>
      </trkpt>
      <trkpt lat="49.03623" lon="6.93939">
        <ele>229.6</ele>
        <time>2014-03-26T07:33:02Z</time>
      </trkpt>
      <trkpt lat="49.03623" lon="6.93939">
        <ele>228.1</ele>
        <time>2014-03-26T07:33:07Z</time>
      </trkpt>
      <trkpt lat="49.03623" lon="6.9394">
        <ele>230.1</ele>
        <time>2014-03-26T07:33:12Z</time>
      </trkpt>
      <trkpt lat="49.03624" lon="6.9394">
        <ele>229.1</ele>
        <time>2014-03-26T07:33:17Z</time>
      </trkpt>
      <trkpt lat="49.03624" lon="6.9394">
        <ele>228.9</ele>
        <time>2014-03-26T07:33:22Z</time>
      </trkpt>
      <trkpt lat="49.03624" lon="6.9394">
        <ele>228.8</ele>
        <time>2014-03-26T07:33:27Z</time>
      </trkpt>
      <trkpt lat="49.03624" lon="6.9394">
        <ele>229.5</ele>
        <time>2014-03-26T07:33:32Z</time>
      </trkpt>
      <trkpt lat="49.03622" lon="6.9394">
        <ele>229</ele>
        <time>2014-03-26T07:33:37Z</time>
      </trkpt>
      <trkpt lat="49.0362" lon="6.93939">
        <ele>229.7</ele>
        <time>2014-03-26T07:33:42Z</time>
      </trkpt>
      <trkpt lat="49.03617" lon="6.93937">
        <ele>229.8</ele>
        <time>2014-03-26T07:33:47Z</time>
      </trkpt>
      <trkpt lat="49.03614" lon="6.93932">
        <ele>228.7</ele>
        <time>2014-03-26T07:33:52Z</time>
      </trkpt>
      <trkpt lat="49.03612" lon="6.93927">
        <ele>229.4</ele>
        <time>2014-03-26T07:33:57Z</time>
      </trkpt>
      <trkpt lat="49.0361" lon="6.93921">
        <ele>229.9</ele>
        <time>2014-03-26T07:34:02Z</time>
      </trkpt>
      <trkpt lat="49.0361" lon="6.93914">
        <ele>229.6</ele>
        <time>2014-03-26T07:34:07Z</time>
      </trkpt>
      <trkpt lat="49.03614" lon="6.93908">
        <ele>229.8</ele>
        <time>2014-03-26T07:34:12Z</time>
      </trkpt>
      <trkpt lat="49.03618" lon="6.93904">
        <ele>229.7</ele>
        <time>2014-03-26T07:34:17Z</time>
      </trkpt>
      <trkpt lat="49.03622" lon="6.93901">
        <ele>229.8</ele>
        <time>2014-03-26T07:34:22Z</time>
      </trkpt>
      <trkpt lat="49.03625" lon="6.93898">
        <ele>229.7</ele>
        <time>2014-03-26T07:34:27Z</time>
      </trkpt>
      <trkpt lat="49.03629" lon="6.93894">
        <ele>229.1</ele>
        <time>2014-03-26T07:34:32Z</time>
      </trkpt>
      <trkpt lat="49.03634" lon="6.93891">
        <ele>228.4</ele>
        <time>2014-03-26T07:34:37Z</time>
      </trkpt>
      <trkpt lat="49.03638" lon="6.93887">
        <ele>229.1</ele>
        <time>2014-03-26T07:34:42Z</time>
      </trkpt>
      <trkpt lat="49.03642" lon="6.93881">
        <ele>228.9</ele>
        <time>2014-03-26T07:34:47Z</time>
      </trkpt>
      <trkpt lat="49.03645" lon="6.93874">
        <ele>228.4</ele>
        <time>2014-03-26T07:34:52Z</time>
      </trkpt>
      <trkpt lat="49.03649" lon="6.93868">
        <ele>228.2</ele>
        <time>2014-03-26T07:34:57Z</time>
      </trkpt>
      <trkpt lat="49.03652" lon="6.93861">
        <ele>227.4</ele>
        <time>2014-03-26T07:35:02Z</time>
      </trkpt>
      <trkpt lat="49.03656" lon="6.93855">
        <ele>227.3</ele>
        <time>2014-03-26T07:35:07Z</time>
      </trkpt>
      <trkpt lat="49.0366" lon="6.93847">
        <ele>226.9</ele>
        <time>2014-03-26T07:35:12Z</time>
      </trkpt>
      <trkpt lat="49.03664" lon="6.9384">
        <ele>226.4</ele>
        <time>2014-03-26T07:35:17Z</time>
      </trkpt>
      <trkpt lat="49.03668" lon="6.93834">
        <ele>226.9</ele>
        <time>2014-03-26T07:35:22Z</time>
      </trkpt>
      <trkpt lat="49.03673" lon="6.93827">
        <ele>226.5</ele>
        <time>2014-03-26T07:35:27Z</time>
      </trkpt>
      <trkpt lat="49.03677" lon="6.93821">
        <ele>226.1</ele>
        <time>2014-03-26T07:35:32Z</time>
      </trkpt>
      <trkpt lat="49.03682" lon="6.93815">
        <ele>226.6</ele>
        <time>2014-03-26T07:35:37Z</time>
      </trkpt>
      <trkpt lat="49.03687" lon="6.93809">
        <ele>226.8</ele>
        <time>2014-03-26T07:35:42Z</time>
      </trkpt>
      <trkpt lat="49.03692" lon="6.93805">
        <ele>226.6</ele>
        <time>2014-03-26T07:35:47Z</time>
      </trkpt>
      <trkpt lat="49.03698" lon="6.938">
        <ele>226</ele>
        <time>2014-03-26T07:35:52Z</time>
      </trkpt>
      <trkpt lat="49.03703" lon="6.93794">
        <ele>226.3</ele>
        <time>2014-03-26T07:35:57Z</time>
      </trkpt>
      <trkpt lat="49.03708" lon="6.93788">
        <ele>226.3</ele>
        <time>2014-03-26T07:36:02Z</time>
      </trkpt>
      <trkpt lat="49.03714" lon="6.93781">
        <ele>226.1</ele>
        <time>2014-03-26T07:36:07Z</time>
      </trkpt>
      <trkpt lat="49.03726" lon="6.9377">
        <ele>226.3</ele>
        <time>2014-03-26T07:36:17Z</time>
      </trkpt>
      <trkpt lat="49.03732" lon="6.93765">
        <ele>225.7</ele>
        <time>2014-03-26T07:36:22Z</time>
      </trkpt>
      <trkpt lat="49.03737" lon="6.9376">
        <ele>225.3</ele>
        <time>2014-03-26T07:36:27Z</time>
      </trkpt>
      <trkpt lat="49.03743" lon="6.93754">
        <ele>225.5</ele>
        <time>2014-03-26T07:36:32Z</time>
      </trkpt>
      <trkpt lat="49.03748" lon="6.93749">
        <ele>225.6</ele>
        <time>2014-03-26T07:36:37Z</time>
      </trkpt>
      <trkpt lat="49.03753" lon="6.93744">
        <ele>226.4</ele>
        <time>2014-03-26T07:36:42Z</time>
      </trkpt>
      <trkpt lat="49.03758" lon="6.93739">
        <ele>226</ele>
        <time>2014-03-26T07:36:47Z</time>
      </trkpt>
      <trkpt lat="49.03763" lon="6.93735">
        <ele>225.7</ele>
        <time>2014-03-26T07:36:52Z</time>
      </trkpt>
      <trkpt lat="49.03768" lon="6.93729">
        <ele>225.7</ele>
        <time>2014-03-26T07:36:57Z</time>
      </trkpt>
      <trkpt lat="49.03773" lon="6.93725">
        <ele>226</ele>
        <time>2014-03-26T07:37:02Z</time>
      </trkpt>
      <trkpt lat="49.03777" lon="6.9372">
        <ele>226.2</ele>
        <time>2014-03-26T07:37:07Z</time>
      </trkpt>
      <trkpt lat="49.03781" lon="6.93714">
        <ele>225.9</ele>
        <time>2014-03-26T07:37:12Z</time>
      </trkpt>
      <trkpt lat="49.0379" lon="6.93701">
        <ele>226</ele>
        <time>2014-03-26T07:37:22Z</time>
      </trkpt>
      <trkpt lat="49.03794" lon="6.93695">
        <ele>226.3</ele>
        <time>2014-03-26T07:37:27Z</time>
      </trkpt>
      <trkpt lat="49.03798" lon="6.93688">
        <ele>227</ele>
        <time>2014-03-26T07:37:32Z</time>
      </trkpt>
      <trkpt lat="49.03802" lon="6.93681">
        <ele>227</ele>
        <time>2014-03-26T07:37:37Z</time>
      </trkpt>
      <trkpt lat="49.03806" lon="6.93674">
        <ele>227.5</ele>
        <time>2014-03-26T07:37:42Z</time>
      </trkpt>
      <trkpt lat="49.0381" lon="6.93666">
        <ele>226.9</ele>
        <time>2014-03-26T07:37:47Z</time>
      </trkpt>
      <trkpt lat="49.03813" lon="6.93659">
        <ele>227.2</ele>
        <time>2014-03-26T07:37:52Z</time>
      </trkpt>
      <trkpt lat="49.03817" lon="6.93651">
        <ele>226.6</ele>
        <time>2014-03-26T07:37:57Z</time>
      </trkpt>
      <trkpt lat="49.0382" lon="6.93645">
        <ele>227.2</ele>
        <time>2014-03-26T07:38:02Z</time>
      </trkpt>
      <trkpt lat="49.03824" lon="6.93638">
        <ele>227.7</ele>
        <time>2014-03-26T07:38:07Z</time>
      </trkpt>
      <trkpt lat="49.03828" lon="6.93631">
        <ele>228.8</ele>
        <time>2014-03-26T07:38:12Z</time>
      </trkpt>
      <trkpt lat="49.03831" lon="6.93623">
        <ele>228.7</ele>
        <time>2014-03-26T07:38:17Z</time>
      </trkpt>
      <trkpt lat="49.03839" lon="6.93609">
        <ele>228.5</ele>
        <time>2014-03-26T07:38:27Z</time>
      </trkpt>
      <trkpt lat="49.03843" lon="6.93603">
        <ele>229.2</ele>
        <time>2014-03-26T07:38:32Z</time>
      </trkpt>
      <trkpt lat="49.03848" lon="6.93598">
        <ele>229.6</ele>
        <time>2014-03-26T07:38:37Z</time>
      </trkpt>
      <trkpt lat="49.03854" lon="6.93595">
        <ele>228.6</ele>
        <time>2014-03-26T07:38:42Z</time>
      </trkpt>
      <trkpt lat="49.03859" lon="6.93592">
        <ele>228.8</ele>
        <time>2014-03-26T07:38:47Z</time>
      </trkpt>
      <trkpt lat="49.03865" lon="6.93589">
        <ele>228.8</ele>
        <time>2014-03-26T07:38:52Z</time>
      </trkpt>
      <trkpt lat="49.03872" lon="6.93587">
        <ele>228</ele>
        <time>2014-03-26T07:38:57Z</time>
      </trkpt>
      <trkpt lat="49.03878" lon="6.93584">
        <ele>227.5</ele>
        <time>2014-03-26T07:39:02Z</time>
      </trkpt>
      <trkpt lat="49.03884" lon="6.9358">
        <ele>227.1</ele>
        <time>2014-03-26T07:39:07Z</time>
      </trkpt>
      <trkpt lat="49.03889" lon="6.93577">
        <ele>226.8</ele>
        <time>2014-03-26T07:39:12Z</time>
      </trkpt>
      <trkpt lat="49.03895" lon="6.93577">
        <ele>226.7</ele>
        <time>2014-03-26T07:39:17Z</time>
      </trkpt>
      <trkpt lat="49.03901" lon="6.93577">
        <ele>226.8</ele>
        <time>2014-03-26T07:39:22Z</time>
      </trkpt>
      <trkpt lat="49.03914" lon="6.93575">
        <ele>226.7</ele>
        <time>2014-03-26T07:39:32Z</time>
      </trkpt>
      <trkpt lat="49.0392" lon="6.93575">
        <ele>226</ele>
        <time>2014-03-26T07:39:37Z</time>
      </trkpt>
      <trkpt lat="49.03926" lon="6.93574">
        <ele>226.4</ele>
        <time>2014-03-26T07:39:42Z</time>
      </trkpt>
      <trkpt lat="49.03932" lon="6.93573">
        <ele>226.3</ele>
        <time>2014-03-26T07:39:47Z</time>
      </trkpt>
      <trkpt lat="49.03939" lon="6.93573">
        <ele>226.8</ele>
        <time>2014-03-26T07:39:52Z</time>
      </trkpt>
      <trkpt lat="49.03946" lon="6.93571">
        <ele>226.8</ele>
        <time>2014-03-26T07:39:57Z</time>
      </trkpt>
      <trkpt lat="49.03952" lon="6.9357">
        <ele>227.4</ele>
        <time>2014-03-26T07:40:02Z</time>
      </trkpt>
      <trkpt lat="49.03959" lon="6.9357">
        <ele>227</ele>
        <time>2014-03-26T07:40:07Z</time>
      </trkpt>
      <trkpt lat="49.03966" lon="6.93569">
        <ele>227.8</ele>
        <time>2014-03-26T07:40:12Z</time>
      </trkpt>
      <trkpt lat="49.03974" lon="6.93568">
        <ele>228</ele>
        <time>2014-03-26T07:40:17Z</time>
      </trkpt>
      <trkpt lat="49.0398" lon="6.93568">
        <ele>227.8</ele>
        <time>2014-03-26T07:40:22Z</time>
      </trkpt>
      <trkpt lat="49.03986" lon="6.93567">
        <ele>228</ele>
        <time>2014-03-26T07:40:27Z</time>
      </trkpt>
      <trkpt lat="49.03999" lon="6.93561">
        <ele>228.8</ele>
        <time>2014-03-26T07:40:37Z</time>
      </trkpt>
      <trkpt lat="49.04004" lon="6.93556">
        <ele>229.8</ele>
        <time>2014-03-26T07:40:42Z</time>
      </trkpt>
      <trkpt lat="49.04008" lon="6.93549">
        <ele>229.7</ele>
        <time>2014-03-26T07:40:47Z</time>
      </trkpt>
      <trkpt lat="49.04011" lon="6.9354">
        <ele>230.3</ele>
        <time>2014-03-26T07:40:52Z</time>
      </trkpt>
      <trkpt lat="49.04012" lon="6.93531">
        <ele>230.6</ele>
        <time>2014-03-26T07:40:57Z</time>
      </trkpt>
      <trkpt lat="49.04013" lon="6.93522">
        <ele>231.5</ele>
        <time>2014-03-26T07:41:02Z</time>
      </trkpt>
      <trkpt lat="49.04014" lon="6.93513">
        <ele>231.2</ele>
        <time>2014-03-26T07:41:07Z</time>
      </trkpt>
      <trkpt lat="49.04014" lon="6.93503">
        <ele>231.8</ele>
        <time>2014-03-26T07:41:12Z</time>
      </trkpt>
      <trkpt lat="49.04014" lon="6.93493">
        <ele>232.1</ele>
        <time>2014-03-26T07:41:17Z</time>
      </trkpt>
      <trkpt lat="49.04014" lon="6.93482">
        <ele>233</ele>
        <time>2014-03-26T07:41:22Z</time>
      </trkpt>
      <trkpt lat="49.04014" lon="6.93473">
        <ele>232.5</ele>
        <time>2014-03-26T07:41:27Z</time>
      </trkpt>
      <trkpt lat="49.04015" lon="6.93462">
        <ele>233.6</ele>
        <time>2014-03-26T07:41:32Z</time>
      </trkpt>
      <trkpt lat="49.04016" lon="6.93443">
        <ele>234.4</ele>
        <time>2014-03-26T07:41:42Z</time>
      </trkpt>
      <trkpt lat="49.04018" lon="6.93433">
        <ele>235.2</ele>
        <time>2014-03-26T07:41:47Z</time>
      </trkpt>
      <trkpt lat="49.04019" lon="6.93423">
        <ele>235.9</ele>
        <time>2014-03-26T07:41:52Z</time>
      </trkpt>
      <trkpt lat="49.04021" lon="6.93412">
        <ele>235.7</ele>
        <time>2014-03-26T07:41:57Z</time>
      </trkpt>
      <trkpt lat="49.04023" lon="6.93402">
        <ele>236.3</ele>
        <time>2014-03-26T07:42:02Z</time>
      </trkpt>
      <trkpt lat="49.04026" lon="6.93393">
        <ele>236.2</ele>
        <time>2014-03-26T07:42:07Z</time>
      </trkpt>
      <trkpt lat="49.04028" lon="6.93384">
        <ele>236.9</ele>
        <time>2014-03-26T07:42:12Z</time>
      </trkpt>
      <trkpt lat="49.0403" lon="6.93374">
        <ele>237.2</ele>
        <time>2014-03-26T07:42:17Z</time>
      </trkpt>
      <trkpt lat="49.04032" lon="6.93365">
        <ele>237.5</ele>
        <time>2014-03-26T07:42:22Z</time>
      </trkpt>
      <trkpt lat="49.04032" lon="6.9336">
        <ele>237.6</ele>
        <time>2014-03-26T07:42:27Z</time>
      </trkpt>
      <trkpt lat="49.04034" lon="6.93352">
        <ele>237.8</ele>
        <time>2014-03-26T07:42:32Z</time>
      </trkpt>
      <trkpt lat="49.04035" lon="6.93343">
        <ele>237.9</ele>
        <time>2014-03-26T07:42:37Z</time>
      </trkpt>
      <trkpt lat="49.04036" lon="6.93325">
        <ele>238.2</ele>
        <time>2014-03-26T07:42:47Z</time>
      </trkpt>
      <trkpt lat="49.04038" lon="6.93316">
        <ele>238.7</ele>
        <time>2014-03-26T07:42:52Z</time>
      </trkpt>
      <trkpt lat="49.04039" lon="6.93306">
        <ele>239.1</ele>
        <time>2014-03-26T07:42:57Z</time>
      </trkpt>
      <trkpt lat="49.04041" lon="6.93298">
        <ele>238.9</ele>
        <time>2014-03-26T07:43:02Z</time>
      </trkpt>
      <trkpt lat="49.04042" lon="6.9329">
        <ele>239.6</ele>
        <time>2014-03-26T07:43:07Z</time>
      </trkpt>
      <trkpt lat="49.04043" lon="6.9328">
        <ele>239</ele>
        <time>2014-03-26T07:43:12Z</time>
      </trkpt>
      <trkpt lat="49.04045" lon="6.9327">
        <ele>239</ele>
        <time>2014-03-26T07:43:17Z</time>
      </trkpt>
      <trkpt lat="49.04046" lon="6.93262">
        <ele>239.5</ele>
        <time>2014-03-26T07:43:22Z</time>
      </trkpt>
      <trkpt lat="49.04047" lon="6.93253">
        <ele>239.8</ele>
        <time>2014-03-26T07:43:27Z</time>
      </trkpt>
      <trkpt lat="49.04048" lon="6.93244">
        <ele>240.2</ele>
        <time>2014-03-26T07:43:32Z</time>
      </trkpt>
      <trkpt lat="49.04048" lon="6.93234">
        <ele>240.2</ele>
        <time>2014-03-26T07:43:37Z</time>
      </trkpt>
      <trkpt lat="49.04049" lon="6.93226">
        <ele>240.2</ele>
        <time>2014-03-26T07:43:42Z</time>
      </trkpt>
      <trkpt lat="49.0405" lon="6.93207">
        <ele>241</ele>
        <time>2014-03-26T07:43:52Z</time>
      </trkpt>
      <trkpt lat="49.0405" lon="6.93196">
        <ele>241.3</ele>
        <time>2014-03-26T07:43:57Z</time>
      </trkpt>
      <trkpt lat="49.0405" lon="6.93186">
        <ele>241.3</ele>
        <time>2014-03-26T07:44:02Z</time>
      </trkpt>
      <trkpt lat="49.0405" lon="6.93176">
        <ele>241.9</ele>
        <time>2014-03-26T07:44:07Z</time>
      </trkpt>
      <trkpt lat="49.04051" lon="6.93165">
        <ele>241.8</ele>
        <time>2014-03-26T07:44:12Z</time>
      </trkpt>
      <trkpt lat="49.0405" lon="6.93155">
        <ele>242.1</ele>
        <time>2014-03-26T07:44:17Z</time>
      </trkpt>
      <trkpt lat="49.0405" lon="6.93145">
        <ele>242.4</ele>
        <time>2014-03-26T07:44:22Z</time>
      </trkpt>
      <trkpt lat="49.0405" lon="6.93134">
        <ele>242.4</ele>
        <time>2014-03-26T07:44:27Z</time>
      </trkpt>
      <trkpt lat="49.0405" lon="6.93125">
        <ele>242.9</ele>
        <time>2014-03-26T07:44:32Z</time>
      </trkpt>
      <trkpt lat="49.0405" lon="6.93115">
        <ele>242.8</ele>
        <time>2014-03-26T07:44:37Z</time>
      </trkpt>
      <trkpt lat="49.0405" lon="6.93105">
        <ele>243.6</ele>
        <time>2014-03-26T07:44:42Z</time>
      </trkpt>
      <trkpt lat="49.04049" lon="6.93096">
        <ele>243.6</ele>
        <time>2014-03-26T07:44:47Z</time>
      </trkpt>
      <trkpt lat="49.0405" lon="6.93077">
        <ele>243.5</ele>
        <time>2014-03-26T07:44:57Z</time>
      </trkpt>
      <trkpt lat="49.04051" lon="6.93066">
        <ele>244.4</ele>
        <time>2014-03-26T07:45:02Z</time>
      </trkpt>
      <trkpt lat="49.04051" lon="6.93055">
        <ele>244.7</ele>
        <time>2014-03-26T07:45:07Z</time>
      </trkpt>
      <trkpt lat="49.04051" lon="6.93043">
        <ele>244.2</ele>
        <time>2014-03-26T07:45:12Z</time>
      </trkpt>
      <trkpt lat="49.04051" lon="6.93032">
        <ele>244.8</ele>
        <time>2014-03-26T07:45:17Z</time>
      </trkpt>
      <trkpt lat="49.04051" lon="6.93022">
        <ele>244.3</ele>
        <time>2014-03-26T07:45:22Z</time>
      </trkpt>
      <trkpt lat="49.04051" lon="6.93011">
        <ele>244.8</ele>
        <time>2014-03-26T07:45:27Z</time>
      </trkpt>
      <trkpt lat="49.04052" lon="6.93">
        <ele>244.7</ele>
        <time>2014-03-26T07:45:32Z</time>
      </trkpt>
      <trkpt lat="49.04052" lon="6.9299">
        <ele>245.1</ele>
        <time>2014-03-26T07:45:37Z</time>
      </trkpt>
      <trkpt lat="49.04052" lon="6.9298">
        <ele>244.9</ele>
        <time>2014-03-26T07:45:42Z</time>
      </trkpt>
      <trkpt lat="49.04052" lon="6.9297">
        <ele>244.8</ele>
        <time>2014-03-26T07:45:47Z</time>
      </trkpt>
      <trkpt lat="49.04053" lon="6.9296">
        <ele>244.7</ele>
        <time>2014-03-26T07:45:52Z</time>
      </trkpt>
      <trkpt lat="49.04053" lon="6.92941">
        <ele>244.5</ele>
        <time>2014-03-26T07:46:02Z</time>
      </trkpt>
      <trkpt lat="49.04053" lon="6.9293">
        <ele>244.5</ele>
        <time>2014-03-26T07:46:07Z</time>
      </trkpt>
      <trkpt lat="49.04053" lon="6.92921">
        <ele>245.2</ele>
        <time>2014-03-26T07:46:12Z</time>
      </trkpt>
      <trkpt lat="49.04052" lon="6.92911">
        <ele>243.9</ele>
        <time>2014-03-26T07:46:17Z</time>
      </trkpt>
      <trkpt lat="49.04052" lon="6.92901">
        <ele>244.3</ele>
        <time>2014-03-26T07:46:22Z</time>
      </trkpt>
      <trkpt lat="49.04053" lon="6.92892">
        <ele>244</ele>
        <time>2014-03-26T07:46:27Z</time>
      </trkpt>
      <trkpt lat="49.04052" lon="6.92882">
        <ele>244.4</ele>
        <time>2014-03-26T07:46:32Z</time>
      </trkpt>
      <trkpt lat="49.04052" lon="6.92872">
        <ele>244.8</ele>
        <time>2014-03-26T07:46:37Z</time>
      </trkpt>
      <trkpt lat="49.04051" lon="6.92862">
        <ele>244.6</ele>
        <time>2014-03-26T07:46:42Z</time>
      </trkpt>
      <trkpt lat="49.04049" lon="6.92852">
        <ele>244.5</ele>
        <time>2014-03-26T07:46:47Z</time>
      </trkpt>
      <trkpt lat="49.04048" lon="6.92842">
        <ele>244.7</ele>
        <time>2014-03-26T07:46:52Z</time>
      </trkpt>
      <trkpt lat="49.04049" lon="6.92833">
        <ele>244.8</ele>
        <time>2014-03-26T07:46:57Z</time>
      </trkpt>
      <trkpt lat="49.0405" lon="6.9282">
        <ele>244.8</ele>
        <time>2014-03-26T07:47:07Z</time>
      </trkpt>
      <trkpt lat="49.0405" lon="6.92819">
        <ele>244</ele>
        <time>2014-03-26T07:47:12Z</time>
      </trkpt>
      <trkpt lat="49.0405" lon="6.92817">
        <ele>244.6</ele>
        <time>2014-03-26T07:47:17Z</time>
      </trkpt>
      <trkpt lat="49.0405" lon="6.92807">
        <ele>244.6</ele>
        <time>2014-03-26T07:47:22Z</time>
      </trkpt>
      <trkpt lat="49.0405" lon="6.92797">
        <ele>245.1</ele>
        <time>2014-03-26T07:47:27Z</time>
      </trkpt>
      <trkpt lat="49.0405" lon="6.92788">
        <ele>245.4</ele>
        <time>2014-03-26T07:47:32Z</time>
      </trkpt>
      <trkpt lat="49.0405" lon="6.92779">
        <ele>244.4</ele>
        <time>2014-03-26T07:47:37Z</time>
      </trkpt>
      <trkpt lat="49.04049" lon="6.92768">
        <ele>244.6</ele>
        <time>2014-03-26T07:47:42Z</time>
      </trkpt>
      <trkpt lat="49.04049" lon="6.92756">
        <ele>245.8</ele>
        <time>2014-03-26T07:47:47Z</time>
      </trkpt>
      <trkpt lat="49.04048" lon="6.92745">
        <ele>245.9</ele>
        <time>2014-03-26T07:47:52Z</time>
      </trkpt>
      <trkpt lat="49.04048" lon="6.92733">
        <ele>245.7</ele>
        <time>2014-03-26T07:47:57Z</time>
      </trkpt>
      <trkpt lat="49.04047" lon="6.92722">
        <ele>245.6</ele>
        <time>2014-03-26T07:48:02Z</time>
      </trkpt>
      <trkpt lat="49.04046" lon="6.927">
        <ele>245.4</ele>
        <time>2014-03-26T07:48:12Z</time>
      </trkpt>
      <trkpt lat="49.04046" lon="6.92689">
        <ele>246</ele>
        <time>2014-03-26T07:48:17Z</time>
      </trkpt>
      <trkpt lat="49.04045" lon="6.92679">
        <ele>245.1</ele>
        <time>2014-03-26T07:48:22Z</time>
      </trkpt>
      <trkpt lat="49.04045" lon="6.92668">
        <ele>246.3</ele>
        <time>2014-03-26T07:48:27Z</time>
      </trkpt>
      <trkpt lat="49.04045" lon="6.92659">
        <ele>246.2</ele>
        <time>2014-03-26T07:48:32Z</time>
      </trkpt>
      <trkpt lat="49.04044" lon="6.9265">
        <ele>245.7</ele>
        <time>2014-03-26T07:48:37Z</time>
      </trkpt>
      <trkpt lat="49.04044" lon="6.92641">
        <ele>246.3</ele>
        <time>2014-03-26T07:48:42Z</time>
      </trkpt>
      <trkpt lat="49.04044" lon="6.92631">
        <ele>246.1</ele>
        <time>2014-03-26T07:48:47Z</time>
      </trkpt>
      <trkpt lat="49.04043" lon="6.92622">
        <ele>246.2</ele>
        <time>2014-03-26T07:48:52Z</time>
      </trkpt>
      <trkpt lat="49.04043" lon="6.92613">
        <ele>246.8</ele>
        <time>2014-03-26T07:48:57Z</time>
      </trkpt>
      <trkpt lat="49.04043" lon="6.92604">
        <ele>246.5</ele>
        <time>2014-03-26T07:49:02Z</time>
      </trkpt>
      <trkpt lat="49.04043" lon="6.92594">
        <ele>247</ele>
        <time>2014-03-26T07:49:07Z</time>
      </trkpt>
      <trkpt lat="49.04042" lon="6.92577">
        <ele>247.1</ele>
        <time>2014-03-26T07:49:17Z</time>
      </trkpt>
      <trkpt lat="49.04043" lon="6.92568">
        <ele>247.1</ele>
        <time>2014-03-26T07:49:22Z</time>
      </trkpt>
      <trkpt lat="49.04043" lon="6.92559">
        <ele>247.3</ele>
        <time>2014-03-26T07:49:27Z</time>
      </trkpt>
      <trkpt lat="49.04043" lon="6.9255">
        <ele>247.6</ele>
        <time>2014-03-26T07:49:32Z</time>
      </trkpt>
      <trkpt lat="49.04043" lon="6.92541">
        <ele>248.1</ele>
        <time>2014-03-26T07:49:37Z</time>
      </trkpt>
      <trkpt lat="49.04043" lon="6.92532">
        <ele>248.1</ele>
        <time>2014-03-26T07:49:42Z</time>
      </trkpt>
      <trkpt lat="49.04044" lon="6.92522">
        <ele>248.1</ele>
        <time>2014-03-26T07:49:47Z</time>
      </trkpt>
      <trkpt lat="49.04044" lon="6.92513">
        <ele>248.5</ele>
        <time>2014-03-26T07:49:52Z</time>
      </trkpt>
      <trkpt lat="49.04045" lon="6.92503">
        <ele>248.8</ele>
        <time>2014-03-26T07:49:57Z</time>
      </trkpt>
      <trkpt lat="49.04045" lon="6.92494">
        <ele>249</ele>
        <time>2014-03-26T07:50:02Z</time>
      </trkpt>
      <trkpt lat="49.04045" lon="6.92485">
        <ele>249.4</ele>
        <time>2014-03-26T07:50:07Z</time>
      </trkpt>
      <trkpt lat="49.04046" lon="6.92475">
        <ele>249.5</ele>
        <time>2014-03-26T07:50:12Z</time>
      </trkpt>
      <trkpt lat="49.04047" lon="6.92458">
        <ele>250.7</ele>
        <time>2014-03-26T07:50:22Z</time>
      </trkpt>
      <trkpt lat="49.04048" lon="6.9245">
        <ele>251</ele>
        <time>2014-03-26T07:50:27Z</time>
      </trkpt>
      <trkpt lat="49.04049" lon="6.92441">
        <ele>251.4</ele>
        <time>2014-03-26T07:50:32Z</time>
      </trkpt>
      <trkpt lat="49.0405" lon="6.92433">
        <ele>252.1</ele>
        <time>2014-03-26T07:50:37Z</time>
      </trkpt>
      <trkpt lat="49.04051" lon="6.92424">
        <ele>252.2</ele>
        <time>2014-03-26T07:50:42Z</time>
      </trkpt>
      <trkpt lat="49.04051" lon="6.92415">
        <ele>252.5</ele>
        <time>2014-03-26T07:50:47Z</time>
      </trkpt>
      <trkpt lat="49.04052" lon="6.92406">
        <ele>253</ele>
        <time>2014-03-26T07:50:52Z</time>
      </trkpt>
      <trkpt lat="49.04053" lon="6.92397">
        <ele>253.4</ele>
        <time>2014-03-26T07:50:57Z</time>
      </trkpt>
      <trkpt lat="49.04054" lon="6.92387">
        <ele>253.5</ele>
        <time>2014-03-26T07:51:02Z</time>
      </trkpt>
      <trkpt lat="49.04054" lon="6.92377">
        <ele>253</ele>
        <time>2014-03-26T07:51:07Z</time>
      </trkpt>
      <trkpt lat="49.04055" lon="6.92367">
        <ele>253.1</ele>
        <time>2014-03-26T07:51:12Z</time>
      </trkpt>
      <trkpt lat="49.04056" lon="6.92357">
        <ele>253.6</ele>
        <time>2014-03-26T07:51:17Z</time>
      </trkpt>
      <trkpt lat="49.04057" lon="6.9234">
        <ele>254.5</ele>
        <time>2014-03-26T07:51:27Z</time>
      </trkpt>
      <trkpt lat="49.04058" lon="6.92332">
        <ele>254.9</ele>
        <time>2014-03-26T07:51:32Z</time>
      </trkpt>
      <trkpt lat="49.04058" lon="6.92324">
        <ele>255</ele>
        <time>2014-03-26T07:51:37Z</time>
      </trkpt>
      <trkpt lat="49.04059" lon="6.92315">
        <ele>255</ele>
        <time>2014-03-26T07:51:42Z</time>
      </trkpt>
      <trkpt lat="49.04059" lon="6.92306">
        <ele>255.2</ele>
        <time>2014-03-26T07:51:47Z</time>
      </trkpt>
      <trkpt lat="49.0406" lon="6.92297">
        <ele>256</ele>
        <time>2014-03-26T07:51:52Z</time>
      </trkpt>
      <trkpt lat="49.04061" lon="6.92288">
        <ele>256.5</ele>
        <time>2014-03-26T07:51:57Z</time>
      </trkpt>
      <trkpt lat="49.04061" lon="6.9228">
        <ele>256.3</ele>
        <time>2014-03-26T07:52:02Z</time>
      </trkpt>
      <trkpt lat="49.04061" lon="6.92272">
        <ele>256.6</ele>
        <time>2014-03-26T07:52:07Z</time>
      </trkpt>
      <trkpt lat="49.04061" lon="6.92264">
        <ele>257.1</ele>
        <time>2014-03-26T07:52:12Z</time>
      </trkpt>
      <trkpt lat="49.0406" lon="6.92254">
        <ele>257.7</ele>
        <time>2014-03-26T07:52:17Z</time>
      </trkpt>
      <trkpt lat="49.04059" lon="6.92245">
        <ele>257.6</ele>
        <time>2014-03-26T07:52:22Z</time>
      </trkpt>
      <trkpt lat="49.04057" lon="6.92227">
        <ele>257.5</ele>
        <time>2014-03-26T07:52:32Z</time>
      </trkpt>
      <trkpt lat="49.04056" lon="6.92218">
        <ele>258.6</ele>
        <time>2014-03-26T07:52:37Z</time>
      </trkpt>
      <trkpt lat="49.04054" lon="6.92209">
        <ele>258.8</ele>
        <time>2014-03-26T07:52:42Z</time>
      </trkpt>
      <trkpt lat="49.04052" lon="6.92201">
        <ele>259.1</ele>
        <time>2014-03-26T07:52:47Z</time>
      </trkpt>
      <trkpt lat="49.0405" lon="6.92193">
        <ele>259.6</ele>
        <time>2014-03-26T07:52:52Z</time>
      </trkpt>
      <trkpt lat="49.04048" lon="6.92185">
        <ele>259.2</ele>
        <time>2014-03-26T07:52:57Z</time>
      </trkpt>
      <trkpt lat="49.04046" lon="6.92178">
        <ele>259.6</ele>
        <time>2014-03-26T07:53:02Z</time>
      </trkpt>
      <trkpt lat="49.04043" lon="6.9217">
        <ele>259.6</ele>
        <time>2014-03-26T07:53:07Z</time>
      </trkpt>
      <trkpt lat="49.0404" lon="6.92162">
        <ele>260.4</ele>
        <time>2014-03-26T07:53:12Z</time>
      </trkpt>
      <trkpt lat="49.04036" lon="6.92154">
        <ele>260.4</ele>
        <time>2014-03-26T07:53:17Z</time>
      </trkpt>
      <trkpt lat="49.04033" lon="6.92145">
        <ele>260.2</ele>
        <time>2014-03-26T07:53:22Z</time>
      </trkpt>
      <trkpt lat="49.0403" lon="6.92135">
        <ele>260.4</ele>
        <time>2014-03-26T07:53:27Z</time>
      </trkpt>
      <trkpt lat="49.04026" lon="6.92115">
        <ele>260.8</ele>
        <time>2014-03-26T07:53:37Z</time>
      </trkpt>
      <trkpt lat="49.04025" lon="6.92106">
        <ele>261.3</ele>
        <time>2014-03-26T07:53:42Z</time>
      </trkpt>
      <trkpt lat="49.04025" lon="6.92096">
        <ele>261</ele>
        <time>2014-03-26T07:53:47Z</time>
      </trkpt>
      <trkpt lat="49.04024" lon="6.92085">
        <ele>261.3</ele>
        <time>2014-03-26T07:53:52Z</time>
      </trkpt>
      <trkpt lat="49.04025" lon="6.92075">
        <ele>261.7</ele>
        <time>2014-03-26T07:53:57Z</time>
      </trkpt>
      <trkpt lat="49.04025" lon="6.92065">
        <ele>261.1</ele>
        <time>2014-03-26T07:54:02Z</time>
      </trkpt>
      <trkpt lat="49.04025" lon="6.92055">
        <ele>262</ele>
        <time>2014-03-26T07:54:07Z</time>
      </trkpt>
      <trkpt lat="49.04026" lon="6.92045">
        <ele>262.1</ele>
        <time>2014-03-26T07:54:12Z</time>
      </trkpt>
      <trkpt lat="49.04027" lon="6.92035">
        <ele>262.2</ele>
        <time>2014-03-26T07:54:17Z</time>
      </trkpt>
      <trkpt lat="49.04028" lon="6.92026">
        <ele>262.6</ele>
        <time>2014-03-26T07:54:22Z</time>
      </trkpt>
      <trkpt lat="49.0403" lon="6.92016">
        <ele>261.9</ele>
        <time>2014-03-26T07:54:27Z</time>
      </trkpt>
      <trkpt lat="49.04031" lon="6.92007">
        <ele>261.7</ele>
        <time>2014-03-26T07:54:32Z</time>
      </trkpt>
      <trkpt lat="49.04033" lon="6.91987">
        <ele>262.1</ele>
        <time>2014-03-26T07:54:42Z</time>
      </trkpt>
      <trkpt lat="49.04033" lon="6.91976">
        <ele>262.4</ele>
        <time>2014-03-26T07:54:47Z</time>
      </trkpt>
      <trkpt lat="49.04033" lon="6.91965">
        <ele>262.2</ele>
        <time>2014-03-26T07:54:52Z</time>
      </trkpt>
      <trkpt lat="49.04033" lon="6.91955">
        <ele>262.1</ele>
        <time>2014-03-26T07:54:57Z</time>
      </trkpt>
      <trkpt lat="49.04034" lon="6.91944">
        <ele>262.6</ele>
        <time>2014-03-26T07:55:02Z</time>
      </trkpt>
      <trkpt lat="49.04034" lon="6.91933">
        <ele>262.8</ele>
        <time>2014-03-26T07:55:07Z</time>
      </trkpt>
      <trkpt lat="49.04033" lon="6.91921">
        <ele>263.1</ele>
        <time>2014-03-26T07:55:12Z</time>
      </trkpt>
      <trkpt lat="49.04033" lon="6.9191">
        <ele>263.1</ele>
        <time>2014-03-26T07:55:17Z</time>
      </trkpt>
      <trkpt lat="49.04033" lon="6.91901">
        <ele>263</ele>
        <time>2014-03-26T07:55:22Z</time>
      </trkpt>
      <trkpt lat="49.04033" lon="6.91891">
        <ele>263.4</ele>
        <time>2014-03-26T07:55:27Z</time>
      </trkpt>
      <trkpt lat="49.04032" lon="6.91882">
        <ele>263.2</ele>
        <time>2014-03-26T07:55:32Z</time>
      </trkpt>
      <trkpt lat="49.04031" lon="6.91874">
        <ele>263.3</ele>
        <time>2014-03-26T07:55:37Z</time>
      </trkpt>
      <trkpt lat="49.04028" lon="6.91854">
        <ele>264</ele>
        <time>2014-03-26T07:55:47Z</time>
      </trkpt>
      <trkpt lat="49.04026" lon="6.91845">
        <ele>263.6</ele>
        <time>2014-03-26T07:55:52Z</time>
      </trkpt>
      <trkpt lat="49.04024" lon="6.91834">
        <ele>262.3</ele>
        <time>2014-03-26T07:55:57Z</time>
      </trkpt>
      <trkpt lat="49.04022" lon="6.91824">
        <ele>262</ele>
        <time>2014-03-26T07:56:02Z</time>
      </trkpt>
      <trkpt lat="49.04021" lon="6.91815">
        <ele>262.5</ele>
        <time>2014-03-26T07:56:07Z</time>
      </trkpt>
      <trkpt lat="49.0402" lon="6.91806">
        <ele>261.7</ele>
        <time>2014-03-26T07:56:12Z</time>
      </trkpt>
      <trkpt lat="49.04019" lon="6.91798">
        <ele>261.2</ele>
        <time>2014-03-26T07:56:17Z</time>
      </trkpt>
      <trkpt lat="49.04018" lon="6.91788">
        <ele>260.5</ele>
        <time>2014-03-26T07:56:22Z</time>
      </trkpt>
      <trkpt lat="49.04016" lon="6.91778">
        <ele>260.1</ele>
        <time>2014-03-26T07:56:27Z</time>
      </trkpt>
      <trkpt lat="49.04014" lon="6.91768">
        <ele>260.7</ele>
        <time>2014-03-26T07:56:32Z</time>
      </trkpt>
      <trkpt lat="49.04013" lon="6.91758">
        <ele>261</ele>
        <time>2014-03-26T07:56:37Z</time>
      </trkpt>
      <trkpt lat="49.04011" lon="6.91749">
        <ele>260.5</ele>
        <time>2014-03-26T07:56:42Z</time>
      </trkpt>
      <trkpt lat="49.04008" lon="6.91731">
        <ele>259.4</ele>
        <time>2014-03-26T07:56:52Z</time>
      </trkpt>
      <trkpt lat="49.04007" lon="6.91722">
        <ele>259.7</ele>
        <time>2014-03-26T07:56:57Z</time>
      </trkpt>
      <trkpt lat="49.04006" lon="6.91712">
        <ele>259.4</ele>
        <time>2014-03-26T07:57:02Z</time>
      </trkpt>
      <trkpt lat="49.04006" lon="6.91702">
        <ele>259.2</ele>
        <time>2014-03-26T07:57:07Z</time>
      </trkpt>
      <trkpt lat="49.04005" lon="6.91693">
        <ele>259.6</ele>
        <time>2014-03-26T07:57:12Z</time>
      </trkpt>
      <trkpt lat="49.04004" lon="6.91683">
        <ele>259.9</ele>
        <time>2014-03-26T07:57:17Z</time>
      </trkpt>
      <trkpt lat="49.04004" lon="6.91673">
        <ele>258.9</ele>
        <time>2014-03-26T07:57:22Z</time>
      </trkpt>
      <trkpt lat="49.04003" lon="6.91663">
        <ele>258.5</ele>
        <time>2014-03-26T07:57:27Z</time>
      </trkpt>
      <trkpt lat="49.04003" lon="6.91653">
        <ele>258.7</ele>
        <time>2014-03-26T07:57:32Z</time>
      </trkpt>
      <trkpt lat="49.04003" lon="6.91642">
        <ele>258.5</ele>
        <time>2014-03-26T07:57:37Z</time>
      </trkpt>
      <trkpt lat="49.04003" lon="6.91631">
        <ele>258.4</ele>
        <time>2014-03-26T07:57:42Z</time>
      </trkpt>
      <trkpt lat="49.04004" lon="6.91621">
        <ele>258.2</ele>
        <time>2014-03-26T07:57:47Z</time>
      </trkpt>
      <trkpt lat="49.04007" lon="6.91602">
        <ele>258.4</ele>
        <time>2014-03-26T07:57:57Z</time>
      </trkpt>
      <trkpt lat="49.04009" lon="6.91593">
        <ele>258</ele>
        <time>2014-03-26T07:58:02Z</time>
      </trkpt>
      <trkpt lat="49.04011" lon="6.91583">
        <ele>257.6</ele>
        <time>2014-03-26T07:58:07Z</time>
      </trkpt>
      <trkpt lat="49.04013" lon="6.91573">
        <ele>258.1</ele>
        <time>2014-03-26T07:58:12Z</time>
      </trkpt>
      <trkpt lat="49.04015" lon="6.91564">
        <ele>258.2</ele>
        <time>2014-03-26T07:58:17Z</time>
      </trkpt>
      <trkpt lat="49.04018" lon="6.91555">
        <ele>258.3</ele>
        <time>2014-03-26T07:58:22Z</time>
      </trkpt>
      <trkpt lat="49.0402" lon="6.91545">
        <ele>258.5</ele>
        <time>2014-03-26T07:58:27Z</time>
      </trkpt>
      <trkpt lat="49.04023" lon="6.91536">
        <ele>258.4</ele>
        <time>2014-03-26T07:58:32Z</time>
      </trkpt>
      <trkpt lat="49.04026" lon="6.91526">
        <ele>258.3</ele>
        <time>2014-03-26T07:58:37Z</time>
      </trkpt>
      <trkpt lat="49.04028" lon="6.91517">
        <ele>258.9</ele>
        <time>2014-03-26T07:58:42Z</time>
      </trkpt>
      <trkpt lat="49.04032" lon="6.91507">
        <ele>258.7</ele>
        <time>2014-03-26T07:58:47Z</time>
      </trkpt>
      <trkpt lat="49.04034" lon="6.91497">
        <ele>259.9</ele>
        <time>2014-03-26T07:58:52Z</time>
      </trkpt>
      <trkpt lat="49.0404" lon="6.9148">
        <ele>261.1</ele>
        <time>2014-03-26T07:59:02Z</time>
      </trkpt>
      <trkpt lat="49.04043" lon="6.91472">
        <ele>261.9</ele>
        <time>2014-03-26T07:59:07Z</time>
      </trkpt>
      <trkpt lat="49.04046" lon="6.91462">
        <ele>263</ele>
        <time>2014-03-26T07:59:12Z</time>
      </trkpt>
      <trkpt lat="49.04048" lon="6.91453">
        <ele>263.4</ele>
        <time>2014-03-26T07:59:17Z</time>
      </trkpt>
      <trkpt lat="49.04052" lon="6.91443">
        <ele>264</ele>
        <time>2014-03-26T07:59:22Z</time>
      </trkpt>
      <trkpt lat="49.04055" lon="6.91434">
        <ele>264.6</ele>
        <time>2014-03-26T07:59:27Z</time>
      </trkpt>
      <trkpt lat="49.04059" lon="6.91424">
        <ele>265.4</ele>
        <time>2014-03-26T07:59:32Z</time>
      </trkpt>
      <trkpt lat="49.04062" lon="6.91415">
        <ele>265.6</ele>
        <time>2014-03-26T07:59:37Z</time>
      </trkpt>
      <trkpt lat="49.04064" lon="6.91406">
        <ele>265.4</ele>
        <time>2014-03-26T07:59:42Z</time>
      </trkpt>
      <trkpt lat="49.04065" lon="6.91395">
        <ele>265.4</ele>
        <time>2014-03-26T07:59:47Z</time>
      </trkpt>
      <trkpt lat="49.04065" lon="6.91385">
        <ele>264.9</ele>
        <time>2014-03-26T07:59:52Z</time>
      </trkpt>
      <trkpt lat="49.04064" lon="6.91382">
        <ele>265.7</ele>
        <time>2014-03-26T07:59:57Z</time>
      </trkpt>
      <trkpt lat="49.04065" lon="6.91375">
        <ele>266.2</ele>
        <time>2014-03-26T08:00:07Z</time>
      </trkpt>
      <trkpt lat="49.04065" lon="6.91365">
        <ele>265.9</ele>
        <time>2014-03-26T08:00:12Z</time>
      </trkpt>
      <trkpt lat="49.04062" lon="6.91356">
        <ele>266.3</ele>
        <time>2014-03-26T08:00:17Z</time>
      </trkpt>
      <trkpt lat="49.0406" lon="6.91347">
        <ele>265.1</ele>
        <time>2014-03-26T08:00:22Z</time>
      </trkpt>
      <trkpt lat="49.04058" lon="6.91338">
        <ele>266.1</ele>
        <time>2014-03-26T08:00:27Z</time>
      </trkpt>
      <trkpt lat="49.04059" lon="6.91331">
        <ele>266.3</ele>
        <time>2014-03-26T08:00:32Z</time>
      </trkpt>
      <trkpt lat="49.04062" lon="6.91324">
        <ele>265.7</ele>
        <time>2014-03-26T08:00:37Z</time>
      </trkpt>
      <trkpt lat="49.04065" lon="6.91318">
        <ele>265.8</ele>
        <time>2014-03-26T08:00:42Z</time>
      </trkpt>
      <trkpt lat="49.04067" lon="6.91312">
        <ele>265.2</ele>
        <time>2014-03-26T08:00:47Z</time>
      </trkpt>
      <trkpt lat="49.04068" lon="6.91305">
        <ele>265</ele>
        <time>2014-03-26T08:00:52Z</time>
      </trkpt>
      <trkpt lat="49.0407" lon="6.91298">
        <ele>263.8</ele>
        <time>2014-03-26T08:00:57Z</time>
      </trkpt>
      <trkpt lat="49.04071" lon="6.9129">
        <ele>264.7</ele>
        <time>2014-03-26T08:01:02Z</time>
      </trkpt>
      <trkpt lat="49.04075" lon="6.91274">
        <ele>263.7</ele>
        <time>2014-03-26T08:01:12Z</time>
      </trkpt>
      <trkpt lat="49.04077" lon="6.91267">
        <ele>263.2</ele>
        <time>2014-03-26T08:01:17Z</time>
      </trkpt>
      <trkpt lat="49.04077" lon="6.91258">
        <ele>262.9</ele>
        <time>2014-03-26T08:01:22Z</time>
      </trkpt>
      <trkpt lat="49.04076" lon="6.9125">
        <ele>263.1</ele>
        <time>2014-03-26T08:01:27Z</time>
      </trkpt>
      <trkpt lat="49.04076" lon="6.91242">
        <ele>262.6</ele>
        <time>2014-03-26T08:01:32Z</time>
      </trkpt>
      <trkpt lat="49.04075" lon="6.91233">
        <ele>262.9</ele>
        <time>2014-03-26T08:01:37Z</time>
      </trkpt>
      <trkpt lat="49.04075" lon="6.91224">
        <ele>263.2</ele>
        <time>2014-03-26T08:01:42Z</time>
      </trkpt>
      <trkpt lat="49.04074" lon="6.91214">
        <ele>262.6</ele>
        <time>2014-03-26T08:01:47Z</time>
      </trkpt>
      <trkpt lat="49.04073" lon="6.91206">
        <ele>262.7</ele>
        <time>2014-03-26T08:01:52Z</time>
      </trkpt>
      <trkpt lat="49.04073" lon="6.91198">
        <ele>263.5</ele>
        <time>2014-03-26T08:01:57Z</time>
      </trkpt>
      <trkpt lat="49.04072" lon="6.9119">
        <ele>263.1</ele>
        <time>2014-03-26T08:02:02Z</time>
      </trkpt>
      <trkpt lat="49.04071" lon="6.91182">
        <ele>263.5</ele>
        <time>2014-03-26T08:02:07Z</time>
      </trkpt>
      <trkpt lat="49.04068" lon="6.91164">
        <ele>262.9</ele>
        <time>2014-03-26T08:02:17Z</time>
      </trkpt>
      <trkpt lat="49.04066" lon="6.91155">
        <ele>263</ele>
        <time>2014-03-26T08:02:22Z</time>
      </trkpt>
      <trkpt lat="49.04064" lon="6.91146">
        <ele>263.4</ele>
        <time>2014-03-26T08:02:27Z</time>
      </trkpt>
      <trkpt lat="49.04061" lon="6.91137">
        <ele>263.1</ele>
        <time>2014-03-26T08:02:32Z</time>
      </trkpt>
      <trkpt lat="49.04059" lon="6.91129">
        <ele>263.2</ele>
        <time>2014-03-26T08:02:37Z</time>
      </trkpt>
      <trkpt lat="49.04056" lon="6.91121">
        <ele>262.2</ele>
        <time>2014-03-26T08:02:42Z</time>
      </trkpt>
      <trkpt lat="49.04054" lon="6.91112">
        <ele>262.6</ele>
        <time>2014-03-26T08:02:47Z</time>
      </trkpt>
      <trkpt lat="49.04052" lon="6.91105">
        <ele>262.2</ele>
        <time>2014-03-26T08:02:52Z</time>
      </trkpt>
      <trkpt lat="49.0405" lon="6.91098">
        <ele>262.2</ele>
        <time>2014-03-26T08:02:57Z</time>
      </trkpt>
      <trkpt lat="49.04048" lon="6.9109">
        <ele>262.9</ele>
        <time>2014-03-26T08:03:02Z</time>
      </trkpt>
      <trkpt lat="49.04047" lon="6.91083">
        <ele>262.8</ele>
        <time>2014-03-26T08:03:07Z</time>
      </trkpt>
      <trkpt lat="49.04045" lon="6.91075">
        <ele>262.3</ele>
        <time>2014-03-26T08:03:12Z</time>
      </trkpt>
      <trkpt lat="49.04042" lon="6.91059">
        <ele>261.7</ele>
        <time>2014-03-26T08:03:22Z</time>
      </trkpt>
      <trkpt lat="49.0404" lon="6.91051">
        <ele>260.3</ele>
        <time>2014-03-26T08:03:27Z</time>
      </trkpt>
      <trkpt lat="49.04038" lon="6.91042">
        <ele>260.3</ele>
        <time>2014-03-26T08:03:32Z</time>
      </trkpt>
      <trkpt lat="49.04037" lon="6.91033">
        <ele>259.2</ele>
        <time>2014-03-26T08:03:37Z</time>
      </trkpt>
      <trkpt lat="49.04036" lon="6.91023">
        <ele>258.9</ele>
        <time>2014-03-26T08:03:42Z</time>
      </trkpt>
      <trkpt lat="49.04034" lon="6.91013">
        <ele>258.8</ele>
        <time>2014-03-26T08:03:47Z</time>
      </trkpt>
      <trkpt lat="49.04033" lon="6.91003">
        <ele>258.7</ele>
        <time>2014-03-26T08:03:52Z</time>
      </trkpt>
      <trkpt lat="49.04033" lon="6.90994">
        <ele>258.9</ele>
        <time>2014-03-26T08:03:57Z</time>
      </trkpt>
      <trkpt lat="49.04033" lon="6.90984">
        <ele>257.8</ele>
        <time>2014-03-26T08:04:02Z</time>
      </trkpt>
      <trkpt lat="49.04033" lon="6.90975">
        <ele>258.1</ele>
        <time>2014-03-26T08:04:07Z</time>
      </trkpt>
      <trkpt lat="49.04034" lon="6.90967">
        <ele>257.6</ele>
        <time>2014-03-26T08:04:12Z</time>
      </trkpt>
      <trkpt lat="49.04035" lon="6.9096">
        <ele>256.7</ele>
        <time>2014-03-26T08:04:17Z</time>
      </trkpt>
      <trkpt lat="49.04039" lon="6.90944">
        <ele>255.4</ele>
        <time>2014-03-26T08:04:27Z</time>
      </trkpt>
      <trkpt lat="49.04043" lon="6.90936">
        <ele>255.5</ele>
        <time>2014-03-26T08:04:32Z</time>
      </trkpt>
      <trkpt lat="49.04047" lon="6.90926">
        <ele>254.7</ele>
        <time>2014-03-26T08:04:37Z</time>
      </trkpt>
      <trkpt lat="49.04049" lon="6.90916">
        <ele>254.7</ele>
        <time>2014-03-26T08:04:42Z</time>
      </trkpt>
      <trkpt lat="49.04053" lon="6.90907">
        <ele>254.5</ele>
        <time>2014-03-26T08:04:47Z</time>
      </trkpt>
      <trkpt lat="49.04058" lon="6.90901">
        <ele>254.3</ele>
        <time>2014-03-26T08:04:52Z</time>
      </trkpt>
      <trkpt lat="49.04062" lon="6.90894">
        <ele>253.7</ele>
        <time>2014-03-26T08:04:57Z</time>
      </trkpt>
      <trkpt lat="49.04065" lon="6.90885">
        <ele>253.1</ele>
        <time>2014-03-26T08:05:02Z</time>
      </trkpt>
      <trkpt lat="49.04068" lon="6.90876">
        <ele>253.2</ele>
        <time>2014-03-26T08:05:07Z</time>
      </trkpt>
      <trkpt lat="49.04071" lon="6.90866">
        <ele>253.5</ele>
        <time>2014-03-26T08:05:12Z</time>
      </trkpt>
      <trkpt lat="49.04073" lon="6.90857">
        <ele>253.6</ele>
        <time>2014-03-26T08:05:17Z</time>
      </trkpt>
      <trkpt lat="49.04077" lon="6.90849">
        <ele>253.1</ele>
        <time>2014-03-26T08:05:22Z</time>
      </trkpt>
      <trkpt lat="49.04085" lon="6.90834">
        <ele>254</ele>
        <time>2014-03-26T08:05:32Z</time>
      </trkpt>
      <trkpt lat="49.04088" lon="6.90828">
        <ele>253.7</ele>
        <time>2014-03-26T08:05:37Z</time>
      </trkpt>
      <trkpt lat="49.04091" lon="6.90822">
        <ele>253.7</ele>
        <time>2014-03-26T08:05:42Z</time>
      </trkpt>
      <trkpt lat="49.04094" lon="6.90817">
        <ele>254.1</ele>
        <time>2014-03-26T08:05:47Z</time>
      </trkpt>
      <trkpt lat="49.04097" lon="6.90812">
        <ele>254.3</ele>
        <time>2014-03-26T08:05:52Z</time>
      </trkpt>
      <trkpt lat="49.04101" lon="6.90808">
        <ele>253.7</ele>
        <time>2014-03-26T08:05:57Z</time>
      </trkpt>
      <trkpt lat="49.04106" lon="6.90804">
        <ele>253.6</ele>
        <time>2014-03-26T08:06:02Z</time>
      </trkpt>
      <trkpt lat="49.04111" lon="6.90801">
        <ele>253.3</ele>
        <time>2014-03-26T08:06:07Z</time>
      </trkpt>
      <trkpt lat="49.04116" lon="6.90798">
        <ele>253.2</ele>
        <time>2014-03-26T08:06:12Z</time>
      </trkpt>
      <trkpt lat="49.04122" lon="6.90794">
        <ele>253.9</ele>
        <time>2014-03-26T08:06:17Z</time>
      </trkpt>
      <trkpt lat="49.04128" lon="6.90789">
        <ele>254.3</ele>
        <time>2014-03-26T08:06:22Z</time>
      </trkpt>
      <trkpt lat="49.04133" lon="6.90783">
        <ele>253.4</ele>
        <time>2014-03-26T08:06:27Z</time>
      </trkpt>
      <trkpt lat="49.04142" lon="6.90772">
        <ele>252.5</ele>
        <time>2014-03-26T08:06:37Z</time>
      </trkpt>
      <trkpt lat="49.04146" lon="6.90766">
        <ele>252</ele>
        <time>2014-03-26T08:06:42Z</time>
      </trkpt>
      <trkpt lat="49.0415" lon="6.9076">
        <ele>251.5</ele>
        <time>2014-03-26T08:06:47Z</time>
      </trkpt>
      <trkpt lat="49.04154" lon="6.90753">
        <ele>251.3</ele>
        <time>2014-03-26T08:06:52Z</time>
      </trkpt>
      <trkpt lat="49.04158" lon="6.90746">
        <ele>250.7</ele>
        <time>2014-03-26T08:06:57Z</time>
      </trkpt>
      <trkpt lat="49.04162" lon="6.90739">
        <ele>250.5</ele>
        <time>2014-03-26T08:07:02Z</time>
      </trkpt>
      <trkpt lat="49.04165" lon="6.90733">
        <ele>249.9</ele>
        <time>2014-03-26T08:07:07Z</time>
      </trkpt>
      <trkpt lat="49.04169" lon="6.90727">
        <ele>248.8</ele>
        <time>2014-03-26T08:07:12Z</time>
      </trkpt>
      <trkpt lat="49.04173" lon="6.90723">
        <ele>248.9</ele>
        <time>2014-03-26T08:07:17Z</time>
      </trkpt>
      <trkpt lat="49.04177" lon="6.90719">
        <ele>248.2</ele>
        <time>2014-03-26T08:07:22Z</time>
      </trkpt>
      <trkpt lat="49.04183" lon="6.90714">
        <ele>246.7</ele>
        <time>2014-03-26T08:07:27Z</time>
      </trkpt>
      <trkpt lat="49.04187" lon="6.9071">
        <ele>245.9</ele>
        <time>2014-03-26T08:07:32Z</time>
      </trkpt>
      <trkpt lat="49.04196" lon="6.90704">
        <ele>244.7</ele>
        <time>2014-03-26T08:07:42Z</time>
      </trkpt>
      <trkpt lat="49.04202" lon="6.907">
        <ele>244</ele>
        <time>2014-03-26T08:07:47Z</time>
      </trkpt>
      <trkpt lat="49.04207" lon="6.90697">
        <ele>242.8</ele>
        <time>2014-03-26T08:07:52Z</time>
      </trkpt>
      <trkpt lat="49.04211" lon="6.90693">
        <ele>242.4</ele>
        <time>2014-03-26T08:07:57Z</time>
      </trkpt>
      <trkpt lat="49.04216" lon="6.90691">
        <ele>242.2</ele>
        <time>2014-03-26T08:08:02Z</time>
      </trkpt>
      <trkpt lat="49.04222" lon="6.90688">
        <ele>242.3</ele>
        <time>2014-03-26T08:08:07Z</time>
      </trkpt>
      <trkpt lat="49.04227" lon="6.90686">
        <ele>242</ele>
        <time>2014-03-26T08:08:12Z</time>
      </trkpt>
      <trkpt lat="49.04232" lon="6.90683">
        <ele>240.6</ele>
        <time>2014-03-26T08:08:17Z</time>
      </trkpt>
      <trkpt lat="49.04237" lon="6.90681">
        <ele>240</ele>
        <time>2014-03-26T08:08:22Z</time>
      </trkpt>
      <trkpt lat="49.04242" lon="6.90678">
        <ele>239.3</ele>
        <time>2014-03-26T08:08:27Z</time>
      </trkpt>
      <trkpt lat="49.04247" lon="6.90676">
        <ele>239</ele>
        <time>2014-03-26T08:08:32Z</time>
      </trkpt>
      <trkpt lat="49.04252" lon="6.90674">
        <ele>239.1</ele>
        <time>2014-03-26T08:08:37Z</time>
      </trkpt>
      <trkpt lat="49.04262" lon="6.90668">
        <ele>237.6</ele>
        <time>2014-03-26T08:08:47Z</time>
      </trkpt>
      <trkpt lat="49.04267" lon="6.90665">
        <ele>237.8</ele>
        <time>2014-03-26T08:08:52Z</time>
      </trkpt>
      <trkpt lat="49.04272" lon="6.90662">
        <ele>236.9</ele>
        <time>2014-03-26T08:08:57Z</time>
      </trkpt>
      <trkpt lat="49.04276" lon="6.90659">
        <ele>236.4</ele>
        <time>2014-03-26T08:09:02Z</time>
      </trkpt>
      <trkpt lat="49.04282" lon="6.90657">
        <ele>235.9</ele>
        <time>2014-03-26T08:09:07Z</time>
      </trkpt>
      <trkpt lat="49.04287" lon="6.90655">
        <ele>235.2</ele>
        <time>2014-03-26T08:09:12Z</time>
      </trkpt>
      <trkpt lat="49.04293" lon="6.90652">
        <ele>235.1</ele>
        <time>2014-03-26T08:09:17Z</time>
      </trkpt>
      <trkpt lat="49.04298" lon="6.90649">
        <ele>235.2</ele>
        <time>2014-03-26T08:09:22Z</time>
      </trkpt>
      <trkpt lat="49.04304" lon="6.90646">
        <ele>234.9</ele>
        <time>2014-03-26T08:09:27Z</time>
      </trkpt>
      <trkpt lat="49.0431" lon="6.90644">
        <ele>233.9</ele>
        <time>2014-03-26T08:09:32Z</time>
      </trkpt>
      <trkpt lat="49.04316" lon="6.90641">
        <ele>233.5</ele>
        <time>2014-03-26T08:09:37Z</time>
      </trkpt>
      <trkpt lat="49.04322" lon="6.90638">
        <ele>233.2</ele>
        <time>2014-03-26T08:09:42Z</time>
      </trkpt>
      <trkpt lat="49.04333" lon="6.90633">
        <ele>232.7</ele>
        <time>2014-03-26T08:09:52Z</time>
      </trkpt>
      <trkpt lat="49.04339" lon="6.9063">
        <ele>232.8</ele>
        <time>2014-03-26T08:09:57Z</time>
      </trkpt>
      <trkpt lat="49.04344" lon="6.90627">
        <ele>232.6</ele>
        <time>2014-03-26T08:10:02Z</time>
      </trkpt>
      <trkpt lat="49.0435" lon="6.90625">
        <ele>232.2</ele>
        <time>2014-03-26T08:10:07Z</time>
      </trkpt>
      <trkpt lat="49.04356" lon="6.90623">
        <ele>231.5</ele>
        <time>2014-03-26T08:10:12Z</time>
      </trkpt>
      <trkpt lat="49.04362" lon="6.9062">
        <ele>230.8</ele>
        <time>2014-03-26T08:10:17Z</time>
      </trkpt>
      <trkpt lat="49.04368" lon="6.90619">
        <ele>230.8</ele>
        <time>2014-03-26T08:10:22Z</time>
      </trkpt>
      <trkpt lat="49.04375" lon="6.90617">
        <ele>229.8</ele>
        <time>2014-03-26T08:10:27Z</time>
      </trkpt>
      <trkpt lat="49.0438" lon="6.90614">
        <ele>230.6</ele>
        <time>2014-03-26T08:10:32Z</time>
      </trkpt>
      <trkpt lat="49.04387" lon="6.90611">
        <ele>230.4</ele>
        <time>2014-03-26T08:10:37Z</time>
      </trkpt>
      <trkpt lat="49.04395" lon="6.90609">
        <ele>229.9</ele>
        <time>2014-03-26T08:10:42Z</time>
      </trkpt>
      <trkpt lat="49.04402" lon="6.90606">
        <ele>229.8</ele>
        <time>2014-03-26T08:10:47Z</time>
      </trkpt>
      <trkpt lat="49.04415" lon="6.90601">
        <ele>229.7</ele>
        <time>2014-03-26T08:10:57Z</time>
      </trkpt>
      <trkpt lat="49.04422" lon="6.90599">
        <ele>229.3</ele>
        <time>2014-03-26T08:11:02Z</time>
      </trkpt>
      <trkpt lat="49.04429" lon="6.90596">
        <ele>229.6</ele>
        <time>2014-03-26T08:11:07Z</time>
      </trkpt>
      <trkpt lat="49.04436" lon="6.90593">
        <ele>229.5</ele>
        <time>2014-03-26T08:11:12Z</time>
      </trkpt>
      <trkpt lat="49.04442" lon="6.9059">
        <ele>229.1</ele>
        <time>2014-03-26T08:11:17Z</time>
      </trkpt>
      <trkpt lat="49.04448" lon="6.90586">
        <ele>229</ele>
        <time>2014-03-26T08:11:22Z</time>
      </trkpt>
      <trkpt lat="49.04455" lon="6.90582">
        <ele>228.8</ele>
        <time>2014-03-26T08:11:27Z</time>
      </trkpt>
      <trkpt lat="49.04462" lon="6.90579">
        <ele>228.6</ele>
        <time>2014-03-26T08:11:32Z</time>
      </trkpt>
      <trkpt lat="49.0447" lon="6.90576">
        <ele>228.3</ele>
        <time>2014-03-26T08:11:37Z</time>
      </trkpt>
      <trkpt lat="49.04478" lon="6.90574">
        <ele>227.9</ele>
        <time>2014-03-26T08:11:42Z</time>
      </trkpt>
      <trkpt lat="49.04485" lon="6.90572">
        <ele>227.5</ele>
        <time>2014-03-26T08:11:47Z</time>
      </trkpt>
      <trkpt lat="49.04493" lon="6.9057">
        <ele>227.8</ele>
        <time>2014-03-26T08:11:52Z</time>
      </trkpt>
      <trkpt lat="49.04506" lon="6.90565">
        <ele>227.9</ele>
        <time>2014-03-26T08:12:02Z</time>
      </trkpt>
      <trkpt lat="49.04513" lon="6.90564">
        <ele>227.8</ele>
        <time>2014-03-26T08:12:07Z</time>
      </trkpt>
      <trkpt lat="49.0452" lon="6.90562">
        <ele>227.9</ele>
        <time>2014-03-26T08:12:12Z</time>
      </trkpt>
      <trkpt lat="49.04527" lon="6.90561">
        <ele>227.5</ele>
        <time>2014-03-26T08:12:17Z</time>
      </trkpt>
      <trkpt lat="49.04532" lon="6.90557">
        <ele>228</ele>
        <time>2014-03-26T08:12:22Z</time>
      </trkpt>
      <trkpt lat="49.04538" lon="6.90552">
        <ele>228.3</ele>
        <time>2014-03-26T08:12:27Z</time>
      </trkpt>
      <trkpt lat="49.04544" lon="6.90546">
        <ele>228.1</ele>
        <time>2014-03-26T08:12:32Z</time>
      </trkpt>
      <trkpt lat="49.04549" lon="6.90539">
        <ele>228</ele>
        <time>2014-03-26T08:12:37Z</time>
      </trkpt>
      <trkpt lat="49.04553" lon="6.90531">
        <ele>228.6</ele>
        <time>2014-03-26T08:12:42Z</time>
      </trkpt>
      <trkpt lat="49.04557" lon="6.90522">
        <ele>229</ele>
        <time>2014-03-26T08:12:47Z</time>
      </trkpt>
      <trkpt lat="49.0456" lon="6.90512">
        <ele>228.8</ele>
        <time>2014-03-26T08:12:52Z</time>
      </trkpt>
      <trkpt lat="49.04563" lon="6.905">
        <ele>228.7</ele>
        <time>2014-03-26T08:12:57Z</time>
      </trkpt>
      <trkpt lat="49.04569" lon="6.90478">
        <ele>228.8</ele>
        <time>2014-03-26T08:13:07Z</time>
      </trkpt>
      <trkpt lat="49.04571" lon="6.90468">
        <ele>229</ele>
        <time>2014-03-26T08:13:12Z</time>
      </trkpt>
      <trkpt lat="49.04574" lon="6.90457">
        <ele>229.2</ele>
        <time>2014-03-26T08:13:17Z</time>
      </trkpt>
      <trkpt lat="49.04576" lon="6.90448">
        <ele>229</ele>
        <time>2014-03-26T08:13:22Z</time>
      </trkpt>
      <trkpt lat="49.04579" lon="6.90438">
        <ele>229.4</ele>
        <time>2014-03-26T08:13:27Z</time>
      </trkpt>
      <trkpt lat="49.04583" lon="6.90429">
        <ele>229.6</ele>
        <time>2014-03-26T08:13:32Z</time>
      </trkpt>
      <trkpt lat="49.04589" lon="6.90421">
        <ele>229</ele>
        <time>2014-03-26T08:13:37Z</time>
      </trkpt>
      <trkpt lat="49.04596" lon="6.90414">
        <ele>230</ele>
        <time>2014-03-26T08:13:42Z</time>
      </trkpt>
      <trkpt lat="49.04602" lon="6.90409">
        <ele>230</ele>
        <time>2014-03-26T08:13:47Z</time>
      </trkpt>
      <trkpt lat="49.04609" lon="6.90405">
        <ele>230.3</ele>
        <time>2014-03-26T08:13:52Z</time>
      </trkpt>
      <trkpt lat="49.04616" lon="6.90401">
        <ele>230.4</ele>
        <time>2014-03-26T08:13:57Z</time>
      </trkpt>
      <trkpt lat="49.04623" lon="6.90398">
        <ele>230.3</ele>
        <time>2014-03-26T08:14:02Z</time>
      </trkpt>
      <trkpt lat="49.04637" lon="6.90391">
        <ele>231.5</ele>
        <time>2014-03-26T08:14:12Z</time>
      </trkpt>
      <trkpt lat="49.04643" lon="6.90388">
        <ele>231.3</ele>
        <time>2014-03-26T08:14:17Z</time>
      </trkpt>
      <trkpt lat="49.0465" lon="6.90385">
        <ele>232.4</ele>
        <time>2014-03-26T08:14:22Z</time>
      </trkpt>
      <trkpt lat="49.04656" lon="6.90383">
        <ele>232.3</ele>
        <time>2014-03-26T08:14:27Z</time>
      </trkpt>
      <trkpt lat="49.04663" lon="6.9038">
        <ele>232.5</ele>
        <time>2014-03-26T08:14:32Z</time>
      </trkpt>
      <trkpt lat="49.04669" lon="6.90376">
        <ele>233.1</ele>
        <time>2014-03-26T08:14:37Z</time>
      </trkpt>
      <trkpt lat="49.04676" lon="6.90373">
        <ele>232.9</ele>
        <time>2014-03-26T08:14:42Z</time>
      </trkpt>
      <trkpt lat="49.04682" lon="6.9037">
        <ele>233.4</ele>
        <time>2014-03-26T08:14:47Z</time>
      </trkpt>
      <trkpt lat="49.04689" lon="6.90367">
        <ele>234.3</ele>
        <time>2014-03-26T08:14:52Z</time>
      </trkpt>
      <trkpt lat="49.04695" lon="6.90364">
        <ele>235.4</ele>
        <time>2014-03-26T08:14:57Z</time>
      </trkpt>
      <trkpt lat="49.04701" lon="6.90361">
        <ele>235.8</ele>
        <time>2014-03-26T08:15:02Z</time>
      </trkpt>
      <trkpt lat="49.04707" lon="6.90359">
        <ele>235.5</ele>
        <time>2014-03-26T08:15:07Z</time>
      </trkpt>
      <trkpt lat="49.0472" lon="6.90354">
        <ele>237.2</ele>
        <time>2014-03-26T08:15:17Z</time>
      </trkpt>
      <trkpt lat="49.04726" lon="6.90351">
        <ele>238.1</ele>
        <time>2014-03-26T08:15:22Z</time>
      </trkpt>
      <trkpt lat="49.04732" lon="6.90347">
        <ele>238.4</ele>
        <time>2014-03-26T08:15:27Z</time>
      </trkpt>
      <trkpt lat="49.04738" lon="6.90343">
        <ele>238.3</ele>
        <time>2014-03-26T08:15:32Z</time>
      </trkpt>
      <trkpt lat="49.04743" lon="6.90337">
        <ele>238.8</ele>
        <time>2014-03-26T08:15:37Z</time>
      </trkpt>
      <trkpt lat="49.04747" lon="6.90329">
        <ele>239.5</ele>
        <time>2014-03-26T08:15:42Z</time>
      </trkpt>
      <trkpt lat="49.04751" lon="6.90321">
        <ele>240</ele>
        <time>2014-03-26T08:15:47Z</time>
      </trkpt>
      <trkpt lat="49.04755" lon="6.90313">
        <ele>241.3</ele>
        <time>2014-03-26T08:15:52Z</time>
      </trkpt>
      <trkpt lat="49.04759" lon="6.90305">
        <ele>240.9</ele>
        <time>2014-03-26T08:15:57Z</time>
      </trkpt>
      <trkpt lat="49.04764" lon="6.90298">
        <ele>241.6</ele>
        <time>2014-03-26T08:16:02Z</time>
      </trkpt>
      <trkpt lat="49.04769" lon="6.90291">
        <ele>241.5</ele>
        <time>2014-03-26T08:16:07Z</time>
      </trkpt>
      <trkpt lat="49.04775" lon="6.90286">
        <ele>242.2</ele>
        <time>2014-03-26T08:16:12Z</time>
      </trkpt>
      <trkpt lat="49.04787" lon="6.90276">
        <ele>242.2</ele>
        <time>2014-03-26T08:16:22Z</time>
      </trkpt>
      <trkpt lat="49.04793" lon="6.90272">
        <ele>242.5</ele>
        <time>2014-03-26T08:16:27Z</time>
      </trkpt>
      <trkpt lat="49.04798" lon="6.90268">
        <ele>243.3</ele>
        <time>2014-03-26T08:16:32Z</time>
      </trkpt>
      <trkpt lat="49.04802" lon="6.90264">
        <ele>243.9</ele>
        <time>2014-03-26T08:16:37Z</time>
      </trkpt>
      <trkpt lat="49.04807" lon="6.90261">
        <ele>243.8</ele>
        <time>2014-03-26T08:16:42Z</time>
      </trkpt>
      <trkpt lat="49.04813" lon="6.90258">
        <ele>244.2</ele>
        <time>2014-03-26T08:16:47Z</time>
      </trkpt>
      <trkpt lat="49.04817" lon="6.90254">
        <ele>244.3</ele>
        <time>2014-03-26T08:16:52Z</time>
      </trkpt>
      <trkpt lat="49.04818" lon="6.90253">
        <ele>244.8</ele>
        <time>2014-03-26T08:16:57Z</time>
      </trkpt>
      <trkpt lat="49.04823" lon="6.9025">
        <ele>244.3</ele>
        <time>2014-03-26T08:17:02Z</time>
      </trkpt>
      <trkpt lat="49.04828" lon="6.90247">
        <ele>244.8</ele>
        <time>2014-03-26T08:17:07Z</time>
      </trkpt>
      <trkpt lat="49.04834" lon="6.90243">
        <ele>245.3</ele>
        <time>2014-03-26T08:17:12Z</time>
      </trkpt>
      <trkpt lat="49.0484" lon="6.90241">
        <ele>246.1</ele>
        <time>2014-03-26T08:17:17Z</time>
      </trkpt>
      <trkpt lat="49.04849" lon="6.90237">
        <ele>247</ele>
        <time>2014-03-26T08:17:27Z</time>
      </trkpt>
      <trkpt lat="49.04855" lon="6.90235">
        <ele>247.4</ele>
        <time>2014-03-26T08:17:32Z</time>
      </trkpt>
      <trkpt lat="49.0486" lon="6.90233">
        <ele>247</ele>
        <time>2014-03-26T08:17:37Z</time>
      </trkpt>
      <trkpt lat="49.04865" lon="6.90232">
        <ele>246.8</ele>
        <time>2014-03-26T08:17:42Z</time>
      </trkpt>
      <trkpt lat="49.04871" lon="6.90231">
        <ele>247</ele>
        <time>2014-03-26T08:17:47Z</time>
      </trkpt>
      <trkpt lat="49.04879" lon="6.9023">
        <ele>247.3</ele>
        <time>2014-03-26T08:17:52Z</time>
      </trkpt>
      <trkpt lat="49.04887" lon="6.90229">
        <ele>247.2</ele>
        <time>2014-03-26T08:17:57Z</time>
      </trkpt>
      <trkpt lat="49.04894" lon="6.90227">
        <ele>246.9</ele>
        <time>2014-03-26T08:18:02Z</time>
      </trkpt>
      <trkpt lat="49.04902" lon="6.90225">
        <ele>247</ele>
        <time>2014-03-26T08:18:07Z</time>
      </trkpt>
      <trkpt lat="49.04909" lon="6.90223">
        <ele>247</ele>
        <time>2014-03-26T08:18:12Z</time>
      </trkpt>
      <trkpt lat="49.04915" lon="6.90221">
        <ele>246.1</ele>
        <time>2014-03-26T08:18:17Z</time>
      </trkpt>
      <trkpt lat="49.04922" lon="6.90221">
        <ele>245.9</ele>
        <time>2014-03-26T08:18:22Z</time>
      </trkpt>
      <trkpt lat="49.04935" lon="6.90213">
        <ele>246.3</ele>
        <time>2014-03-26T08:18:32Z</time>
      </trkpt>
      <trkpt lat="49.0494" lon="6.90207">
        <ele>245.7</ele>
        <time>2014-03-26T08:18:37Z</time>
      </trkpt>
      <trkpt lat="49.04945" lon="6.90201">
        <ele>245.3</ele>
        <time>2014-03-26T08:18:42Z</time>
      </trkpt>
      <trkpt lat="49.04951" lon="6.90194">
        <ele>244.1</ele>
        <time>2014-03-26T08:18:47Z</time>
      </trkpt>
      <trkpt lat="49.04957" lon="6.90185">
        <ele>243.9</ele>
        <time>2014-03-26T08:18:52Z</time>
      </trkpt>
      <trkpt lat="49.04962" lon="6.90176">
        <ele>243.1</ele>
        <time>2014-03-26T08:18:57Z</time>
      </trkpt>
      <trkpt lat="49.04967" lon="6.90168">
        <ele>244.1</ele>
        <time>2014-03-26T08:19:02Z</time>
      </trkpt>
      <trkpt lat="49.04971" lon="6.90159">
        <ele>243.4</ele>
        <time>2014-03-26T08:19:07Z</time>
      </trkpt>
      <trkpt lat="49.04975" lon="6.90152">
        <ele>243.2</ele>
        <time>2014-03-26T08:19:12Z</time>
      </trkpt>
      <trkpt lat="49.04978" lon="6.90145">
        <ele>243.3</ele>
        <time>2014-03-26T08:19:17Z</time>
      </trkpt>
      <trkpt lat="49.04981" lon="6.90136">
        <ele>243.5</ele>
        <time>2014-03-26T08:19:22Z</time>
      </trkpt>
      <trkpt lat="49.04985" lon="6.90129">
        <ele>243.7</ele>
        <time>2014-03-26T08:19:27Z</time>
      </trkpt>
      <trkpt lat="49.04994" lon="6.90114">
        <ele>243.5</ele>
        <time>2014-03-26T08:19:37Z</time>
      </trkpt>
      <trkpt lat="49.05" lon="6.90105">
        <ele>244.5</ele>
        <time>2014-03-26T08:19:42Z</time>
      </trkpt>
      <trkpt lat="49.05006" lon="6.90096">
        <ele>245.1</ele>
        <time>2014-03-26T08:19:47Z</time>
      </trkpt>
      <trkpt lat="49.05008" lon="6.90085">
        <ele>244.9</ele>
        <time>2014-03-26T08:19:52Z</time>
      </trkpt>
      <trkpt lat="49.05007" lon="6.90073">
        <ele>244</ele>
        <time>2014-03-26T08:19:57Z</time>
      </trkpt>
      <trkpt lat="49.05004" lon="6.90062">
        <ele>243.7</ele>
        <time>2014-03-26T08:20:02Z</time>
      </trkpt>
      <trkpt lat="49.05" lon="6.90052">
        <ele>243.7</ele>
        <time>2014-03-26T08:20:07Z</time>
      </trkpt>
      <trkpt lat="49.04997" lon="6.90044">
        <ele>243.5</ele>
        <time>2014-03-26T08:20:12Z</time>
      </trkpt>
      <trkpt lat="49.04995" lon="6.90032">
        <ele>243.3</ele>
        <time>2014-03-26T08:20:17Z</time>
      </trkpt>
      <trkpt lat="49.04994" lon="6.90022">
        <ele>243.4</ele>
        <time>2014-03-26T08:20:22Z</time>
      </trkpt>
      <trkpt lat="49.04993" lon="6.90013">
        <ele>243.3</ele>
        <time>2014-03-26T08:20:27Z</time>
      </trkpt>
      <trkpt lat="49.04991" lon="6.90003">
        <ele>243.8</ele>
        <time>2014-03-26T08:20:32Z</time>
      </trkpt>
      <trkpt lat="49.04989" lon="6.89984">
        <ele>243.6</ele>
        <time>2014-03-26T08:20:42Z</time>
      </trkpt>
      <trkpt lat="49.04988" lon="6.89976">
        <ele>244.5</ele>
        <time>2014-03-26T08:20:47Z</time>
      </trkpt>
      <trkpt lat="49.04987" lon="6.89969">
        <ele>245.3</ele>
        <time>2014-03-26T08:20:52Z</time>
      </trkpt>
      <trkpt lat="49.04985" lon="6.89961">
        <ele>245.4</ele>
        <time>2014-03-26T08:20:57Z</time>
      </trkpt>
      <trkpt lat="49.04983" lon="6.89951">
        <ele>246.8</ele>
        <time>2014-03-26T08:21:02Z</time>
      </trkpt>
      <trkpt lat="49.04981" lon="6.8994">
        <ele>247</ele>
        <time>2014-03-26T08:21:07Z</time>
      </trkpt>
      <trkpt lat="49.04977" lon="6.89931">
        <ele>248.3</ele>
        <time>2014-03-26T08:21:12Z</time>
      </trkpt>
      <trkpt lat="49.04975" lon="6.89922">
        <ele>249.1</ele>
        <time>2014-03-26T08:21:17Z</time>
      </trkpt>
      <trkpt lat="49.04972" lon="6.89914">
        <ele>250.6</ele>
        <time>2014-03-26T08:21:22Z</time>
      </trkpt>
      <trkpt lat="49.0497" lon="6.89905">
        <ele>251.8</ele>
        <time>2014-03-26T08:21:27Z</time>
      </trkpt>
      <trkpt lat="49.04967" lon="6.89896">
        <ele>252.6</ele>
        <time>2014-03-26T08:21:32Z</time>
      </trkpt>
      <trkpt lat="49.04965" lon="6.89888">
        <ele>253.1</ele>
        <time>2014-03-26T08:21:37Z</time>
      </trkpt>
      <trkpt lat="49.04958" lon="6.89868">
        <ele>254.6</ele>
        <time>2014-03-26T08:21:47Z</time>
      </trkpt>
      <trkpt lat="49.04954" lon="6.89856">
        <ele>254.2</ele>
        <time>2014-03-26T08:21:52Z</time>
      </trkpt>
      <trkpt lat="49.0495" lon="6.89845">
        <ele>255.3</ele>
        <time>2014-03-26T08:21:57Z</time>
      </trkpt>
      <trkpt lat="49.04947" lon="6.89836">
        <ele>256</ele>
        <time>2014-03-26T08:22:02Z</time>
      </trkpt>
      <trkpt lat="49.04944" lon="6.89826">
        <ele>254.9</ele>
        <time>2014-03-26T08:22:07Z</time>
      </trkpt>
      <trkpt lat="49.04941" lon="6.89815">
        <ele>256.4</ele>
        <time>2014-03-26T08:22:12Z</time>
      </trkpt>
      <trkpt lat="49.04938" lon="6.89805">
        <ele>256.6</ele>
        <time>2014-03-26T08:22:17Z</time>
      </trkpt>
      <trkpt lat="49.04934" lon="6.89795">
        <ele>256.4</ele>
        <time>2014-03-26T08:22:22Z</time>
      </trkpt>
      <trkpt lat="49.04932" lon="6.89785">
        <ele>255.7</ele>
        <time>2014-03-26T08:22:27Z</time>
      </trkpt>
      <trkpt lat="49.0493" lon="6.89776">
        <ele>256.3</ele>
        <time>2014-03-26T08:22:32Z</time>
      </trkpt>
      <trkpt lat="49.04928" lon="6.89766">
        <ele>256.3</ele>
        <time>2014-03-26T08:22:37Z</time>
      </trkpt>
      <trkpt lat="49.04927" lon="6.89757">
        <ele>256.6</ele>
        <time>2014-03-26T08:22:42Z</time>
      </trkpt>
      <trkpt lat="49.04926" lon="6.89739">
        <ele>255.7</ele>
        <time>2014-03-26T08:22:52Z</time>
      </trkpt>
      <trkpt lat="49.04924" lon="6.8973">
        <ele>254.7</ele>
        <time>2014-03-26T08:22:57Z</time>
      </trkpt>
      <trkpt lat="49.04922" lon="6.8972">
        <ele>254.5</ele>
        <time>2014-03-26T08:23:02Z</time>
      </trkpt>
      <trkpt lat="49.04921" lon="6.89711">
        <ele>254.5</ele>
        <time>2014-03-26T08:23:07Z</time>
      </trkpt>
      <trkpt lat="49.0492" lon="6.89701">
        <ele>255</ele>
        <time>2014-03-26T08:23:12Z</time>
      </trkpt>
      <trkpt lat="49.04919" lon="6.89691">
        <ele>254</ele>
        <time>2014-03-26T08:23:17Z</time>
      </trkpt>
      <trkpt lat="49.04919" lon="6.8968">
        <ele>253.7</ele>
        <time>2014-03-26T08:23:22Z</time>
      </trkpt>
      <trkpt lat="49.04918" lon="6.89668">
        <ele>253</ele>
        <time>2014-03-26T08:23:27Z</time>
      </trkpt>
      <trkpt lat="49.04917" lon="6.89656">
        <ele>252.7</ele>
        <time>2014-03-26T08:23:32Z</time>
      </trkpt>
      <trkpt lat="49.04916" lon="6.89645">
        <ele>252.9</ele>
        <time>2014-03-26T08:23:37Z</time>
      </trkpt>
      <trkpt lat="49.04914" lon="6.89634">
        <ele>251.2</ele>
        <time>2014-03-26T08:23:42Z</time>
      </trkpt>
      <trkpt lat="49.04912" lon="6.89622">
        <ele>250.9</ele>
        <time>2014-03-26T08:23:47Z</time>
      </trkpt>
      <trkpt lat="49.04908" lon="6.89602">
        <ele>249.4</ele>
        <time>2014-03-26T08:23:57Z</time>
      </trkpt>
      <trkpt lat="49.04905" lon="6.89595">
        <ele>249.4</ele>
        <time>2014-03-26T08:24:02Z</time>
      </trkpt>
      <trkpt lat="49.04903" lon="6.89585">
        <ele>249.6</ele>
        <time>2014-03-26T08:24:07Z</time>
      </trkpt>
      <trkpt lat="49.04901" lon="6.89574">
        <ele>249.1</ele>
        <time>2014-03-26T08:24:12Z</time>
      </trkpt>
      <trkpt lat="49.04899" lon="6.89564">
        <ele>248.7</ele>
        <time>2014-03-26T08:24:17Z</time>
      </trkpt>
      <trkpt lat="49.04897" lon="6.89553">
        <ele>248.2</ele>
        <time>2014-03-26T08:24:22Z</time>
      </trkpt>
      <trkpt lat="49.04894" lon="6.89542">
        <ele>247.4</ele>
        <time>2014-03-26T08:24:27Z</time>
      </trkpt>
      <trkpt lat="49.04892" lon="6.89531">
        <ele>248.1</ele>
        <time>2014-03-26T08:24:32Z</time>
      </trkpt>
      <trkpt lat="49.04889" lon="6.8952">
        <ele>248.8</ele>
        <time>2014-03-26T08:24:37Z</time>
      </trkpt>
      <trkpt lat="49.04886" lon="6.89509">
        <ele>247.8</ele>
        <time>2014-03-26T08:24:42Z</time>
      </trkpt>
      <trkpt lat="49.04884" lon="6.89499">
        <ele>247.7</ele>
        <time>2014-03-26T08:24:47Z</time>
      </trkpt>
      <trkpt lat="49.04881" lon="6.89489">
        <ele>247.2</ele>
        <time>2014-03-26T08:24:52Z</time>
      </trkpt>
      <trkpt lat="49.04876" lon="6.89468">
        <ele>247.6</ele>
        <time>2014-03-26T08:25:02Z</time>
      </trkpt>
      <trkpt lat="49.04874" lon="6.89458">
        <ele>247.1</ele>
        <time>2014-03-26T08:25:07Z</time>
      </trkpt>
      <trkpt lat="49.04871" lon="6.89449">
        <ele>246.9</ele>
        <time>2014-03-26T08:25:12Z</time>
      </trkpt>
      <trkpt lat="49.04868" lon="6.8944">
        <ele>246.6</ele>
        <time>2014-03-26T08:25:17Z</time>
      </trkpt>
      <trkpt lat="49.04866" lon="6.8943">
        <ele>246</ele>
        <time>2014-03-26T08:25:22Z</time>
      </trkpt>
      <trkpt lat="49.04862" lon="6.89422">
        <ele>245.6</ele>
        <time>2014-03-26T08:25:27Z</time>
      </trkpt>
      <trkpt lat="49.04859" lon="6.89414">
        <ele>246</ele>
        <time>2014-03-26T08:25:32Z</time>
      </trkpt>
      <trkpt lat="49.04856" lon="6.89407">
        <ele>245.1</ele>
        <time>2014-03-26T08:25:37Z</time>
      </trkpt>
      <trkpt lat="49.04852" lon="6.89402">
        <ele>244.4</ele>
        <time>2014-03-26T08:25:42Z</time>
      </trkpt>
      <trkpt lat="49.04848" lon="6.89395">
        <ele>244.3</ele>
        <time>2014-03-26T08:25:47Z</time>
      </trkpt>
      <trkpt lat="49.04843" lon="6.89385">
        <ele>244.1</ele>
        <time>2014-03-26T08:25:52Z</time>
      </trkpt>
      <trkpt lat="49.04838" lon="6.89376">
        <ele>244.2</ele>
        <time>2014-03-26T08:25:57Z</time>
      </trkpt>
      <trkpt lat="49.0483" lon="6.89358">
        <ele>243.5</ele>
        <time>2014-03-26T08:26:07Z</time>
      </trkpt>
      <trkpt lat="49.04825" lon="6.89348">
        <ele>243.9</ele>
        <time>2014-03-26T08:26:12Z</time>
      </trkpt>
      <trkpt lat="49.0482" lon="6.89338">
        <ele>243.4</ele>
        <time>2014-03-26T08:26:17Z</time>
      </trkpt>
      <trkpt lat="49.04815" lon="6.89329">
        <ele>242.8</ele>
        <time>2014-03-26T08:26:22Z</time>
      </trkpt>
      <trkpt lat="49.0481" lon="6.8932">
        <ele>242.8</ele>
        <time>2014-03-26T08:26:27Z</time>
      </trkpt>
      <trkpt lat="49.04806" lon="6.89313">
        <ele>242.4</ele>
        <time>2014-03-26T08:26:32Z</time>
      </trkpt>
      <trkpt lat="49.04803" lon="6.89307">
        <ele>242.7</ele>
        <time>2014-03-26T08:26:37Z</time>
      </trkpt>
      <trkpt lat="49.048" lon="6.893">
        <ele>242</ele>
        <time>2014-03-26T08:26:42Z</time>
      </trkpt>
      <trkpt lat="49.04796" lon="6.89292">
        <ele>241.8</ele>
        <time>2014-03-26T08:26:47Z</time>
      </trkpt>
      <trkpt lat="49.04792" lon="6.89285">
        <ele>241.8</ele>
        <time>2014-03-26T08:26:52Z</time>
      </trkpt>
      <trkpt lat="49.04788" lon="6.89278">
        <ele>241.5</ele>
        <time>2014-03-26T08:26:57Z</time>
      </trkpt>
      <trkpt lat="49.04784" lon="6.89271">
        <ele>241.4</ele>
        <time>2014-03-26T08:27:02Z</time>
      </trkpt>
      <trkpt lat="49.04776" lon="6.89257">
        <ele>240.9</ele>
        <time>2014-03-26T08:27:12Z</time>
      </trkpt>
      <trkpt lat="49.04772" lon="6.89249">
        <ele>241.2</ele>
        <time>2014-03-26T08:27:17Z</time>
      </trkpt>
      <trkpt lat="49.04768" lon="6.89241">
        <ele>241.2</ele>
        <time>2014-03-26T08:27:22Z</time>
      </trkpt>
      <trkpt lat="49.04764" lon="6.89233">
        <ele>240.1</ele>
        <time>2014-03-26T08:27:27Z</time>
      </trkpt>
      <trkpt lat="49.0476" lon="6.89228">
        <ele>240.4</ele>
        <time>2014-03-26T08:27:32Z</time>
      </trkpt>
      <trkpt lat="49.04755" lon="6.89231">
        <ele>239.6</ele>
        <time>2014-03-26T08:27:37Z</time>
      </trkpt>
      <trkpt lat="49.04751" lon="6.89236">
        <ele>239.7</ele>
        <time>2014-03-26T08:27:42Z</time>
      </trkpt>
      <trkpt lat="49.04747" lon="6.89242">
        <ele>239.8</ele>
        <time>2014-03-26T08:27:47Z</time>
      </trkpt>
      <trkpt lat="49.04743" lon="6.89246">
        <ele>240.2</ele>
        <time>2014-03-26T08:27:52Z</time>
      </trkpt>
      <trkpt lat="49.04738" lon="6.89252">
        <ele>239.1</ele>
        <time>2014-03-26T08:27:57Z</time>
      </trkpt>
      <trkpt lat="49.04734" lon="6.89257">
        <ele>239.4</ele>
        <time>2014-03-26T08:28:02Z</time>
      </trkpt>
      <trkpt lat="49.0473" lon="6.89264">
        <ele>239.4</ele>
        <time>2014-03-26T08:28:07Z</time>
      </trkpt>
      <trkpt lat="49.04723" lon="6.89278">
        <ele>239.2</ele>
        <time>2014-03-26T08:28:17Z</time>
      </trkpt>
      <trkpt lat="49.04717" lon="6.89281">
        <ele>238.8</ele>
        <time>2014-03-26T08:28:22Z</time>
      </trkpt>
      <trkpt lat="49.04711" lon="6.89283">
        <ele>239.2</ele>
        <time>2014-03-26T08:28:27Z</time>
      </trkpt>
      <trkpt lat="49.04705" lon="6.89281">
        <ele>239</ele>
        <time>2014-03-26T08:28:32Z</time>
      </trkpt>
      <trkpt lat="49.04698" lon="6.89279">
        <ele>239.1</ele>
        <time>2014-03-26T08:28:37Z</time>
      </trkpt>
      <trkpt lat="49.04693" lon="6.89277">
        <ele>238.8</ele>
        <time>2014-03-26T08:28:42Z</time>
      </trkpt>
      <trkpt lat="49.04687" lon="6.89274">
        <ele>239.1</ele>
        <time>2014-03-26T08:28:47Z</time>
      </trkpt>
      <trkpt lat="49.04681" lon="6.89273">
        <ele>238.9</ele>
        <time>2014-03-26T08:28:52Z</time>
      </trkpt>
      <trkpt lat="49.04675" lon="6.89273">
        <ele>238.7</ele>
        <time>2014-03-26T08:28:57Z</time>
      </trkpt>
      <trkpt lat="49.04669" lon="6.89274">
        <ele>238.7</ele>
        <time>2014-03-26T08:29:02Z</time>
      </trkpt>
      <trkpt lat="49.04662" lon="6.89276">
        <ele>239.2</ele>
        <time>2014-03-26T08:29:07Z</time>
      </trkpt>
      <trkpt lat="49.04655" lon="6.89278">
        <ele>239.6</ele>
        <time>2014-03-26T08:29:12Z</time>
      </trkpt>
      <trkpt lat="49.04643" lon="6.89288">
        <ele>240.3</ele>
        <time>2014-03-26T08:29:22Z</time>
      </trkpt>
      <trkpt lat="49.04638" lon="6.89293">
        <ele>240.7</ele>
        <time>2014-03-26T08:29:27Z</time>
      </trkpt>
      <trkpt lat="49.04633" lon="6.89299">
        <ele>240.9</ele>
        <time>2014-03-26T08:29:32Z</time>
      </trkpt>
      <trkpt lat="49.04629" lon="6.89304">
        <ele>240.9</ele>
        <time>2014-03-26T08:29:37Z</time>
      </trkpt>
      <trkpt lat="49.04624" lon="6.8931">
        <ele>240.4</ele>
        <time>2014-03-26T08:29:42Z</time>
      </trkpt>
      <trkpt lat="49.04619" lon="6.89315">
        <ele>240</ele>
        <time>2014-03-26T08:29:47Z</time>
      </trkpt>
      <trkpt lat="49.04613" lon="6.89317">
        <ele>240.4</ele>
        <time>2014-03-26T08:29:52Z</time>
      </trkpt>
      <trkpt lat="49.04608" lon="6.89318">
        <ele>239.4</ele>
        <time>2014-03-26T08:29:57Z</time>
      </trkpt>
      <trkpt lat="49.04602" lon="6.89318">
        <ele>240.3</ele>
        <time>2014-03-26T08:30:02Z</time>
      </trkpt>
      <trkpt lat="49.04595" lon="6.89318">
        <ele>240.5</ele>
        <time>2014-03-26T08:30:07Z</time>
      </trkpt>
      <trkpt lat="49.04589" lon="6.89318">
        <ele>240</ele>
        <time>2014-03-26T08:30:12Z</time>
      </trkpt>
      <trkpt lat="49.04584" lon="6.89318">
        <ele>239.9</ele>
        <time>2014-03-26T08:30:17Z</time>
      </trkpt>
      <trkpt lat="49.04577" lon="6.89318">
        <ele>240</ele>
        <time>2014-03-26T08:30:27Z</time>
      </trkpt>
      <trkpt lat="49.04573" lon="6.89318">
        <ele>240.1</ele>
        <time>2014-03-26T08:30:32Z</time>
      </trkpt>
      <trkpt lat="49.04568" lon="6.89317">
        <ele>239.9</ele>
        <time>2014-03-26T08:30:37Z</time>
      </trkpt>
      <trkpt lat="49.04563" lon="6.89318">
        <ele>240.1</ele>
        <time>2014-03-26T08:30:42Z</time>
      </trkpt>
      <trkpt lat="49.04557" lon="6.89318">
        <ele>239.6</ele>
        <time>2014-03-26T08:30:47Z</time>
      </trkpt>
      <trkpt lat="49.04551" lon="6.89318">
        <ele>239.9</ele>
        <time>2014-03-26T08:30:52Z</time>
      </trkpt>
      <trkpt lat="49.04545" lon="6.89318">
        <ele>239</ele>
        <time>2014-03-26T08:30:57Z</time>
      </trkpt>
      <trkpt lat="49.04539" lon="6.89318">
        <ele>239.7</ele>
        <time>2014-03-26T08:31:02Z</time>
      </trkpt>
      <trkpt lat="49.04533" lon="6.89318">
        <ele>239.8</ele>
        <time>2014-03-26T08:31:07Z</time>
      </trkpt>
      <trkpt lat="49.04527" lon="6.89318">
        <ele>239.9</ele>
        <time>2014-03-26T08:31:12Z</time>
      </trkpt>
      <trkpt lat="49.0452" lon="6.89318">
        <ele>239.7</ele>
        <time>2014-03-26T08:31:17Z</time>
      </trkpt>
      <trkpt lat="49.04514" lon="6.89318">
        <ele>240.2</ele>
        <time>2014-03-26T08:31:22Z</time>
      </trkpt>
      <trkpt lat="49.04501" lon="6.89319">
        <ele>240.1</ele>
        <time>2014-03-26T08:31:32Z</time>
      </trkpt>
      <trkpt lat="49.04494" lon="6.89319">
        <ele>240.1</ele>
        <time>2014-03-26T08:31:37Z</time>
      </trkpt>
      <trkpt lat="49.04488" lon="6.89319">
        <ele>239.8</ele>
        <time>2014-03-26T08:31:42Z</time>
      </trkpt>
      <trkpt lat="49.04482" lon="6.89318">
        <ele>240.4</ele>
        <time>2014-03-26T08:31:47Z</time>
      </trkpt>
      <trkpt lat="49.04476" lon="6.89318">
        <ele>239.8</ele>
        <time>2014-03-26T08:31:52Z</time>
      </trkpt>
      <trkpt lat="49.04469" lon="6.89318">
        <ele>240.2</ele>
        <time>2014-03-26T08:31:57Z</time>
      </trkpt>
      <trkpt lat="49.04462" lon="6.89318">
        <ele>239.8</ele>
        <time>2014-03-26T08:32:02Z</time>
      </trkpt>
      <trkpt lat="49.04455" lon="6.89319">
        <ele>239.1</ele>
        <time>2014-03-26T08:32:07Z</time>
      </trkpt>
      <trkpt lat="49.04448" lon="6.89319">
        <ele>240</ele>
        <time>2014-03-26T08:32:12Z</time>
      </trkpt>
      <trkpt lat="49.04441" lon="6.89319">
        <ele>239.4</ele>
        <time>2014-03-26T08:32:17Z</time>
      </trkpt>
      <trkpt lat="49.04434" lon="6.89319">
        <ele>239.7</ele>
        <time>2014-03-26T08:32:22Z</time>
      </trkpt>
      <trkpt lat="49.04428" lon="6.89319">
        <ele>240.1</ele>
        <time>2014-03-26T08:32:27Z</time>
      </trkpt>
      <trkpt lat="49.04415" lon="6.8932">
        <ele>240</ele>
        <time>2014-03-26T08:32:37Z</time>
      </trkpt>
      <trkpt lat="49.04409" lon="6.8932">
        <ele>239.9</ele>
        <time>2014-03-26T08:32:42Z</time>
      </trkpt>
      <trkpt lat="49.04402" lon="6.8932">
        <ele>239.1</ele>
        <time>2014-03-26T08:32:47Z</time>
      </trkpt>
      <trkpt lat="49.04395" lon="6.8932">
        <ele>239.3</ele>
        <time>2014-03-26T08:32:52Z</time>
      </trkpt>
      <trkpt lat="49.04389" lon="6.8932">
        <ele>240.3</ele>
        <time>2014-03-26T08:32:57Z</time>
      </trkpt>
      <trkpt lat="49.04382" lon="6.89321">
        <ele>240.4</ele>
        <time>2014-03-26T08:33:02Z</time>
      </trkpt>
      <trkpt lat="49.04375" lon="6.89321">
        <ele>240.4</ele>
        <time>2014-03-26T08:33:07Z</time>
      </trkpt>
      <trkpt lat="49.04368" lon="6.89321">
        <ele>240.5</ele>
        <time>2014-03-26T08:33:12Z</time>
      </trkpt>
      <trkpt lat="49.04362" lon="6.89321">
        <ele>240.6</ele>
        <time>2014-03-26T08:33:17Z</time>
      </trkpt>
      <trkpt lat="49.04356" lon="6.89321">
        <ele>239.6</ele>
        <time>2014-03-26T08:33:22Z</time>
      </trkpt>
      <trkpt lat="49.04351" lon="6.8932">
        <ele>239.1</ele>
        <time>2014-03-26T08:33:27Z</time>
      </trkpt>
      <trkpt lat="49.04347" lon="6.89321">
        <ele>239.9</ele>
        <time>2014-03-26T08:33:32Z</time>
      </trkpt>
      <trkpt lat="49.04336" lon="6.89324">
        <ele>240.5</ele>
        <time>2014-03-26T08:33:42Z</time>
      </trkpt>
      <trkpt lat="49.04332" lon="6.89331">
        <ele>240.5</ele>
        <time>2014-03-26T08:33:47Z</time>
      </trkpt>
      <trkpt lat="49.04329" lon="6.89334">
        <ele>240.6</ele>
        <time>2014-03-26T08:33:52Z</time>
      </trkpt>
      <trkpt lat="49.04324" lon="6.89337">
        <ele>240.7</ele>
        <time>2014-03-26T08:33:57Z</time>
      </trkpt>
      <trkpt lat="49.0432" lon="6.89341">
        <ele>240.5</ele>
        <time>2014-03-26T08:34:02Z</time>
      </trkpt>
      <trkpt lat="49.04313" lon="6.89346">
        <ele>240.1</ele>
        <time>2014-03-26T08:34:07Z</time>
      </trkpt>
      <trkpt lat="49.04307" lon="6.89349">
        <ele>241</ele>
        <time>2014-03-26T08:34:12Z</time>
      </trkpt>
      <trkpt lat="49.04301" lon="6.89352">
        <ele>241.6</ele>
        <time>2014-03-26T08:34:17Z</time>
      </trkpt>
      <trkpt lat="49.04296" lon="6.89353">
        <ele>242</ele>
        <time>2014-03-26T08:34:22Z</time>
      </trkpt>
      <trkpt lat="49.0429" lon="6.89355">
        <ele>242.7</ele>
        <time>2014-03-26T08:34:27Z</time>
      </trkpt>
      <trkpt lat="49.04282" lon="6.89355">
        <ele>243.7</ele>
        <time>2014-03-26T08:34:32Z</time>
      </trkpt>
      <trkpt lat="49.04276" lon="6.89357">
        <ele>243.9</ele>
        <time>2014-03-26T08:34:37Z</time>
      </trkpt>
      <trkpt lat="49.04261" lon="6.89354">
        <ele>244.6</ele>
        <time>2014-03-26T08:34:47Z</time>
      </trkpt>
      <trkpt lat="49.04255" lon="6.89349">
        <ele>244.8</ele>
        <time>2014-03-26T08:34:52Z</time>
      </trkpt>
      <trkpt lat="49.04251" lon="6.89339">
        <ele>245.2</ele>
        <time>2014-03-26T08:34:57Z</time>
      </trkpt>
      <trkpt lat="49.04247" lon="6.8933">
        <ele>245.5</ele>
        <time>2014-03-26T08:35:02Z</time>
      </trkpt>
      <trkpt lat="49.04244" lon="6.89318">
        <ele>245.6</ele>
        <time>2014-03-26T08:35:07Z</time>
      </trkpt>
      <trkpt lat="49.04242" lon="6.89307">
        <ele>245.2</ele>
        <time>2014-03-26T08:35:12Z</time>
      </trkpt>
      <trkpt lat="49.0424" lon="6.89297">
        <ele>245.3</ele>
        <time>2014-03-26T08:35:17Z</time>
      </trkpt>
      <trkpt lat="49.04238" lon="6.89286">
        <ele>245.7</ele>
        <time>2014-03-26T08:35:22Z</time>
      </trkpt>
      <trkpt lat="49.04237" lon="6.89277">
        <ele>245.3</ele>
        <time>2014-03-26T08:35:27Z</time>
      </trkpt>
      <trkpt lat="49.04236" lon="6.89267">
        <ele>245.7</ele>
        <time>2014-03-26T08:35:32Z</time>
      </trkpt>
      <trkpt lat="49.04234" lon="6.89257">
        <ele>245.4</ele>
        <time>2014-03-26T08:35:37Z</time>
      </trkpt>
      <trkpt lat="49.04234" lon="6.89247">
        <ele>246.1</ele>
        <time>2014-03-26T08:35:42Z</time>
      </trkpt>
      <trkpt lat="49.04232" lon="6.89226">
        <ele>246.2</ele>
        <time>2014-03-26T08:35:52Z</time>
      </trkpt>
      <trkpt lat="49.04232" lon="6.89215">
        <ele>246.1</ele>
        <time>2014-03-26T08:35:57Z</time>
      </trkpt>
      <trkpt lat="49.04231" lon="6.89205">
        <ele>246.6</ele>
        <time>2014-03-26T08:36:02Z</time>
      </trkpt>
      <trkpt lat="49.0423" lon="6.89195">
        <ele>246.5</ele>
        <time>2014-03-26T08:36:07Z</time>
      </trkpt>
      <trkpt lat="49.0423" lon="6.89186">
        <ele>246.3</ele>
        <time>2014-03-26T08:36:12Z</time>
      </trkpt>
      <trkpt lat="49.04229" lon="6.89176">
        <ele>246.9</ele>
        <time>2014-03-26T08:36:17Z</time>
      </trkpt>
      <trkpt lat="49.04227" lon="6.89167">
        <ele>246.6</ele>
        <time>2014-03-26T08:36:22Z</time>
      </trkpt>
      <trkpt lat="49.04226" lon="6.89156">
        <ele>247</ele>
        <time>2014-03-26T08:36:27Z</time>
      </trkpt>
      <trkpt lat="49.04223" lon="6.89146">
        <ele>247.4</ele>
        <time>2014-03-26T08:36:32Z</time>
      </trkpt>
      <trkpt lat="49.04222" lon="6.89136">
        <ele>247.1</ele>
        <time>2014-03-26T08:36:37Z</time>
      </trkpt>
      <trkpt lat="49.04221" lon="6.89126">
        <ele>246.3</ele>
        <time>2014-03-26T08:36:42Z</time>
      </trkpt>
      <trkpt lat="49.0422" lon="6.89115">
        <ele>246.5</ele>
        <time>2014-03-26T08:36:47Z</time>
      </trkpt>
      <trkpt lat="49.04218" lon="6.89093">
        <ele>245.8</ele>
        <time>2014-03-26T08:36:57Z</time>
      </trkpt>
      <trkpt lat="49.04217" lon="6.89081">
        <ele>245.8</ele>
        <time>2014-03-26T08:37:02Z</time>
      </trkpt>
      <trkpt lat="49.04216" lon="6.8907">
        <ele>246</ele>
        <time>2014-03-26T08:37:07Z</time>
      </trkpt>
      <trkpt lat="49.04216" lon="6.89059">
        <ele>245.6</ele>
        <time>2014-03-26T08:37:12Z</time>
      </trkpt>
      <trkpt lat="49.04215" lon="6.89048">
        <ele>246.3</ele>
        <time>2014-03-26T08:37:17Z</time>
      </trkpt>
      <trkpt lat="49.04214" lon="6.89036">
        <ele>244.8</ele>
        <time>2014-03-26T08:37:22Z</time>
      </trkpt>
      <trkpt lat="49.04213" lon="6.89025">
        <ele>246</ele>
        <time>2014-03-26T08:37:27Z</time>
      </trkpt>
      <trkpt lat="49.04213" lon="6.89015">
        <ele>246.2</ele>
        <time>2014-03-26T08:37:32Z</time>
      </trkpt>
      <trkpt lat="49.04212" lon="6.89005">
        <ele>245.5</ele>
        <time>2014-03-26T08:37:37Z</time>
      </trkpt>
      <trkpt lat="49.04211" lon="6.88994">
        <ele>245.6</ele>
        <time>2014-03-26T08:37:42Z</time>
      </trkpt>
      <trkpt lat="49.04209" lon="6.88986">
        <ele>245.5</ele>
        <time>2014-03-26T08:37:47Z</time>
      </trkpt>
      <trkpt lat="49.04208" lon="6.88976">
        <ele>245.4</ele>
        <time>2014-03-26T08:37:52Z</time>
      </trkpt>
      <trkpt lat="49.04207" lon="6.88956">
        <ele>244.5</ele>
        <time>2014-03-26T08:38:02Z</time>
      </trkpt>
      <trkpt lat="49.04206" lon="6.88946">
        <ele>245.1</ele>
        <time>2014-03-26T08:38:07Z</time>
      </trkpt>
      <trkpt lat="49.04205" lon="6.88935">
        <ele>245.6</ele>
        <time>2014-03-26T08:38:12Z</time>
      </trkpt>
      <trkpt lat="49.04204" lon="6.88925">
        <ele>246.3</ele>
        <time>2014-03-26T08:38:17Z</time>
      </trkpt>
      <trkpt lat="49.04203" lon="6.88917">
        <ele>246.8</ele>
        <time>2014-03-26T08:38:22Z</time>
      </trkpt>
      <trkpt lat="49.04202" lon="6.88907">
        <ele>246.4</ele>
        <time>2014-03-26T08:38:27Z</time>
      </trkpt>
      <trkpt lat="49.04201" lon="6.88897">
        <ele>246.8</ele>
        <time>2014-03-26T08:38:32Z</time>
      </trkpt>
      <trkpt lat="49.042" lon="6.88887">
        <ele>246.1</ele>
        <time>2014-03-26T08:38:37Z</time>
      </trkpt>
      <trkpt lat="49.04199" lon="6.88878">
        <ele>245.6</ele>
        <time>2014-03-26T08:38:42Z</time>
      </trkpt>
      <trkpt lat="49.04198" lon="6.88868">
        <ele>245.1</ele>
        <time>2014-03-26T08:38:47Z</time>
      </trkpt>
      <trkpt lat="49.04197" lon="6.88857">
        <ele>244.7</ele>
        <time>2014-03-26T08:38:52Z</time>
      </trkpt>
      <trkpt lat="49.04197" lon="6.88847">
        <ele>244.7</ele>
        <time>2014-03-26T08:38:57Z</time>
      </trkpt>
      <trkpt lat="49.04194" lon="6.88825">
        <ele>243.4</ele>
        <time>2014-03-26T08:39:07Z</time>
      </trkpt>
      <trkpt lat="49.04192" lon="6.88814">
        <ele>242.4</ele>
        <time>2014-03-26T08:39:12Z</time>
      </trkpt>
      <trkpt lat="49.04192" lon="6.88804">
        <ele>241.5</ele>
        <time>2014-03-26T08:39:17Z</time>
      </trkpt>
      <trkpt lat="49.04191" lon="6.88794">
        <ele>240.8</ele>
        <time>2014-03-26T08:39:22Z</time>
      </trkpt>
      <trkpt lat="49.0419" lon="6.88786">
        <ele>240</ele>
        <time>2014-03-26T08:39:27Z</time>
      </trkpt>
      <trkpt lat="49.04188" lon="6.8878">
        <ele>239.6</ele>
        <time>2014-03-26T08:39:32Z</time>
      </trkpt>
      <trkpt lat="49.04186" lon="6.88776">
        <ele>240.2</ele>
        <time>2014-03-26T08:39:37Z</time>
      </trkpt>
      <trkpt lat="49.04182" lon="6.88771">
        <ele>239.8</ele>
        <time>2014-03-26T08:39:42Z</time>
      </trkpt>
      <trkpt lat="49.04179" lon="6.88767">
        <ele>240.6</ele>
        <time>2014-03-26T08:39:47Z</time>
      </trkpt>
      <trkpt lat="49.04175" lon="6.88762">
        <ele>240.6</ele>
        <time>2014-03-26T08:39:52Z</time>
      </trkpt>
      <trkpt lat="49.0417" lon="6.88756">
        <ele>240.9</ele>
        <time>2014-03-26T08:39:57Z</time>
      </trkpt>
      <trkpt lat="49.04165" lon="6.88752">
        <ele>240.8</ele>
        <time>2014-03-26T08:40:02Z</time>
      </trkpt>
      <trkpt lat="49.04153" lon="6.88738">
        <ele>241.6</ele>
        <time>2014-03-26T08:40:12Z</time>
      </trkpt>
      <trkpt lat="49.04148" lon="6.88731">
        <ele>242.2</ele>
        <time>2014-03-26T08:40:17Z</time>
      </trkpt>
      <trkpt lat="49.04142" lon="6.88724">
        <ele>241.6</ele>
        <time>2014-03-26T08:40:22Z</time>
      </trkpt>
      <trkpt lat="49.04137" lon="6.88715">
        <ele>242.2</ele>
        <time>2014-03-26T08:40:27Z</time>
      </trkpt>
      <trkpt lat="49.04132" lon="6.88706">
        <ele>242.4</ele>
        <time>2014-03-26T08:40:32Z</time>
      </trkpt>
      <trkpt lat="49.04128" lon="6.88697">
        <ele>241.7</ele>
        <time>2014-03-26T08:40:37Z</time>
      </trkpt>
      <trkpt lat="49.04124" lon="6.88688">
        <ele>241.8</ele>
        <time>2014-03-26T08:40:42Z</time>
      </trkpt>
      <trkpt lat="49.0412" lon="6.88679">
        <ele>241.6</ele>
        <time>2014-03-26T08:40:47Z</time>
      </trkpt>
      <trkpt lat="49.04115" lon="6.88673">
        <ele>242.3</ele>
        <time>2014-03-26T08:40:52Z</time>
      </trkpt>
      <trkpt lat="49.0411" lon="6.88666">
        <ele>242</ele>
        <time>2014-03-26T08:40:57Z</time>
      </trkpt>
      <trkpt lat="49.04106" lon="6.88659">
        <ele>242.7</ele>
        <time>2014-03-26T08:41:02Z</time>
      </trkpt>
      <trkpt lat="49.04102" lon="6.88652">
        <ele>243.9</ele>
        <time>2014-03-26T08:41:07Z</time>
      </trkpt>
      <trkpt lat="49.04093" lon="6.88639">
        <ele>242.6</ele>
        <time>2014-03-26T08:41:17Z</time>
      </trkpt>
      <trkpt lat="49.04088" lon="6.88632">
        <ele>242.6</ele>
        <time>2014-03-26T08:41:22Z</time>
      </trkpt>
      <trkpt lat="49.04084" lon="6.88625">
        <ele>243</ele>
        <time>2014-03-26T08:41:27Z</time>
      </trkpt>
      <trkpt lat="49.04081" lon="6.88616">
        <ele>243</ele>
        <time>2014-03-26T08:41:32Z</time>
      </trkpt>
      <trkpt lat="49.04078" lon="6.88608">
        <ele>242.8</ele>
        <time>2014-03-26T08:41:37Z</time>
      </trkpt>
      <trkpt lat="49.04074" lon="6.88601">
        <ele>242.7</ele>
        <time>2014-03-26T08:41:42Z</time>
      </trkpt>
      <trkpt lat="49.04071" lon="6.88594">
        <ele>242.9</ele>
        <time>2014-03-26T08:41:47Z</time>
      </trkpt>
      <trkpt lat="49.04066" lon="6.88587">
        <ele>242.7</ele>
        <time>2014-03-26T08:41:52Z</time>
      </trkpt>
      <trkpt lat="49.04062" lon="6.88579">
        <ele>242.4</ele>
        <time>2014-03-26T08:41:57Z</time>
      </trkpt>
      <trkpt lat="49.04058" lon="6.88571">
        <ele>242.7</ele>
        <time>2014-03-26T08:42:02Z</time>
      </trkpt>
      <trkpt lat="49.04054" lon="6.88563">
        <ele>242.9</ele>
        <time>2014-03-26T08:42:07Z</time>
      </trkpt>
      <trkpt lat="49.04049" lon="6.88553">
        <ele>242.7</ele>
        <time>2014-03-26T08:42:12Z</time>
      </trkpt>
      <trkpt lat="49.0404" lon="6.88535">
        <ele>242.8</ele>
        <time>2014-03-26T08:42:22Z</time>
      </trkpt>
      <trkpt lat="49.04035" lon="6.88526">
        <ele>242.8</ele>
        <time>2014-03-26T08:42:27Z</time>
      </trkpt>
      <trkpt lat="49.04031" lon="6.88519">
        <ele>243.1</ele>
        <time>2014-03-26T08:42:32Z</time>
      </trkpt>
      <trkpt lat="49.04028" lon="6.8851">
        <ele>243.7</ele>
        <time>2014-03-26T08:42:37Z</time>
      </trkpt>
      <trkpt lat="49.04024" lon="6.88501">
        <ele>243.2</ele>
        <time>2014-03-26T08:42:42Z</time>
      </trkpt>
      <trkpt lat="49.0402" lon="6.88491">
        <ele>243.1</ele>
        <time>2014-03-26T08:42:47Z</time>
      </trkpt>
      <trkpt lat="49.04017" lon="6.88483">
        <ele>243.9</ele>
        <time>2014-03-26T08:42:52Z</time>
      </trkpt>
      <trkpt lat="49.04014" lon="6.88476">
        <ele>244.1</ele>
        <time>2014-03-26T08:42:57Z</time>
      </trkpt>
      <trkpt lat="49.0401" lon="6.88469">
        <ele>243.8</ele>
        <time>2014-03-26T08:43:02Z</time>
      </trkpt>
      <trkpt lat="49.04007" lon="6.8846">
        <ele>244.2</ele>
        <time>2014-03-26T08:43:07Z</time>
      </trkpt>
      <trkpt lat="49.04004" lon="6.88452">
        <ele>244.5</ele>
        <time>2014-03-26T08:43:12Z</time>
      </trkpt>
      <trkpt lat="49.04" lon="6.88444">
        <ele>244.9</ele>
        <time>2014-03-26T08:43:17Z</time>
      </trkpt>
      <trkpt lat="49.03991" lon="6.88426">
        <ele>244.7</ele>
        <time>2014-03-26T08:43:27Z</time>
      </trkpt>
      <trkpt lat="49.03988" lon="6.88416">
        <ele>244.6</ele>
        <time>2014-03-26T08:43:32Z</time>
      </trkpt>
      <trkpt lat="49.03984" lon="6.88407">
        <ele>245.4</ele>
        <time>2014-03-26T08:43:37Z</time>
      </trkpt>
      <trkpt lat="49.03981" lon="6.88398">
        <ele>245</ele>
        <time>2014-03-26T08:43:42Z</time>
      </trkpt>
      <trkpt lat="49.03978" lon="6.88389">
        <ele>244.5</ele>
        <time>2014-03-26T08:43:47Z</time>
      </trkpt>
      <trkpt lat="49.03974" lon="6.8838">
        <ele>244.8</ele>
        <time>2014-03-26T08:43:52Z</time>
      </trkpt>
      <trkpt lat="49.03972" lon="6.88371">
        <ele>244.7</ele>
        <time>2014-03-26T08:43:57Z</time>
      </trkpt>
      <trkpt lat="49.03969" lon="6.88364">
        <ele>244.9</ele>
        <time>2014-03-26T08:44:02Z</time>
      </trkpt>
      <trkpt lat="49.03966" lon="6.88355">
        <ele>244.9</ele>
        <time>2014-03-26T08:44:07Z</time>
      </trkpt>
      <trkpt lat="49.03963" lon="6.88347">
        <ele>244.4</ele>
        <time>2014-03-26T08:44:12Z</time>
      </trkpt>
      <trkpt lat="49.0396" lon="6.88338">
        <ele>244.2</ele>
        <time>2014-03-26T08:44:17Z</time>
      </trkpt>
      <trkpt lat="49.03956" lon="6.8833">
        <ele>244.4</ele>
        <time>2014-03-26T08:44:22Z</time>
      </trkpt>
      <trkpt lat="49.03951" lon="6.88313">
        <ele>243</ele>
        <time>2014-03-26T08:44:32Z</time>
      </trkpt>
      <trkpt lat="49.03947" lon="6.88303">
        <ele>243.6</ele>
        <time>2014-03-26T08:44:37Z</time>
      </trkpt>
      <trkpt lat="49.03944" lon="6.88294">
        <ele>243.8</ele>
        <time>2014-03-26T08:44:42Z</time>
      </trkpt>
      <trkpt lat="49.03941" lon="6.88285">
        <ele>244</ele>
        <time>2014-03-26T08:44:47Z</time>
      </trkpt>
      <trkpt lat="49.03937" lon="6.88275">
        <ele>243.8</ele>
        <time>2014-03-26T08:44:52Z</time>
      </trkpt>
      <trkpt lat="49.03934" lon="6.88265">
        <ele>243.7</ele>
        <time>2014-03-26T08:44:57Z</time>
      </trkpt>
      <trkpt lat="49.03931" lon="6.88256">
        <ele>243.6</ele>
        <time>2014-03-26T08:45:02Z</time>
      </trkpt>
      <trkpt lat="49.03928" lon="6.88245">
        <ele>243.6</ele>
        <time>2014-03-26T08:45:07Z</time>
      </trkpt>
      <trkpt lat="49.03924" lon="6.88235">
        <ele>243.8</ele>
        <time>2014-03-26T08:45:12Z</time>
      </trkpt>
      <trkpt lat="49.03921" lon="6.88227">
        <ele>243.9</ele>
        <time>2014-03-26T08:45:17Z</time>
      </trkpt>
      <trkpt lat="49.03918" lon="6.88218">
        <ele>244</ele>
        <time>2014-03-26T08:45:22Z</time>
      </trkpt>
      <trkpt lat="49.03915" lon="6.88209">
        <ele>244.4</ele>
        <time>2014-03-26T08:45:27Z</time>
      </trkpt>
      <trkpt lat="49.03908" lon="6.88192">
        <ele>244.1</ele>
        <time>2014-03-26T08:45:37Z</time>
      </trkpt>
      <trkpt lat="49.03906" lon="6.88182">
        <ele>243.6</ele>
        <time>2014-03-26T08:45:42Z</time>
      </trkpt>
      <trkpt lat="49.03905" lon="6.88172">
        <ele>243.7</ele>
        <time>2014-03-26T08:45:47Z</time>
      </trkpt>
      <trkpt lat="49.03905" lon="6.88163">
        <ele>243.2</ele>
        <time>2014-03-26T08:45:52Z</time>
      </trkpt>
      <trkpt lat="49.03907" lon="6.88153">
        <ele>242.5</ele>
        <time>2014-03-26T08:45:57Z</time>
      </trkpt>
      <trkpt lat="49.03911" lon="6.88146">
        <ele>242.9</ele>
        <time>2014-03-26T08:46:02Z</time>
      </trkpt>
      <trkpt lat="49.03915" lon="6.8814">
        <ele>242</ele>
        <time>2014-03-26T08:46:07Z</time>
      </trkpt>
      <trkpt lat="49.0392" lon="6.88134">
        <ele>241.6</ele>
        <time>2014-03-26T08:46:12Z</time>
      </trkpt>
      <trkpt lat="49.03924" lon="6.88129">
        <ele>240.8</ele>
        <time>2014-03-26T08:46:17Z</time>
      </trkpt>
      <trkpt lat="49.03929" lon="6.88124">
        <ele>240</ele>
        <time>2014-03-26T08:46:22Z</time>
      </trkpt>
      <trkpt lat="49.03934" lon="6.88121">
        <ele>239.8</ele>
        <time>2014-03-26T08:46:27Z</time>
      </trkpt>
      <trkpt lat="49.0394" lon="6.88118">
        <ele>239.7</ele>
        <time>2014-03-26T08:46:32Z</time>
      </trkpt>
      <trkpt lat="49.0395" lon="6.88113">
        <ele>238.5</ele>
        <time>2014-03-26T08:46:42Z</time>
      </trkpt>
      <trkpt lat="49.03956" lon="6.88111">
        <ele>238.5</ele>
        <time>2014-03-26T08:46:47Z</time>
      </trkpt>
      <trkpt lat="49.03962" lon="6.88109">
        <ele>238.2</ele>
        <time>2014-03-26T08:46:52Z</time>
      </trkpt>
      <trkpt lat="49.03969" lon="6.88107">
        <ele>238.2</ele>
        <time>2014-03-26T08:46:57Z</time>
      </trkpt>
      <trkpt lat="49.03976" lon="6.88104">
        <ele>239</ele>
        <time>2014-03-26T08:47:02Z</time>
      </trkpt>
      <trkpt lat="49.03982" lon="6.88102">
        <ele>238.9</ele>
        <time>2014-03-26T08:47:07Z</time>
      </trkpt>
      <trkpt lat="49.03989" lon="6.88099">
        <ele>238.2</ele>
        <time>2014-03-26T08:47:12Z</time>
      </trkpt>
      <trkpt lat="49.03996" lon="6.88096">
        <ele>238.3</ele>
        <time>2014-03-26T08:47:17Z</time>
      </trkpt>
      <trkpt lat="49.04003" lon="6.88094">
        <ele>239.2</ele>
        <time>2014-03-26T08:47:22Z</time>
      </trkpt>
      <trkpt lat="49.04011" lon="6.88091">
        <ele>239</ele>
        <time>2014-03-26T08:47:27Z</time>
      </trkpt>
      <trkpt lat="49.04018" lon="6.88087">
        <ele>238.4</ele>
        <time>2014-03-26T08:47:32Z</time>
      </trkpt>
      <trkpt lat="49.04024" lon="6.88084">
        <ele>237.9</ele>
        <time>2014-03-26T08:47:37Z</time>
      </trkpt>
      <trkpt lat="49.04036" lon="6.88078">
        <ele>238.5</ele>
        <time>2014-03-26T08:47:47Z</time>
      </trkpt>
      <trkpt lat="49.04042" lon="6.88076">
        <ele>238.5</ele>
        <time>2014-03-26T08:47:52Z</time>
      </trkpt>
      <trkpt lat="49.04048" lon="6.88074">
        <ele>238.9</ele>
        <time>2014-03-26T08:47:57Z</time>
      </trkpt>
      <trkpt lat="49.04054" lon="6.88073">
        <ele>239.6</ele>
        <time>2014-03-26T08:48:02Z</time>
      </trkpt>
      <trkpt lat="49.04061" lon="6.88071">
        <ele>240</ele>
        <time>2014-03-26T08:48:07Z</time>
      </trkpt>
      <trkpt lat="49.04068" lon="6.88069">
        <ele>240.3</ele>
        <time>2014-03-26T08:48:12Z</time>
      </trkpt>
      <trkpt lat="49.04074" lon="6.88068">
        <ele>241.1</ele>
        <time>2014-03-26T08:48:17Z</time>
      </trkpt>
      <trkpt lat="49.0408" lon="6.88067">
        <ele>241</ele>
        <time>2014-03-26T08:48:22Z</time>
      </trkpt>
      <trkpt lat="49.04086" lon="6.88066">
        <ele>241.9</ele>
        <time>2014-03-26T08:48:27Z</time>
      </trkpt>
      <trkpt lat="49.04093" lon="6.88065">
        <ele>242.1</ele>
        <time>2014-03-26T08:48:32Z</time>
      </trkpt>
      <trkpt lat="49.04099" lon="6.88064">
        <ele>243.5</ele>
        <time>2014-03-26T08:48:37Z</time>
      </trkpt>
      <trkpt lat="49.04107" lon="6.88062">
        <ele>244</ele>
        <time>2014-03-26T08:48:42Z</time>
      </trkpt>
      <trkpt lat="49.0412" lon="6.88061">
        <ele>246.2</ele>
        <time>2014-03-26T08:48:52Z</time>
      </trkpt>
      <trkpt lat="49.04126" lon="6.88061">
        <ele>247.6</ele>
        <time>2014-03-26T08:48:57Z</time>
      </trkpt>
      <trkpt lat="49.04133" lon="6.88061">
        <ele>248.1</ele>
        <time>2014-03-26T08:49:02Z</time>
      </trkpt>
      <trkpt lat="49.0414" lon="6.8806">
        <ele>249.6</ele>
        <time>2014-03-26T08:49:07Z</time>
      </trkpt>
      <trkpt lat="49.04147" lon="6.88059">
        <ele>250</ele>
        <time>2014-03-26T08:49:12Z</time>
      </trkpt>
      <trkpt lat="49.04154" lon="6.88058">
        <ele>251.9</ele>
        <time>2014-03-26T08:49:17Z</time>
      </trkpt>
      <trkpt lat="49.04161" lon="6.88057">
        <ele>252.6</ele>
        <time>2014-03-26T08:49:22Z</time>
      </trkpt>
      <trkpt lat="49.04167" lon="6.88055">
        <ele>253</ele>
        <time>2014-03-26T08:49:27Z</time>
      </trkpt>
      <trkpt lat="49.04175" lon="6.88052">
        <ele>253.8</ele>
        <time>2014-03-26T08:49:32Z</time>
      </trkpt>
      <trkpt lat="49.0418" lon="6.88045">
        <ele>254.2</ele>
        <time>2014-03-26T08:49:37Z</time>
      </trkpt>
      <trkpt lat="49.04183" lon="6.88038">
        <ele>253.9</ele>
        <time>2014-03-26T08:49:42Z</time>
      </trkpt>
      <trkpt lat="49.04184" lon="6.88031">
        <ele>254.1</ele>
        <time>2014-03-26T08:49:47Z</time>
      </trkpt>
      <trkpt lat="49.04186" lon="6.88023">
        <ele>254.6</ele>
        <time>2014-03-26T08:49:57Z</time>
      </trkpt>
      <trkpt lat="49.0419" lon="6.88021">
        <ele>255</ele>
        <time>2014-03-26T08:50:02Z</time>
      </trkpt>
      <trkpt lat="49.04192" lon="6.8802">
        <ele>254.9</ele>
        <time>2014-03-26T08:50:07Z</time>
      </trkpt>
      <trkpt lat="49.04193" lon="6.88019">
        <ele>254.7</ele>
        <time>2014-03-26T08:50:12Z</time>
      </trkpt>
      <trkpt lat="49.04192" lon="6.8802">
        <ele>254.5</ele>
        <time>2014-03-26T08:50:17Z</time>
      </trkpt>
      <trkpt lat="49.04191" lon="6.8802">
        <ele>253.9</ele>
        <time>2014-03-26T08:50:22Z</time>
      </trkpt>
      <trkpt lat="49.04191" lon="6.8802">
        <ele>255.2</ele>
        <time>2014-03-26T08:50:27Z</time>
      </trkpt>
      <trkpt lat="49.0419" lon="6.88019">
        <ele>255</ele>
        <time>2014-03-26T08:50:32Z</time>
      </trkpt>
      <trkpt lat="49.0419" lon="6.88018">
        <ele>255</ele>
        <time>2014-03-26T08:50:37Z</time>
      </trkpt>
      <trkpt lat="49.04189" lon="6.88019">
        <ele>254.7</ele>
        <time>2014-03-26T08:50:42Z</time>
      </trkpt>
      <trkpt lat="49.04189" lon="6.88021">
        <ele>254.9</ele>
        <time>2014-03-26T08:50:47Z</time>
      </trkpt>
      <trkpt lat="49.04189" lon="6.88022">
        <ele>255</ele>
        <time>2014-03-26T08:50:52Z</time>
      </trkpt>
      <trkpt lat="49.04188" lon="6.88017">
        <ele>255</ele>
        <time>2014-03-26T08:51:02Z</time>
      </trkpt>
      <trkpt lat="49.04188" lon="6.88017">
        <ele>254.8</ele>
        <time>2014-03-26T08:51:07Z</time>
      </trkpt>
      <trkpt lat="49.04187" lon="6.88018">
        <ele>254.9</ele>
        <time>2014-03-26T08:51:12Z</time>
      </trkpt>
      <trkpt lat="49.04186" lon="6.8802">
        <ele>254.6</ele>
        <time>2014-03-26T08:51:17Z</time>
      </trkpt>
      <trkpt lat="49.04185" lon="6.88023">
        <ele>255.2</ele>
        <time>2014-03-26T08:51:22Z</time>
      </trkpt>
      <trkpt lat="49.04184" lon="6.88025">
        <ele>255.3</ele>
        <time>2014-03-26T08:51:27Z</time>
      </trkpt>
      <trkpt lat="49.04184" lon="6.88027">
        <ele>255.3</ele>
        <time>2014-03-26T08:51:32Z</time>
      </trkpt>
      <trkpt lat="49.04183" lon="6.88028">
        <ele>255.3</ele>
        <time>2014-03-26T08:51:37Z</time>
      </trkpt>
      <trkpt lat="49.04182" lon="6.88029">
        <ele>255.3</ele>
        <time>2014-03-26T08:51:42Z</time>
      </trkpt>
      <trkpt lat="49.0418" lon="6.8803">
        <ele>255.5</ele>
        <time>2014-03-26T08:51:47Z</time>
      </trkpt>
      <trkpt lat="49.04179" lon="6.88026">
        <ele>255.5</ele>
        <time>2014-03-26T08:51:52Z</time>
      </trkpt>
      <trkpt lat="49.04178" lon="6.8802">
        <ele>254.9</ele>
        <time>2014-03-26T08:51:57Z</time>
      </trkpt>
      <trkpt lat="49.04178" lon="6.88008">
        <ele>255.7</ele>
        <time>2014-03-26T08:52:07Z</time>
      </trkpt>
      <trkpt lat="49.04178" lon="6.88">
        <ele>256</ele>
        <time>2014-03-26T08:52:12Z</time>
      </trkpt>
      <trkpt lat="49.04178" lon="6.87993">
        <ele>255.6</ele>
        <time>2014-03-26T08:52:17Z</time>
      </trkpt>
      <trkpt lat="49.04179" lon="6.87986">
        <ele>255.2</ele>
        <time>2014-03-26T08:52:22Z</time>
      </trkpt>
      <trkpt lat="49.04178" lon="6.87977">
        <ele>255.7</ele>
        <time>2014-03-26T08:52:27Z</time>
      </trkpt>
      <trkpt lat="49.04178" lon="6.87969">
        <ele>255.7</ele>
        <time>2014-03-26T08:52:32Z</time>
      </trkpt>
      <trkpt lat="49.04177" lon="6.87959">
        <ele>255.5</ele>
        <time>2014-03-26T08:52:37Z</time>
      </trkpt>
      <trkpt lat="49.04176" lon="6.87949">
        <ele>255.8</ele>
        <time>2014-03-26T08:52:42Z</time>
      </trkpt>
      <trkpt lat="49.04175" lon="6.8794">
        <ele>255.3</ele>
        <time>2014-03-26T08:52:47Z</time>
      </trkpt>
      <trkpt lat="49.04174" lon="6.87931">
        <ele>255.2</ele>
        <time>2014-03-26T08:52:52Z</time>
      </trkpt>
      <trkpt lat="49.04174" lon="6.87922">
        <ele>255.9</ele>
        <time>2014-03-26T08:52:57Z</time>
      </trkpt>
      <trkpt lat="49.04173" lon="6.87913">
        <ele>255.9</ele>
        <time>2014-03-26T08:53:02Z</time>
      </trkpt>
      <trkpt lat="49.04171" lon="6.87894">
        <ele>255</ele>
        <time>2014-03-26T08:53:12Z</time>
      </trkpt>
      <trkpt lat="49.0417" lon="6.87884">
        <ele>255.1</ele>
        <time>2014-03-26T08:53:17Z</time>
      </trkpt>
      <trkpt lat="49.04169" lon="6.87874">
        <ele>254.6</ele>
        <time>2014-03-26T08:53:22Z</time>
      </trkpt>
      <trkpt lat="49.04168" lon="6.87865">
        <ele>254.8</ele>
        <time>2014-03-26T08:53:27Z</time>
      </trkpt>
      <trkpt lat="49.04169" lon="6.87859">
        <ele>254.3</ele>
        <time>2014-03-26T08:53:32Z</time>
      </trkpt>
      <trkpt lat="49.04169" lon="6.87851">
        <ele>253.5</ele>
        <time>2014-03-26T08:53:37Z</time>
      </trkpt>
      <trkpt lat="49.04169" lon="6.87844">
        <ele>254</ele>
        <time>2014-03-26T08:53:42Z</time>
      </trkpt>
      <trkpt lat="49.04169" lon="6.87835">
        <ele>254.2</ele>
        <time>2014-03-26T08:53:47Z</time>
      </trkpt>
      <trkpt lat="49.04169" lon="6.87826">
        <ele>253.2</ele>
        <time>2014-03-26T08:53:52Z</time>
      </trkpt>
      <trkpt lat="49.0417" lon="6.87816">
        <ele>253.1</ele>
        <time>2014-03-26T08:53:57Z</time>
      </trkpt>
      <trkpt lat="49.04168" lon="6.87804">
        <ele>252.6</ele>
        <time>2014-03-26T08:54:02Z</time>
      </trkpt>
      <trkpt lat="49.04167" lon="6.87794">
        <ele>252.9</ele>
        <time>2014-03-26T08:54:07Z</time>
      </trkpt>
      <trkpt lat="49.04164" lon="6.87771">
        <ele>252.7</ele>
        <time>2014-03-26T08:54:17Z</time>
      </trkpt>
      <trkpt lat="49.04163" lon="6.87761">
        <ele>252.1</ele>
        <time>2014-03-26T08:54:22Z</time>
      </trkpt>
      <trkpt lat="49.04162" lon="6.87751">
        <ele>252.2</ele>
        <time>2014-03-26T08:54:27Z</time>
      </trkpt>
      <trkpt lat="49.04162" lon="6.87742">
        <ele>253</ele>
        <time>2014-03-26T08:54:32Z</time>
      </trkpt>
      <trkpt lat="49.04163" lon="6.87736">
        <ele>252.5</ele>
        <time>2014-03-26T08:54:37Z</time>
      </trkpt>
      <trkpt lat="49.04164" lon="6.87727">
        <ele>252.7</ele>
        <time>2014-03-26T08:54:42Z</time>
      </trkpt>
      <trkpt lat="49.04165" lon="6.87718">
        <ele>253.4</ele>
        <time>2014-03-26T08:54:47Z</time>
      </trkpt>
      <trkpt lat="49.04166" lon="6.8771">
        <ele>253.7</ele>
        <time>2014-03-26T08:54:52Z</time>
      </trkpt>
      <trkpt lat="49.04167" lon="6.87701">
        <ele>253.3</ele>
        <time>2014-03-26T08:54:57Z</time>
      </trkpt>
      <trkpt lat="49.04166" lon="6.87689">
        <ele>253.3</ele>
        <time>2014-03-26T08:55:02Z</time>
      </trkpt>
      <trkpt lat="49.04163" lon="6.87677">
        <ele>253.1</ele>
        <time>2014-03-26T08:55:07Z</time>
      </trkpt>
      <trkpt lat="49.04161" lon="6.87665">
        <ele>253.3</ele>
        <time>2014-03-26T08:55:12Z</time>
      </trkpt>
      <trkpt lat="49.0416" lon="6.87644">
        <ele>252.7</ele>
        <time>2014-03-26T08:55:22Z</time>
      </trkpt>
      <trkpt lat="49.04159" lon="6.87635">
        <ele>253</ele>
        <time>2014-03-26T08:55:27Z</time>
      </trkpt>
      <trkpt lat="49.04158" lon="6.87626">
        <ele>253.3</ele>
        <time>2014-03-26T08:55:32Z</time>
      </trkpt>
      <trkpt lat="49.04156" lon="6.87616">
        <ele>252.9</ele>
        <time>2014-03-26T08:55:37Z</time>
      </trkpt>
      <trkpt lat="49.04153" lon="6.87605">
        <ele>252.7</ele>
        <time>2014-03-26T08:55:42Z</time>
      </trkpt>
      <trkpt lat="49.04151" lon="6.87594">
        <ele>252.8</ele>
        <time>2014-03-26T08:55:47Z</time>
      </trkpt>
      <trkpt lat="49.04148" lon="6.87584">
        <ele>252.3</ele>
        <time>2014-03-26T08:55:52Z</time>
      </trkpt>
      <trkpt lat="49.04145" lon="6.87574">
        <ele>252.8</ele>
        <time>2014-03-26T08:55:57Z</time>
      </trkpt>
      <trkpt lat="49.04143" lon="6.87566">
        <ele>253.1</ele>
        <time>2014-03-26T08:56:02Z</time>
      </trkpt>
      <trkpt lat="49.0414" lon="6.87556">
        <ele>252.3</ele>
        <time>2014-03-26T08:56:07Z</time>
      </trkpt>
      <trkpt lat="49.04137" lon="6.87548">
        <ele>252.1</ele>
        <time>2014-03-26T08:56:12Z</time>
      </trkpt>
      <trkpt lat="49.04134" lon="6.8754">
        <ele>252.8</ele>
        <time>2014-03-26T08:56:17Z</time>
      </trkpt>
      <trkpt lat="49.04128" lon="6.87524">
        <ele>252.2</ele>
        <time>2014-03-26T08:56:27Z</time>
      </trkpt>
      <trkpt lat="49.04124" lon="6.87516">
        <ele>251.9</ele>
        <time>2014-03-26T08:56:32Z</time>
      </trkpt>
      <trkpt lat="49.04122" lon="6.87508">
        <ele>251.8</ele>
        <time>2014-03-26T08:56:37Z</time>
      </trkpt>
      <trkpt lat="49.04119" lon="6.87501">
        <ele>251.1</ele>
        <time>2014-03-26T08:56:42Z</time>
      </trkpt>
      <trkpt lat="49.04116" lon="6.87492">
        <ele>251.5</ele>
        <time>2014-03-26T08:56:47Z</time>
      </trkpt>
      <trkpt lat="49.04113" lon="6.87483">
        <ele>251.7</ele>
        <time>2014-03-26T08:56:52Z</time>
      </trkpt>
      <trkpt lat="49.0411" lon="6.87472">
        <ele>250.9</ele>
        <time>2014-03-26T08:56:57Z</time>
      </trkpt>
      <trkpt lat="49.04105" lon="6.87463">
        <ele>250.3</ele>
        <time>2014-03-26T08:57:02Z</time>
      </trkpt>
      <trkpt lat="49.04098" lon="6.8746">
        <ele>249.3</ele>
        <time>2014-03-26T08:57:07Z</time>
      </trkpt>
      <trkpt lat="49.04092" lon="6.8746">
        <ele>248.5</ele>
        <time>2014-03-26T08:57:12Z</time>
      </trkpt>
      <trkpt lat="49.04087" lon="6.87461">
        <ele>248.3</ele>
        <time>2014-03-26T08:57:17Z</time>
      </trkpt>
      <trkpt lat="49.04082" lon="6.87463">
        <ele>247.7</ele>
        <time>2014-03-26T08:57:22Z</time>
      </trkpt>
      <trkpt lat="49.04072" lon="6.87467">
        <ele>246.9</ele>
        <time>2014-03-26T08:57:32Z</time>
      </trkpt>
      <trkpt lat="49.04067" lon="6.8747">
        <ele>246.3</ele>
        <time>2014-03-26T08:57:37Z</time>
      </trkpt>
      <trkpt lat="49.04062" lon="6.87474">
        <ele>246</ele>
        <time>2014-03-26T08:57:42Z</time>
      </trkpt>
      <trkpt lat="49.04057" lon="6.87478">
        <ele>245.4</ele>
        <time>2014-03-26T08:57:47Z</time>
      </trkpt>
      <trkpt lat="49.04051" lon="6.87482">
        <ele>245.3</ele>
        <time>2014-03-26T08:57:52Z</time>
      </trkpt>
      <trkpt lat="49.04045" lon="6.87485">
        <ele>245.2</ele>
        <time>2014-03-26T08:57:57Z</time>
      </trkpt>
      <trkpt lat="49.04039" lon="6.87488">
        <ele>244.9</ele>
        <time>2014-03-26T08:58:02Z</time>
      </trkpt>
      <trkpt lat="49.04032" lon="6.87491">
        <ele>245</ele>
        <time>2014-03-26T08:58:07Z</time>
      </trkpt>
      <trkpt lat="49.04025" lon="6.87493">
        <ele>244.9</ele>
        <time>2014-03-26T08:58:12Z</time>
      </trkpt>
      <trkpt lat="49.04019" lon="6.87494">
        <ele>244.9</ele>
        <time>2014-03-26T08:58:17Z</time>
      </trkpt>
      <trkpt lat="49.04012" lon="6.87491">
        <ele>245.2</ele>
        <time>2014-03-26T08:58:22Z</time>
      </trkpt>
      <trkpt lat="49.04005" lon="6.87488">
        <ele>245.3</ele>
        <time>2014-03-26T08:58:27Z</time>
      </trkpt>
      <trkpt lat="49.03993" lon="6.8748">
        <ele>244.5</ele>
        <time>2014-03-26T08:58:37Z</time>
      </trkpt>
      <trkpt lat="49.03988" lon="6.87477">
        <ele>245.5</ele>
        <time>2014-03-26T08:58:42Z</time>
      </trkpt>
      <trkpt lat="49.03983" lon="6.87472">
        <ele>245.7</ele>
        <time>2014-03-26T08:58:47Z</time>
      </trkpt>
      <trkpt lat="49.03978" lon="6.87466">
        <ele>246.2</ele>
        <time>2014-03-26T08:58:52Z</time>
      </trkpt>
      <trkpt lat="49.03973" lon="6.8746">
        <ele>246.6</ele>
        <time>2014-03-26T08:58:57Z</time>
      </trkpt>
      <trkpt lat="49.03969" lon="6.87454">
        <ele>246.4</ele>
        <time>2014-03-26T08:59:02Z</time>
      </trkpt>
      <trkpt lat="49.03964" lon="6.87447">
        <ele>246.7</ele>
        <time>2014-03-26T08:59:07Z</time>
      </trkpt>
      <trkpt lat="49.03959" lon="6.87442">
        <ele>247.1</ele>
        <time>2014-03-26T08:59:12Z</time>
      </trkpt>
      <trkpt lat="49.03954" lon="6.87437">
        <ele>247.7</ele>
        <time>2014-03-26T08:59:17Z</time>
      </trkpt>
      <trkpt lat="49.03947" lon="6.87431">
        <ele>247.8</ele>
        <time>2014-03-26T08:59:22Z</time>
      </trkpt>
      <trkpt lat="49.0394" lon="6.87425">
        <ele>248.3</ele>
        <time>2014-03-26T08:59:27Z</time>
      </trkpt>
      <trkpt lat="49.03932" lon="6.87421">
        <ele>249.2</ele>
        <time>2014-03-26T08:59:32Z</time>
      </trkpt>
      <trkpt lat="49.03917" lon="6.87419">
        <ele>250.4</ele>
        <time>2014-03-26T08:59:42Z</time>
      </trkpt>
      <trkpt lat="49.03909" lon="6.87419">
        <ele>250.3</ele>
        <time>2014-03-26T08:59:47Z</time>
      </trkpt>
      <trkpt lat="49.03902" lon="6.87421">
        <ele>250.6</ele>
        <time>2014-03-26T08:59:52Z</time>
      </trkpt>
      <trkpt lat="49.03895" lon="6.87424">
        <ele>251.9</ele>
        <time>2014-03-26T08:59:57Z</time>
      </trkpt>
      <trkpt lat="49.03888" lon="6.87427">
        <ele>251.8</ele>
        <time>2014-03-26T09:00:02Z</time>
      </trkpt>
      <trkpt lat="49.03881" lon="6.8743">
        <ele>251.9</ele>
        <time>2014-03-26T09:00:07Z</time>
      </trkpt>
      <trkpt lat="49.03875" lon="6.87434">
        <ele>252</ele>
        <time>2014-03-26T09:00:12Z</time>
      </trkpt>
      <trkpt lat="49.03868" lon="6.87438">
        <ele>253.7</ele>
        <time>2014-03-26T09:00:17Z</time>
      </trkpt>
      <trkpt lat="49.03862" lon="6.87443">
        <ele>253.8</ele>
        <time>2014-03-26T09:00:22Z</time>
      </trkpt>
      <trkpt lat="49.03855" lon="6.87447">
        <ele>254.2</ele>
        <time>2014-03-26T09:00:27Z</time>
      </trkpt>
      <trkpt lat="49.03849" lon="6.87452">
        <ele>254.6</ele>
        <time>2014-03-26T09:00:32Z</time>
      </trkpt>
      <trkpt lat="49.03843" lon="6.87456">
        <ele>254.8</ele>
        <time>2014-03-26T09:00:37Z</time>
      </trkpt>
      <trkpt lat="49.03829" lon="6.87468">
        <ele>256.5</ele>
        <time>2014-03-26T09:00:47Z</time>
      </trkpt>
      <trkpt lat="49.03823" lon="6.87473">
        <ele>257</ele>
        <time>2014-03-26T09:00:52Z</time>
      </trkpt>
      <trkpt lat="49.03818" lon="6.87478">
        <ele>257.3</ele>
        <time>2014-03-26T09:00:57Z</time>
      </trkpt>
      <trkpt lat="49.03813" lon="6.87481">
        <ele>258.2</ele>
        <time>2014-03-26T09:01:02Z</time>
      </trkpt>
      <trkpt lat="49.03807" lon="6.87485">
        <ele>258.8</ele>
        <time>2014-03-26T09:01:07Z</time>
      </trkpt>
      <trkpt lat="49.03802" lon="6.8749">
        <ele>259.1</ele>
        <time>2014-03-26T09:01:12Z</time>
      </trkpt>
      <trkpt lat="49.03796" lon="6.87495">
        <ele>259.5</ele>
        <time>2014-03-26T09:01:17Z</time>
      </trkpt>
      <trkpt lat="49.03789" lon="6.87502">
        <ele>259.6</ele>
        <time>2014-03-26T09:01:22Z</time>
      </trkpt>
      <trkpt lat="49.03782" lon="6.87508">
        <ele>260.3</ele>
        <time>2014-03-26T09:01:27Z</time>
      </trkpt>
      <trkpt lat="49.03776" lon="6.87513">
        <ele>260.6</ele>
        <time>2014-03-26T09:01:32Z</time>
      </trkpt>
      <trkpt lat="49.03769" lon="6.87518">
        <ele>261.1</ele>
        <time>2014-03-26T09:01:37Z</time>
      </trkpt>
      <trkpt lat="49.03763" lon="6.87524">
        <ele>261.5</ele>
        <time>2014-03-26T09:01:42Z</time>
      </trkpt>
      <trkpt lat="49.0375" lon="6.87535">
        <ele>262.1</ele>
        <time>2014-03-26T09:01:52Z</time>
      </trkpt>
      <trkpt lat="49.03743" lon="6.87541">
        <ele>262</ele>
        <time>2014-03-26T09:01:57Z</time>
      </trkpt>
      <trkpt lat="49.03736" lon="6.87547">
        <ele>261.9</ele>
        <time>2014-03-26T09:02:02Z</time>
      </trkpt>
      <trkpt lat="49.03729" lon="6.87552">
        <ele>262.4</ele>
        <time>2014-03-26T09:02:07Z</time>
      </trkpt>
      <trkpt lat="49.03722" lon="6.87557">
        <ele>262.8</ele>
        <time>2014-03-26T09:02:12Z</time>
      </trkpt>
      <trkpt lat="49.03715" lon="6.87562">
        <ele>261.9</ele>
        <time>2014-03-26T09:02:17Z</time>
      </trkpt>
      <trkpt lat="49.03709" lon="6.87567">
        <ele>261.4</ele>
        <time>2014-03-26T09:02:22Z</time>
      </trkpt>
      <trkpt lat="49.03703" lon="6.87571">
        <ele>261.9</ele>
        <time>2014-03-26T09:02:27Z</time>
      </trkpt>
      <trkpt lat="49.03697" lon="6.87575">
        <ele>261.6</ele>
        <time>2014-03-26T09:02:32Z</time>
      </trkpt>
      <trkpt lat="49.0369" lon="6.8758">
        <ele>260.1</ele>
        <time>2014-03-26T09:02:37Z</time>
      </trkpt>
      <trkpt lat="49.03683" lon="6.87584">
        <ele>259.6</ele>
        <time>2014-03-26T09:02:42Z</time>
      </trkpt>
      <trkpt lat="49.03677" lon="6.87589">
        <ele>259.8</ele>
        <time>2014-03-26T09:02:47Z</time>
      </trkpt>
      <trkpt lat="49.03665" lon="6.87595">
        <ele>259.4</ele>
        <time>2014-03-26T09:02:57Z</time>
      </trkpt>
      <trkpt lat="49.03658" lon="6.87598">
        <ele>259</ele>
        <time>2014-03-26T09:03:02Z</time>
      </trkpt>
      <trkpt lat="49.03652" lon="6.87602">
        <ele>258.6</ele>
        <time>2014-03-26T09:03:07Z</time>
      </trkpt>
      <trkpt lat="49.03645" lon="6.87605">
        <ele>258.5</ele>
        <time>2014-03-26T09:03:12Z</time>
      </trkpt>
      <trkpt lat="49.03638" lon="6.87608">
        <ele>257.6</ele>
        <time>2014-03-26T09:03:17Z</time>
      </trkpt>
      <trkpt lat="49.03631" lon="6.87611">
        <ele>257.2</ele>
        <time>2014-03-26T09:03:22Z</time>
      </trkpt>
      <trkpt lat="49.03625" lon="6.87612">
        <ele>257.2</ele>
        <time>2014-03-26T09:03:27Z</time>
      </trkpt>
      <trkpt lat="49.0362" lon="6.87613">
        <ele>256.2</ele>
        <time>2014-03-26T09:03:32Z</time>
      </trkpt>
      <trkpt lat="49.03613" lon="6.87614">
        <ele>256.5</ele>
        <time>2014-03-26T09:03:37Z</time>
      </trkpt>
      <trkpt lat="49.03607" lon="6.87616">
        <ele>255.7</ele>
        <time>2014-03-26T09:03:42Z</time>
      </trkpt>
      <trkpt lat="49.03601" lon="6.87619">
        <ele>255.8</ele>
        <time>2014-03-26T09:03:47Z</time>
      </trkpt>
      <trkpt lat="49.03594" lon="6.87621">
        <ele>255</ele>
        <time>2014-03-26T09:03:52Z</time>
      </trkpt>
      <trkpt lat="49.0358" lon="6.87624">
        <ele>255</ele>
        <time>2014-03-26T09:04:02Z</time>
      </trkpt>
      <trkpt lat="49.03573" lon="6.87626">
        <ele>255.2</ele>
        <time>2014-03-26T09:04:07Z</time>
      </trkpt>
      <trkpt lat="49.03566" lon="6.87627">
        <ele>255.4</ele>
        <time>2014-03-26T09:04:12Z</time>
      </trkpt>
      <trkpt lat="49.03561" lon="6.87628">
        <ele>255.4</ele>
        <time>2014-03-26T09:04:17Z</time>
      </trkpt>
      <trkpt lat="49.03555" lon="6.8763">
        <ele>255.3</ele>
        <time>2014-03-26T09:04:22Z</time>
      </trkpt>
      <trkpt lat="49.03548" lon="6.8763">
        <ele>255.8</ele>
        <time>2014-03-26T09:04:27Z</time>
      </trkpt>
      <trkpt lat="49.03542" lon="6.8763">
        <ele>255.4</ele>
        <time>2014-03-26T09:04:32Z</time>
      </trkpt>
      <trkpt lat="49.03535" lon="6.87631">
        <ele>255</ele>
        <time>2014-03-26T09:04:37Z</time>
      </trkpt>
      <trkpt lat="49.03528" lon="6.8763">
        <ele>255.2</ele>
        <time>2014-03-26T09:04:42Z</time>
      </trkpt>
      <trkpt lat="49.03522" lon="6.8763">
        <ele>255.7</ele>
        <time>2014-03-26T09:04:47Z</time>
      </trkpt>
      <trkpt lat="49.03515" lon="6.87628">
        <ele>254.7</ele>
        <time>2014-03-26T09:04:52Z</time>
      </trkpt>
      <trkpt lat="49.03508" lon="6.87626">
        <ele>254.8</ele>
        <time>2014-03-26T09:04:57Z</time>
      </trkpt>
      <trkpt lat="49.03493" lon="6.87624">
        <ele>255.9</ele>
        <time>2014-03-26T09:05:07Z</time>
      </trkpt>
      <trkpt lat="49.03485" lon="6.87623">
        <ele>255.4</ele>
        <time>2014-03-26T09:05:12Z</time>
      </trkpt>
      <trkpt lat="49.03478" lon="6.87623">
        <ele>255.6</ele>
        <time>2014-03-26T09:05:17Z</time>
      </trkpt>
      <trkpt lat="49.03471" lon="6.87624">
        <ele>256</ele>
        <time>2014-03-26T09:05:22Z</time>
      </trkpt>
      <trkpt lat="49.03464" lon="6.87625">
        <ele>256.6</ele>
        <time>2014-03-26T09:05:27Z</time>
      </trkpt>
      <trkpt lat="49.03457" lon="6.87629">
        <ele>256.8</ele>
        <time>2014-03-26T09:05:32Z</time>
      </trkpt>
      <trkpt lat="49.03451" lon="6.87633">
        <ele>257.2</ele>
        <time>2014-03-26T09:05:37Z</time>
      </trkpt>
      <trkpt lat="49.03444" lon="6.87639">
        <ele>257.5</ele>
        <time>2014-03-26T09:05:42Z</time>
      </trkpt>
      <trkpt lat="49.03439" lon="6.87646">
        <ele>257.4</ele>
        <time>2014-03-26T09:05:47Z</time>
      </trkpt>
      <trkpt lat="49.03434" lon="6.87654">
        <ele>257.4</ele>
        <time>2014-03-26T09:05:52Z</time>
      </trkpt>
      <trkpt lat="49.03429" lon="6.87663">
        <ele>257.6</ele>
        <time>2014-03-26T09:05:57Z</time>
      </trkpt>
      <trkpt lat="49.03424" lon="6.87672">
        <ele>258.1</ele>
        <time>2014-03-26T09:06:02Z</time>
      </trkpt>
      <trkpt lat="49.03416" lon="6.8769">
        <ele>257.9</ele>
        <time>2014-03-26T09:06:12Z</time>
      </trkpt>
      <trkpt lat="49.03411" lon="6.87699">
        <ele>258.3</ele>
        <time>2014-03-26T09:06:17Z</time>
      </trkpt>
      <trkpt lat="49.03408" lon="6.87709">
        <ele>259.3</ele>
        <time>2014-03-26T09:06:22Z</time>
      </trkpt>
      <trkpt lat="49.03404" lon="6.87718">
        <ele>258.9</ele>
        <time>2014-03-26T09:06:27Z</time>
      </trkpt>
      <trkpt lat="49.03401" lon="6.87728">
        <ele>259.7</ele>
        <time>2014-03-26T09:06:32Z</time>
      </trkpt>
      <trkpt lat="49.03398" lon="6.87737">
        <ele>260.2</ele>
        <time>2014-03-26T09:06:37Z</time>
      </trkpt>
      <trkpt lat="49.03396" lon="6.87747">
        <ele>259.7</ele>
        <time>2014-03-26T09:06:42Z</time>
      </trkpt>
      <trkpt lat="49.03394" lon="6.87757">
        <ele>259.6</ele>
        <time>2014-03-26T09:06:47Z</time>
      </trkpt>
      <trkpt lat="49.03391" lon="6.87766">
        <ele>259.7</ele>
        <time>2014-03-26T09:06:52Z</time>
      </trkpt>
      <trkpt lat="49.03389" lon="6.87776">
        <ele>259.7</ele>
        <time>2014-03-26T09:06:57Z</time>
      </trkpt>
      <trkpt lat="49.03387" lon="6.87785">
        <ele>259.9</ele>
        <time>2014-03-26T09:07:02Z</time>
      </trkpt>
      <trkpt lat="49.03384" lon="6.87795">
        <ele>260.1</ele>
        <time>2014-03-26T09:07:07Z</time>
      </trkpt>
      <trkpt lat="49.03379" lon="6.87814">
        <ele>259.8</ele>
        <time>2014-03-26T09:07:17Z</time>
      </trkpt>
      <trkpt lat="49.03376" lon="6.87824">
        <ele>259.8</ele>
        <time>2014-03-26T09:07:22Z</time>
      </trkpt>
      <trkpt lat="49.03374" lon="6.87833">
        <ele>259.5</ele>
        <time>2014-03-26T09:07:27Z</time>
      </trkpt>
      <trkpt lat="49.03371" lon="6.87843">
        <ele>259.9</ele>
        <time>2014-03-26T09:07:32Z</time>
      </trkpt>
      <trkpt lat="49.03369" lon="6.87853">
        <ele>259.9</ele>
        <time>2014-03-26T09:07:37Z</time>
      </trkpt>
      <trkpt lat="49.03366" lon="6.87863">
        <ele>259.4</ele>
        <time>2014-03-26T09:07:42Z</time>
      </trkpt>
      <trkpt lat="49.03363" lon="6.87873">
        <ele>260.1</ele>
        <time>2014-03-26T09:07:47Z</time>
      </trkpt>
      <trkpt lat="49.03361" lon="6.87882">
        <ele>259.6</ele>
        <time>2014-03-26T09:07:52Z</time>
      </trkpt>
      <trkpt lat="49.03358" lon="6.87892">
        <ele>259.6</ele>
        <time>2014-03-26T09:07:57Z</time>
      </trkpt>
      <trkpt lat="49.03355" lon="6.87902">
        <ele>259.4</ele>
        <time>2014-03-26T09:08:02Z</time>
      </trkpt>
      <trkpt lat="49.03352" lon="6.87913">
        <ele>259.6</ele>
        <time>2014-03-26T09:08:07Z</time>
      </trkpt>
      <trkpt lat="49.03349" lon="6.87922">
        <ele>259.7</ele>
        <time>2014-03-26T09:08:12Z</time>
      </trkpt>
      <trkpt lat="49.03342" lon="6.87942">
        <ele>260.2</ele>
        <time>2014-03-26T09:08:22Z</time>
      </trkpt>
      <trkpt lat="49.03339" lon="6.87952">
        <ele>260.5</ele>
        <time>2014-03-26T09:08:27Z</time>
      </trkpt>
      <trkpt lat="49.03334" lon="6.87961">
        <ele>260.4</ele>
        <time>2014-03-26T09:08:32Z</time>
      </trkpt>
      <trkpt lat="49.0333" lon="6.87969">
        <ele>260.8</ele>
        <time>2014-03-26T09:08:37Z</time>
      </trkpt>
      <trkpt lat="49.03325" lon="6.87977">
        <ele>260.9</ele>
        <time>2014-03-26T09:08:42Z</time>
      </trkpt>
      <trkpt lat="49.03319" lon="6.87984">
        <ele>260.2</ele>
        <time>2014-03-26T09:08:47Z</time>
      </trkpt>
      <trkpt lat="49.03313" lon="6.87992">
        <ele>260.2</ele>
        <time>2014-03-26T09:08:52Z</time>
      </trkpt>
      <trkpt lat="49.03307" lon="6.87998">
        <ele>260.7</ele>
        <time>2014-03-26T09:08:57Z</time>
      </trkpt>
      <trkpt lat="49.03302" lon="6.88004">
        <ele>260.7</ele>
        <time>2014-03-26T09:09:02Z</time>
      </trkpt>
      <trkpt lat="49.03296" lon="6.8801">
        <ele>260.2</ele>
        <time>2014-03-26T09:09:07Z</time>
      </trkpt>
      <trkpt lat="49.03289" lon="6.88017">
        <ele>259.6</ele>
        <time>2014-03-26T09:09:12Z</time>
      </trkpt>
      <trkpt lat="49.03283" lon="6.88023">
        <ele>259.4</ele>
        <time>2014-03-26T09:09:17Z</time>
      </trkpt>
      <trkpt lat="49.03271" lon="6.88034">
        <ele>259.6</ele>
        <time>2014-03-26T09:09:27Z</time>
      </trkpt>
      <trkpt lat="49.03265" lon="6.88039">
        <ele>258.9</ele>
        <time>2014-03-26T09:09:32Z</time>
      </trkpt>
      <trkpt lat="49.03259" lon="6.88045">
        <ele>258.9</ele>
        <time>2014-03-26T09:09:37Z</time>
      </trkpt>
      <trkpt lat="49.03253" lon="6.8805">
        <ele>258.8</ele>
        <time>2014-03-26T09:09:42Z</time>
      </trkpt>
      <trkpt lat="49.03247" lon="6.88055">
        <ele>259.3</ele>
        <time>2014-03-26T09:09:47Z</time>
      </trkpt>
      <trkpt lat="49.03241" lon="6.88059">
        <ele>259.1</ele>
        <time>2014-03-26T09:09:52Z</time>
      </trkpt>
      <trkpt lat="49.03236" lon="6.88064">
        <ele>258.8</ele>
        <time>2014-03-26T09:09:57Z</time>
      </trkpt>
      <trkpt lat="49.0323" lon="6.88068">
        <ele>259.5</ele>
        <time>2014-03-26T09:10:02Z</time>
      </trkpt>
      <trkpt lat="49.03225" lon="6.88072">
        <ele>258.8</ele>
        <time>2014-03-26T09:10:07Z</time>
      </trkpt>
      <trkpt lat="49.03219" lon="6.88076">
        <ele>259.3</ele>
        <time>2014-03-26T09:10:12Z</time>
      </trkpt>
      <trkpt lat="49.03214" lon="6.88079">
        <ele>259.6</ele>
        <time>2014-03-26T09:10:17Z</time>
      </trkpt>
      <trkpt lat="49.03208" lon="6.88083">
        <ele>259.5</ele>
        <time>2014-03-26T09:10:22Z</time>
      </trkpt>
      <trkpt lat="49.03198" lon="6.88092">
        <ele>258.7</ele>
        <time>2014-03-26T09:10:32Z</time>
      </trkpt>
      <trkpt lat="49.03192" lon="6.88096">
        <ele>257.8</ele>
        <time>2014-03-26T09:10:37Z</time>
      </trkpt>
      <trkpt lat="49.03186" lon="6.88102">
        <ele>257.2</ele>
        <time>2014-03-26T09:10:42Z</time>
      </trkpt>
      <trkpt lat="49.0318" lon="6.88108">
        <ele>256.7</ele>
        <time>2014-03-26T09:10:47Z</time>
      </trkpt>
      <trkpt lat="49.03174" lon="6.88114">
        <ele>256.3</ele>
        <time>2014-03-26T09:10:52Z</time>
      </trkpt>
      <trkpt lat="49.03168" lon="6.88119">
        <ele>255.8</ele>
        <time>2014-03-26T09:10:57Z</time>
      </trkpt>
      <trkpt lat="49.03162" lon="6.88125">
        <ele>254.9</ele>
        <time>2014-03-26T09:11:02Z</time>
      </trkpt>
      <trkpt lat="49.03156" lon="6.8813">
        <ele>255.5</ele>
        <time>2014-03-26T09:11:07Z</time>
      </trkpt>
      <trkpt lat="49.0315" lon="6.88136">
        <ele>254.9</ele>
        <time>2014-03-26T09:11:12Z</time>
      </trkpt>
      <trkpt lat="49.03143" lon="6.88142">
        <ele>253.5</ele>
        <time>2014-03-26T09:11:17Z</time>
      </trkpt>
      <trkpt lat="49.03137" lon="6.88147">
        <ele>252.4</ele>
        <time>2014-03-26T09:11:22Z</time>
      </trkpt>
      <trkpt lat="49.03131" lon="6.88153">
        <ele>251.5</ele>
        <time>2014-03-26T09:11:27Z</time>
      </trkpt>
      <trkpt lat="49.0312" lon="6.88163">
        <ele>250.6</ele>
        <time>2014-03-26T09:11:37Z</time>
      </trkpt>
      <trkpt lat="49.03115" lon="6.88168">
        <ele>250.2</ele>
        <time>2014-03-26T09:11:42Z</time>
      </trkpt>
      <trkpt lat="49.03109" lon="6.88173">
        <ele>248.8</ele>
        <time>2014-03-26T09:11:47Z</time>
      </trkpt>
      <trkpt lat="49.03104" lon="6.88178">
        <ele>248.1</ele>
        <time>2014-03-26T09:11:52Z</time>
      </trkpt>
      <trkpt lat="49.03098" lon="6.88183">
        <ele>248</ele>
        <time>2014-03-26T09:11:57Z</time>
      </trkpt>
      <trkpt lat="49.03093" lon="6.88188">
        <ele>247.6</ele>
        <time>2014-03-26T09:12:02Z</time>
      </trkpt>
      <trkpt lat="49.03087" lon="6.88194">
        <ele>247</ele>
        <time>2014-03-26T09:12:07Z</time>
      </trkpt>
      <trkpt lat="49.03081" lon="6.88201">
        <ele>246.2</ele>
        <time>2014-03-26T09:12:12Z</time>
      </trkpt>
      <trkpt lat="49.03076" lon="6.88208">
        <ele>246</ele>
        <time>2014-03-26T09:12:17Z</time>
      </trkpt>
      <trkpt lat="49.03072" lon="6.88216">
        <ele>245.6</ele>
        <time>2014-03-26T09:12:22Z</time>
      </trkpt>
      <trkpt lat="49.03068" lon="6.88224">
        <ele>244.9</ele>
        <time>2014-03-26T09:12:27Z</time>
      </trkpt>
      <trkpt lat="49.03064" lon="6.88233">
        <ele>244</ele>
        <time>2014-03-26T09:12:32Z</time>
      </trkpt>
      <trkpt lat="49.03059" lon="6.88252">
        <ele>243.4</ele>
        <time>2014-03-26T09:12:42Z</time>
      </trkpt>
      <trkpt lat="49.03056" lon="6.88262">
        <ele>243.2</ele>
        <time>2014-03-26T09:12:47Z</time>
      </trkpt>
      <trkpt lat="49.03054" lon="6.88271">
        <ele>242.9</ele>
        <time>2014-03-26T09:12:52Z</time>
      </trkpt>
      <trkpt lat="49.03052" lon="6.88279">
        <ele>242.3</ele>
        <time>2014-03-26T09:12:57Z</time>
      </trkpt>
      <trkpt lat="49.03048" lon="6.88288">
        <ele>242.6</ele>
        <time>2014-03-26T09:13:02Z</time>
      </trkpt>
      <trkpt lat="49.03044" lon="6.88296">
        <ele>242.2</ele>
        <time>2014-03-26T09:13:07Z</time>
      </trkpt>
      <trkpt lat="49.0304" lon="6.88305">
        <ele>241.7</ele>
        <time>2014-03-26T09:13:12Z</time>
      </trkpt>
      <trkpt lat="49.03036" lon="6.88314">
        <ele>242.1</ele>
        <time>2014-03-26T09:13:17Z</time>
      </trkpt>
      <trkpt lat="49.03032" lon="6.8832">
        <ele>242</ele>
        <time>2014-03-26T09:13:22Z</time>
      </trkpt>
      <trkpt lat="49.03027" lon="6.88325">
        <ele>242.4</ele>
        <time>2014-03-26T09:13:27Z</time>
      </trkpt>
      <trkpt lat="49.03022" lon="6.88331">
        <ele>241.2</ele>
        <time>2014-03-26T09:13:32Z</time>
      </trkpt>
      <trkpt lat="49.03016" lon="6.88337">
        <ele>240.9</ele>
        <time>2014-03-26T09:13:37Z</time>
      </trkpt>
      <trkpt lat="49.03004" lon="6.88347">
        <ele>241</ele>
        <time>2014-03-26T09:13:47Z</time>
      </trkpt>
      <trkpt lat="49.02998" lon="6.88351">
        <ele>240.7</ele>
        <time>2014-03-26T09:13:52Z</time>
      </trkpt>
      <trkpt lat="49.02992" lon="6.88355">
        <ele>240</ele>
        <time>2014-03-26T09:13:57Z</time>
      </trkpt>
      <trkpt lat="49.02986" lon="6.88359">
        <ele>240.5</ele>
        <time>2014-03-26T09:14:02Z</time>
      </trkpt>
      <trkpt lat="49.0298" lon="6.88363">
        <ele>240.4</ele>
        <time>2014-03-26T09:14:07Z</time>
      </trkpt>
      <trkpt lat="49.02973" lon="6.88366">
        <ele>239.6</ele>
        <time>2014-03-26T09:14:12Z</time>
      </trkpt>
      <trkpt lat="49.02967" lon="6.88369">
        <ele>239.8</ele>
        <time>2014-03-26T09:14:17Z</time>
      </trkpt>
      <trkpt lat="49.02961" lon="6.88372">
        <ele>240.4</ele>
        <time>2014-03-26T09:14:22Z</time>
      </trkpt>
      <trkpt lat="49.02955" lon="6.88373">
        <ele>239.6</ele>
        <time>2014-03-26T09:14:27Z</time>
      </trkpt>
      <trkpt lat="49.02949" lon="6.88375">
        <ele>239.8</ele>
        <time>2014-03-26T09:14:32Z</time>
      </trkpt>
      <trkpt lat="49.02942" lon="6.88378">
        <ele>239.5</ele>
        <time>2014-03-26T09:14:37Z</time>
      </trkpt>
      <trkpt lat="49.02935" lon="6.8838">
        <ele>239</ele>
        <time>2014-03-26T09:14:42Z</time>
      </trkpt>
      <trkpt lat="49.02922" lon="6.88385">
        <ele>238.1</ele>
        <time>2014-03-26T09:14:52Z</time>
      </trkpt>
      <trkpt lat="49.02915" lon="6.88387">
        <ele>237.9</ele>
        <time>2014-03-26T09:14:57Z</time>
      </trkpt>
      <trkpt lat="49.02908" lon="6.8839">
        <ele>238.5</ele>
        <time>2014-03-26T09:15:02Z</time>
      </trkpt>
      <trkpt lat="49.02901" lon="6.88392">
        <ele>238.3</ele>
        <time>2014-03-26T09:15:07Z</time>
      </trkpt>
      <trkpt lat="49.02894" lon="6.88395">
        <ele>238</ele>
        <time>2014-03-26T09:15:12Z</time>
      </trkpt>
      <trkpt lat="49.02887" lon="6.88398">
        <ele>237.5</ele>
        <time>2014-03-26T09:15:17Z</time>
      </trkpt>
      <trkpt lat="49.0288" lon="6.88401">
        <ele>237.4</ele>
        <time>2014-03-26T09:15:22Z</time>
      </trkpt>
      <trkpt lat="49.02873" lon="6.88403">
        <ele>237.3</ele>
        <time>2014-03-26T09:15:27Z</time>
      </trkpt>
      <trkpt lat="49.02866" lon="6.88406">
        <ele>237.7</ele>
        <time>2014-03-26T09:15:32Z</time>
      </trkpt>
      <trkpt lat="49.0286" lon="6.88409">
        <ele>237.4</ele>
        <time>2014-03-26T09:15:37Z</time>
      </trkpt>
      <trkpt lat="49.02853" lon="6.88412">
        <ele>237.1</ele>
        <time>2014-03-26T09:15:42Z</time>
      </trkpt>
      <trkpt lat="49.02847" lon="6.88416">
        <ele>237.2</ele>
        <time>2014-03-26T09:15:47Z</time>
      </trkpt>
      <trkpt lat="49.02833" lon="6.88419">
        <ele>237.1</ele>
        <time>2014-03-26T09:15:57Z</time>
      </trkpt>
      <trkpt lat="49.02827" lon="6.88422">
        <ele>237.1</ele>
        <time>2014-03-26T09:16:02Z</time>
      </trkpt>
      <trkpt lat="49.02821" lon="6.88425">
        <ele>237.5</ele>
        <time>2014-03-26T09:16:07Z</time>
      </trkpt>
      <trkpt lat="49.02814" lon="6.88429">
        <ele>237.4</ele>
        <time>2014-03-26T09:16:12Z</time>
      </trkpt>
      <trkpt lat="49.02807" lon="6.88432">
        <ele>237.1</ele>
        <time>2014-03-26T09:16:17Z</time>
      </trkpt>
      <trkpt lat="49.02801" lon="6.88435">
        <ele>236.4</ele>
        <time>2014-03-26T09:16:22Z</time>
      </trkpt>
      <trkpt lat="49.02794" lon="6.88438">
        <ele>236.7</ele>
        <time>2014-03-26T09:16:27Z</time>
      </trkpt>
      <trkpt lat="49.02787" lon="6.88441">
        <ele>237.4</ele>
        <time>2014-03-26T09:16:32Z</time>
      </trkpt>
      <trkpt lat="49.0278" lon="6.88444">
        <ele>236.6</ele>
        <time>2014-03-26T09:16:37Z</time>
      </trkpt>
      <trkpt lat="49.02773" lon="6.88447">
        <ele>236.3</ele>
        <time>2014-03-26T09:16:42Z</time>
      </trkpt>
      <trkpt lat="49.02768" lon="6.88451">
        <ele>236.8</ele>
        <time>2014-03-26T09:16:47Z</time>
      </trkpt>
      <trkpt lat="49.02761" lon="6.88452">
        <ele>236</ele>
        <time>2014-03-26T09:16:52Z</time>
      </trkpt>
      <trkpt lat="49.02745" lon="6.88456">
        <ele>235.8</ele>
        <time>2014-03-26T09:17:02Z</time>
      </trkpt>
      <trkpt lat="49.02738" lon="6.88456">
        <ele>235.3</ele>
        <time>2014-03-26T09:17:07Z</time>
      </trkpt>
      <trkpt lat="49.02733" lon="6.88453">
        <ele>235.5</ele>
        <time>2014-03-26T09:17:12Z</time>
      </trkpt>
      <trkpt lat="49.02726" lon="6.88452">
        <ele>235.5</ele>
        <time>2014-03-26T09:17:17Z</time>
      </trkpt>
      <trkpt lat="49.0272" lon="6.88451">
        <ele>235.9</ele>
        <time>2014-03-26T09:17:22Z</time>
      </trkpt>
      <trkpt lat="49.02713" lon="6.88452">
        <ele>235.7</ele>
        <time>2014-03-26T09:17:27Z</time>
      </trkpt>
      <trkpt lat="49.02706" lon="6.88453">
        <ele>236.2</ele>
        <time>2014-03-26T09:17:32Z</time>
      </trkpt>
      <trkpt lat="49.02699" lon="6.88454">
        <ele>235.3</ele>
        <time>2014-03-26T09:17:37Z</time>
      </trkpt>
      <trkpt lat="49.02691" lon="6.88457">
        <ele>235.9</ele>
        <time>2014-03-26T09:17:42Z</time>
      </trkpt>
      <trkpt lat="49.02683" lon="6.88461">
        <ele>235.6</ele>
        <time>2014-03-26T09:17:47Z</time>
      </trkpt>
      <trkpt lat="49.02676" lon="6.88463">
        <ele>235.4</ele>
        <time>2014-03-26T09:17:52Z</time>
      </trkpt>
      <trkpt lat="49.0267" lon="6.88462">
        <ele>234.8</ele>
        <time>2014-03-26T09:17:57Z</time>
      </trkpt>
      <trkpt lat="49.0266" lon="6.88464">
        <ele>233.6</ele>
        <time>2014-03-26T09:18:07Z</time>
      </trkpt>
      <trkpt lat="49.02656" lon="6.88466">
        <ele>234.3</ele>
        <time>2014-03-26T09:18:12Z</time>
      </trkpt>
      <trkpt lat="49.02651" lon="6.88469">
        <ele>234.1</ele>
        <time>2014-03-26T09:18:17Z</time>
      </trkpt>
      <trkpt lat="49.02645" lon="6.88472">
        <ele>234</ele>
        <time>2014-03-26T09:18:22Z</time>
      </trkpt>
      <trkpt lat="49.02638" lon="6.88475">
        <ele>233.9</ele>
        <time>2014-03-26T09:18:27Z</time>
      </trkpt>
      <trkpt lat="49.02632" lon="6.88479">
        <ele>232.7</ele>
        <time>2014-03-26T09:18:32Z</time>
      </trkpt>
      <trkpt lat="49.02625" lon="6.88485">
        <ele>232.5</ele>
        <time>2014-03-26T09:18:37Z</time>
      </trkpt>
      <trkpt lat="49.02619" lon="6.8849">
        <ele>232.8</ele>
        <time>2014-03-26T09:18:42Z</time>
      </trkpt>
      <trkpt lat="49.02612" lon="6.88495">
        <ele>232.3</ele>
        <time>2014-03-26T09:18:47Z</time>
      </trkpt>
      <trkpt lat="49.02606" lon="6.88499">
        <ele>232.6</ele>
        <time>2014-03-26T09:18:52Z</time>
      </trkpt>
      <trkpt lat="49.026" lon="6.88504">
        <ele>231.7</ele>
        <time>2014-03-26T09:18:57Z</time>
      </trkpt>
      <trkpt lat="49.02594" lon="6.88509">
        <ele>232.8</ele>
        <time>2014-03-26T09:19:02Z</time>
      </trkpt>
      <trkpt lat="49.02585" lon="6.88525">
        <ele>233.3</ele>
        <time>2014-03-26T09:19:12Z</time>
      </trkpt>
      <trkpt lat="49.02584" lon="6.88534">
        <ele>233.3</ele>
        <time>2014-03-26T09:19:17Z</time>
      </trkpt>
      <trkpt lat="49.02585" lon="6.88542">
        <ele>233.2</ele>
        <time>2014-03-26T09:19:22Z</time>
      </trkpt>
      <trkpt lat="49.02586" lon="6.88547">
        <ele>233.9</ele>
        <time>2014-03-26T09:19:27Z</time>
      </trkpt>
      <trkpt lat="49.0259" lon="6.88556">
        <ele>234.1</ele>
        <time>2014-03-26T09:19:32Z</time>
      </trkpt>
      <trkpt lat="49.02593" lon="6.88564">
        <ele>233.3</ele>
        <time>2014-03-26T09:19:37Z</time>
      </trkpt>
      <trkpt lat="49.02596" lon="6.88573">
        <ele>235.4</ele>
        <time>2014-03-26T09:19:42Z</time>
      </trkpt>
      <trkpt lat="49.02599" lon="6.88582">
        <ele>235.5</ele>
        <time>2014-03-26T09:19:47Z</time>
      </trkpt>
      <trkpt lat="49.02603" lon="6.88591">
        <ele>235.9</ele>
        <time>2014-03-26T09:19:52Z</time>
      </trkpt>
      <trkpt lat="49.02606" lon="6.88599">
        <ele>236.2</ele>
        <time>2014-03-26T09:19:57Z</time>
      </trkpt>
      <trkpt lat="49.02609" lon="6.88608">
        <ele>235.7</ele>
        <time>2014-03-26T09:20:02Z</time>
      </trkpt>
      <trkpt lat="49.02613" lon="6.88617">
        <ele>237</ele>
        <time>2014-03-26T09:20:07Z</time>
      </trkpt>
      <trkpt lat="49.0262" lon="6.88632">
        <ele>238.5</ele>
        <time>2014-03-26T09:20:17Z</time>
      </trkpt>
      <trkpt lat="49.02624" lon="6.8864">
        <ele>238.5</ele>
        <time>2014-03-26T09:20:22Z</time>
      </trkpt>
      <trkpt lat="49.02627" lon="6.88648">
        <ele>239.1</ele>
        <time>2014-03-26T09:20:27Z</time>
      </trkpt>
      <trkpt lat="49.02629" lon="6.88657">
        <ele>239</ele>
        <time>2014-03-26T09:20:32Z</time>
      </trkpt>
      <trkpt lat="49.02633" lon="6.88666">
        <ele>238.9</ele>
        <time>2014-03-26T09:20:37Z</time>
      </trkpt>
      <trkpt lat="49.02637" lon="6.88674">
        <ele>239.6</ele>
        <time>2014-03-26T09:20:42Z</time>
      </trkpt>
      <trkpt lat="49.02637" lon="6.88676">
        <ele>240</ele>
        <time>2014-03-26T09:20:47Z</time>
      </trkpt>
      <trkpt lat="49.02638" lon="6.88679">
        <ele>240.2</ele>
        <time>2014-03-26T09:20:52Z</time>
      </trkpt>
      <trkpt lat="49.0264" lon="6.88687">
        <ele>240.2</ele>
        <time>2014-03-26T09:20:57Z</time>
      </trkpt>
      <trkpt lat="49.02644" lon="6.88694">
        <ele>240.3</ele>
        <time>2014-03-26T09:21:02Z</time>
      </trkpt>
      <trkpt lat="49.02648" lon="6.88703">
        <ele>241</ele>
        <time>2014-03-26T09:21:07Z</time>
      </trkpt>
      <trkpt lat="49.02652" lon="6.88711">
        <ele>240.7</ele>
        <time>2014-03-26T09:21:12Z</time>
      </trkpt>
      <trkpt lat="49.02658" lon="6.88729">
        <ele>241.4</ele>
        <time>2014-03-26T09:21:22Z</time>
      </trkpt>
      <trkpt lat="49.02659" lon="6.88737">
        <ele>241.1</ele>
        <time>2014-03-26T09:21:27Z</time>
      </trkpt>
      <trkpt lat="49.02659" lon="6.88747">
        <ele>241.1</ele>
        <time>2014-03-26T09:21:32Z</time>
      </trkpt>
      <trkpt lat="49.02659" lon="6.88758">
        <ele>241.5</ele>
        <time>2014-03-26T09:21:37Z</time>
      </trkpt>
      <trkpt lat="49.02659" lon="6.88767">
        <ele>241.4</ele>
        <time>2014-03-26T09:21:42Z</time>
      </trkpt>
      <trkpt lat="49.02658" lon="6.88778">
        <ele>241.5</ele>
        <time>2014-03-26T09:21:47Z</time>
      </trkpt>
      <trkpt lat="49.02656" lon="6.88789">
        <ele>242.1</ele>
        <time>2014-03-26T09:21:52Z</time>
      </trkpt>
      <trkpt lat="49.02654" lon="6.888">
        <ele>242.3</ele>
        <time>2014-03-26T09:21:57Z</time>
      </trkpt>
      <trkpt lat="49.0265" lon="6.88811">
        <ele>242</ele>
        <time>2014-03-26T09:22:02Z</time>
      </trkpt>
      <trkpt lat="49.02646" lon="6.88822">
        <ele>241.9</ele>
        <time>2014-03-26T09:22:07Z</time>
      </trkpt>
      <trkpt lat="49.02641" lon="6.88832">
        <ele>241.1</ele>
        <time>2014-03-26T09:22:12Z</time>
      </trkpt>
      <trkpt lat="49.02636" lon="6.88841">
        <ele>241.8</ele>
        <time>2014-03-26T09:22:17Z</time>
      </trkpt>
      <trkpt lat="49.02627" lon="6.88858">
        <ele>240.7</ele>
        <time>2014-03-26T09:22:27Z</time>
      </trkpt>
      <trkpt lat="49.02622" lon="6.88868">
        <ele>241.2</ele>
        <time>2014-03-26T09:22:32Z</time>
      </trkpt>
      <trkpt lat="49.02618" lon="6.88875">
        <ele>240.5</ele>
        <time>2014-03-26T09:22:37Z</time>
      </trkpt>
      <trkpt lat="49.02614" lon="6.88882">
        <ele>240.7</ele>
        <time>2014-03-26T09:22:42Z</time>
      </trkpt>
      <trkpt lat="49.0261" lon="6.88891">
        <ele>239.9</ele>
        <time>2014-03-26T09:22:47Z</time>
      </trkpt>
      <trkpt lat="49.02605" lon="6.88899">
        <ele>240.2</ele>
        <time>2014-03-26T09:22:52Z</time>
      </trkpt>
      <trkpt lat="49.026" lon="6.88907">
        <ele>239.5</ele>
        <time>2014-03-26T09:22:57Z</time>
      </trkpt>
      <trkpt lat="49.02596" lon="6.88916">
        <ele>239.8</ele>
        <time>2014-03-26T09:23:02Z</time>
      </trkpt>
      <trkpt lat="49.02591" lon="6.88925">
        <ele>239.9</ele>
        <time>2014-03-26T09:23:07Z</time>
      </trkpt>
      <trkpt lat="49.02586" lon="6.88933">
        <ele>239</ele>
        <time>2014-03-26T09:23:12Z</time>
      </trkpt>
      <trkpt lat="49.02581" lon="6.88942">
        <ele>238.4</ele>
        <time>2014-03-26T09:23:17Z</time>
      </trkpt>
      <trkpt lat="49.02576" lon="6.8895">
        <ele>237.6</ele>
        <time>2014-03-26T09:23:22Z</time>
      </trkpt>
      <trkpt lat="49.02566" lon="6.88968">
        <ele>237.8</ele>
        <time>2014-03-26T09:23:32Z</time>
      </trkpt>
      <trkpt lat="49.02562" lon="6.88976">
        <ele>237.4</ele>
        <time>2014-03-26T09:23:37Z</time>
      </trkpt>
      <trkpt lat="49.02557" lon="6.88984">
        <ele>237.2</ele>
        <time>2014-03-26T09:23:42Z</time>
      </trkpt>
      <trkpt lat="49.02553" lon="6.88992">
        <ele>237.9</ele>
        <time>2014-03-26T09:23:47Z</time>
      </trkpt>
      <trkpt lat="49.02548" lon="6.89001">
        <ele>237</ele>
        <time>2014-03-26T09:23:52Z</time>
      </trkpt>
      <trkpt lat="49.02543" lon="6.89009">
        <ele>237</ele>
        <time>2014-03-26T09:23:57Z</time>
      </trkpt>
      <trkpt lat="49.02539" lon="6.89016">
        <ele>236.7</ele>
        <time>2014-03-26T09:24:02Z</time>
      </trkpt>
      <trkpt lat="49.02534" lon="6.89024">
        <ele>236.1</ele>
        <time>2014-03-26T09:24:07Z</time>
      </trkpt>
      <trkpt lat="49.02529" lon="6.89032">
        <ele>235.8</ele>
        <time>2014-03-26T09:24:12Z</time>
      </trkpt>
      <trkpt lat="49.02524" lon="6.8904">
        <ele>235</ele>
        <time>2014-03-26T09:24:17Z</time>
      </trkpt>
      <trkpt lat="49.0252" lon="6.89048">
        <ele>235.3</ele>
        <time>2014-03-26T09:24:22Z</time>
      </trkpt>
      <trkpt lat="49.02516" lon="6.89056">
        <ele>235.3</ele>
        <time>2014-03-26T09:24:27Z</time>
      </trkpt>
      <trkpt lat="49.02508" lon="6.89072">
        <ele>235.2</ele>
        <time>2014-03-26T09:24:37Z</time>
      </trkpt>
      <trkpt lat="49.02503" lon="6.89081">
        <ele>235</ele>
        <time>2014-03-26T09:24:42Z</time>
      </trkpt>
      <trkpt lat="49.02498" lon="6.89089">
        <ele>235.3</ele>
        <time>2014-03-26T09:24:47Z</time>
      </trkpt>
      <trkpt lat="49.02494" lon="6.89097">
        <ele>235.4</ele>
        <time>2014-03-26T09:24:52Z</time>
      </trkpt>
      <trkpt lat="49.02489" lon="6.89106">
        <ele>235.7</ele>
        <time>2014-03-26T09:24:57Z</time>
      </trkpt>
      <trkpt lat="49.02485" lon="6.89114">
        <ele>235.3</ele>
        <time>2014-03-26T09:25:02Z</time>
      </trkpt>
      <trkpt lat="49.0248" lon="6.89123">
        <ele>235.1</ele>
        <time>2014-03-26T09:25:07Z</time>
      </trkpt>
      <trkpt lat="49.02475" lon="6.89132">
        <ele>235</ele>
        <time>2014-03-26T09:25:12Z</time>
      </trkpt>
      <trkpt lat="49.02471" lon="6.89141">
        <ele>234.5</ele>
        <time>2014-03-26T09:25:17Z</time>
      </trkpt>
      <trkpt lat="49.02467" lon="6.8915">
        <ele>234.5</ele>
        <time>2014-03-26T09:25:22Z</time>
      </trkpt>
      <trkpt lat="49.02463" lon="6.89156">
        <ele>234.5</ele>
        <time>2014-03-26T09:25:27Z</time>
      </trkpt>
      <trkpt lat="49.02459" lon="6.89162">
        <ele>235</ele>
        <time>2014-03-26T09:25:32Z</time>
      </trkpt>
      <trkpt lat="49.02451" lon="6.89174">
        <ele>234.7</ele>
        <time>2014-03-26T09:25:42Z</time>
      </trkpt>
      <trkpt lat="49.02446" lon="6.89182">
        <ele>234.6</ele>
        <time>2014-03-26T09:25:47Z</time>
      </trkpt>
      <trkpt lat="49.02441" lon="6.89191">
        <ele>234.7</ele>
        <time>2014-03-26T09:25:52Z</time>
      </trkpt>
      <trkpt lat="49.02437" lon="6.89199">
        <ele>235</ele>
        <time>2014-03-26T09:25:57Z</time>
      </trkpt>
      <trkpt lat="49.02435" lon="6.89209">
        <ele>234.9</ele>
        <time>2014-03-26T09:26:02Z</time>
      </trkpt>
      <trkpt lat="49.02434" lon="6.89219">
        <ele>234</ele>
        <time>2014-03-26T09:26:07Z</time>
      </trkpt>
      <trkpt lat="49.02435" lon="6.89229">
        <ele>233.4</ele>
        <time>2014-03-26T09:26:12Z</time>
      </trkpt>
      <trkpt lat="49.02438" lon="6.89238">
        <ele>234.8</ele>
        <time>2014-03-26T09:26:17Z</time>
      </trkpt>
      <trkpt lat="49.02441" lon="6.89246">
        <ele>235.1</ele>
        <time>2014-03-26T09:26:22Z</time>
      </trkpt>
      <trkpt lat="49.02444" lon="6.89255">
        <ele>235.2</ele>
        <time>2014-03-26T09:26:27Z</time>
      </trkpt>
      <trkpt lat="49.02448" lon="6.89264">
        <ele>235</ele>
        <time>2014-03-26T09:26:32Z</time>
      </trkpt>
      <trkpt lat="49.02451" lon="6.89273">
        <ele>235.7</ele>
        <time>2014-03-26T09:26:37Z</time>
      </trkpt>
      <trkpt lat="49.02457" lon="6.89292">
        <ele>235.8</ele>
        <time>2014-03-26T09:26:47Z</time>
      </trkpt>
      <trkpt lat="49.0246" lon="6.89301">
        <ele>236</ele>
        <time>2014-03-26T09:26:52Z</time>
      </trkpt>
      <trkpt lat="49.02463" lon="6.8931">
        <ele>235.2</ele>
        <time>2014-03-26T09:26:57Z</time>
      </trkpt>
      <trkpt lat="49.02466" lon="6.8932">
        <ele>235</ele>
        <time>2014-03-26T09:27:02Z</time>
      </trkpt>
      <trkpt lat="49.0247" lon="6.89329">
        <ele>234.3</ele>
        <time>2014-03-26T09:27:07Z</time>
      </trkpt>
      <trkpt lat="49.02473" lon="6.89338">
        <ele>234.9</ele>
        <time>2014-03-26T09:27:12Z</time>
      </trkpt>
      <trkpt lat="49.02476" lon="6.89347">
        <ele>235.5</ele>
        <time>2014-03-26T09:27:17Z</time>
      </trkpt>
      <trkpt lat="49.02479" lon="6.89356">
        <ele>234.6</ele>
        <time>2014-03-26T09:27:22Z</time>
      </trkpt>
      <trkpt lat="49.02482" lon="6.89365">
        <ele>234.6</ele>
        <time>2014-03-26T09:27:27Z</time>
      </trkpt>
      <trkpt lat="49.02483" lon="6.89374">
        <ele>235</ele>
        <time>2014-03-26T09:27:32Z</time>
      </trkpt>
      <trkpt lat="49.02483" lon="6.89383">
        <ele>236.2</ele>
        <time>2014-03-26T09:27:37Z</time>
      </trkpt>
      <trkpt lat="49.02482" lon="6.89393">
        <ele>236.2</ele>
        <time>2014-03-26T09:27:42Z</time>
      </trkpt>
      <trkpt lat="49.0248" lon="6.89416">
        <ele>236</ele>
        <time>2014-03-26T09:27:52Z</time>
      </trkpt>
      <trkpt lat="49.02478" lon="6.89427">
        <ele>236.4</ele>
        <time>2014-03-26T09:27:57Z</time>
      </trkpt>
      <trkpt lat="49.02476" lon="6.89437">
        <ele>236.5</ele>
        <time>2014-03-26T09:28:02Z</time>
      </trkpt>
      <trkpt lat="49.02474" lon="6.89448">
        <ele>236.3</ele>
        <time>2014-03-26T09:28:07Z</time>
      </trkpt>
      <trkpt lat="49.02472" lon="6.89458">
        <ele>236.9</ele>
        <time>2014-03-26T09:28:12Z</time>
      </trkpt>
      <trkpt lat="49.0247" lon="6.89467">
        <ele>236.8</ele>
        <time>2014-03-26T09:28:17Z</time>
      </trkpt>
      <trkpt lat="49.02467" lon="6.89477">
        <ele>238.6</ele>
        <time>2014-03-26T09:28:22Z</time>
      </trkpt>
      <trkpt lat="49.02465" lon="6.89488">
        <ele>238.2</ele>
        <time>2014-03-26T09:28:27Z</time>
      </trkpt>
      <trkpt lat="49.02462" lon="6.89497">
        <ele>239</ele>
        <time>2014-03-26T09:28:32Z</time>
      </trkpt>
      <trkpt lat="49.0246" lon="6.89507">
        <ele>238.8</ele>
        <time>2014-03-26T09:28:37Z</time>
      </trkpt>
      <trkpt lat="49.02458" lon="6.89518">
        <ele>239.6</ele>
        <time>2014-03-26T09:28:42Z</time>
      </trkpt>
      <trkpt lat="49.02457" lon="6.89529">
        <ele>240.8</ele>
        <time>2014-03-26T09:28:47Z</time>
      </trkpt>
      <trkpt lat="49.02456" lon="6.89549">
        <ele>241.8</ele>
        <time>2014-03-26T09:28:57Z</time>
      </trkpt>
      <trkpt lat="49.02454" lon="6.89559">
        <ele>242.7</ele>
        <time>2014-03-26T09:29:02Z</time>
      </trkpt>
      <trkpt lat="49.02452" lon="6.8957">
        <ele>242.6</ele>
        <time>2014-03-26T09:29:07Z</time>
      </trkpt>
      <trkpt lat="49.02448" lon="6.8958">
        <ele>243.6</ele>
        <time>2014-03-26T09:29:12Z</time>
      </trkpt>
      <trkpt lat="49.02444" lon="6.8959">
        <ele>244.2</ele>
        <time>2014-03-26T09:29:17Z</time>
      </trkpt>
      <trkpt lat="49.0244" lon="6.89598">
        <ele>244.7</ele>
        <time>2014-03-26T09:29:22Z</time>
      </trkpt>
      <trkpt lat="49.02436" lon="6.89607">
        <ele>245.4</ele>
        <time>2014-03-26T09:29:27Z</time>
      </trkpt>
      <trkpt lat="49.02431" lon="6.89615">
        <ele>245.6</ele>
        <time>2014-03-26T09:29:32Z</time>
      </trkpt>
      <trkpt lat="49.02426" lon="6.89624">
        <ele>245.5</ele>
        <time>2014-03-26T09:29:37Z</time>
      </trkpt>
      <trkpt lat="49.0242" lon="6.89632">
        <ele>246.1</ele>
        <time>2014-03-26T09:29:42Z</time>
      </trkpt>
      <trkpt lat="49.02415" lon="6.8964">
        <ele>246.5</ele>
        <time>2014-03-26T09:29:47Z</time>
      </trkpt>
      <trkpt lat="49.0241" lon="6.89648">
        <ele>246.6</ele>
        <time>2014-03-26T09:29:52Z</time>
      </trkpt>
      <trkpt lat="49.02399" lon="6.89663">
        <ele>246.8</ele>
        <time>2014-03-26T09:30:02Z</time>
      </trkpt>
      <trkpt lat="49.02394" lon="6.89671">
        <ele>246.2</ele>
        <time>2014-03-26T09:30:07Z</time>
      </trkpt>
      <trkpt lat="49.02389" lon="6.89678">
        <ele>246</ele>
        <time>2014-03-26T09:30:12Z</time>
      </trkpt>
      <trkpt lat="49.02384" lon="6.89686">
        <ele>245.3</ele>
        <time>2014-03-26T09:30:17Z</time>
      </trkpt>
      <trkpt lat="49.02379" lon="6.89694">
        <ele>245.5</ele>
        <time>2014-03-26T09:30:22Z</time>
      </trkpt>
      <trkpt lat="49.02376" lon="6.89703">
        <ele>245.6</ele>
        <time>2014-03-26T09:30:27Z</time>
      </trkpt>
      <trkpt lat="49.02375" lon="6.89714">
        <ele>244.7</ele>
        <time>2014-03-26T09:30:32Z</time>
      </trkpt>
      <trkpt lat="49.02377" lon="6.89723">
        <ele>243.7</ele>
        <time>2014-03-26T09:30:37Z</time>
      </trkpt>
      <trkpt lat="49.0238" lon="6.89733">
        <ele>244.4</ele>
        <time>2014-03-26T09:30:42Z</time>
      </trkpt>
      <trkpt lat="49.02384" lon="6.89741">
        <ele>244.5</ele>
        <time>2014-03-26T09:30:47Z</time>
      </trkpt>
      <trkpt lat="49.02388" lon="6.89749">
        <ele>245.1</ele>
        <time>2014-03-26T09:30:52Z</time>
      </trkpt>
      <trkpt lat="49.02392" lon="6.89757">
        <ele>245</ele>
        <time>2014-03-26T09:30:57Z</time>
      </trkpt>
      <trkpt lat="49.024" lon="6.89773">
        <ele>245.5</ele>
        <time>2014-03-26T09:31:07Z</time>
      </trkpt>
      <trkpt lat="49.02404" lon="6.89781">
        <ele>245.4</ele>
        <time>2014-03-26T09:31:12Z</time>
      </trkpt>
      <trkpt lat="49.02408" lon="6.89789">
        <ele>245</ele>
        <time>2014-03-26T09:31:17Z</time>
      </trkpt>
      <trkpt lat="49.02412" lon="6.89797">
        <ele>244.9</ele>
        <time>2014-03-26T09:31:22Z</time>
      </trkpt>
      <trkpt lat="49.02415" lon="6.89805">
        <ele>244.8</ele>
        <time>2014-03-26T09:31:27Z</time>
      </trkpt>
      <trkpt lat="49.02419" lon="6.89814">
        <ele>245.3</ele>
        <time>2014-03-26T09:31:32Z</time>
      </trkpt>
      <trkpt lat="49.02423" lon="6.89822">
        <ele>244.4</ele>
        <time>2014-03-26T09:31:37Z</time>
      </trkpt>
      <trkpt lat="49.02426" lon="6.89831">
        <ele>244.3</ele>
        <time>2014-03-26T09:31:42Z</time>
      </trkpt>
      <trkpt lat="49.0243" lon="6.8984">
        <ele>243.4</ele>
        <time>2014-03-26T09:31:47Z</time>
      </trkpt>
      <trkpt lat="49.02433" lon="6.89849">
        <ele>242.7</ele>
        <time>2014-03-26T09:31:52Z</time>
      </trkpt>
      <trkpt lat="49.02437" lon="6.89858">
        <ele>241.3</ele>
        <time>2014-03-26T09:31:57Z</time>
      </trkpt>
      <trkpt lat="49.02441" lon="6.89867">
        <ele>242.1</ele>
        <time>2014-03-26T09:32:02Z</time>
      </trkpt>
      <trkpt lat="49.02448" lon="6.89884">
        <ele>241.7</ele>
        <time>2014-03-26T09:32:12Z</time>
      </trkpt>
      <trkpt lat="49.02452" lon="6.89892">
        <ele>241</ele>
        <time>2014-03-26T09:32:17Z</time>
      </trkpt>
      <trkpt lat="49.02455" lon="6.89901">
        <ele>240.4</ele>
        <time>2014-03-26T09:32:22Z</time>
      </trkpt>
      <trkpt lat="49.02459" lon="6.89909">
        <ele>240.6</ele>
        <time>2014-03-26T09:32:27Z</time>
      </trkpt>
      <trkpt lat="49.02463" lon="6.89918">
        <ele>239.9</ele>
        <time>2014-03-26T09:32:32Z</time>
      </trkpt>
      <trkpt lat="49.02466" lon="6.89927">
        <ele>239.9</ele>
        <time>2014-03-26T09:32:37Z</time>
      </trkpt>
      <trkpt lat="49.0247" lon="6.89936">
        <ele>239.1</ele>
        <time>2014-03-26T09:32:42Z</time>
      </trkpt>
      <trkpt lat="49.02474" lon="6.89945">
        <ele>239.5</ele>
        <time>2014-03-26T09:32:47Z</time>
      </trkpt>
      <trkpt lat="49.02477" lon="6.89954">
        <ele>239.1</ele>
        <time>2014-03-26T09:32:52Z</time>
      </trkpt>
      <trkpt lat="49.02481" lon="6.89963">
        <ele>238.7</ele>
        <time>2014-03-26T09:32:57Z</time>
      </trkpt>
      <trkpt lat="49.02485" lon="6.89971">
        <ele>238.5</ele>
        <time>2014-03-26T09:33:02Z</time>
      </trkpt>
      <trkpt lat="49.02489" lon="6.8998">
        <ele>237.8</ele>
        <time>2014-03-26T09:33:07Z</time>
      </trkpt>
      <trkpt lat="49.02495" lon="6.89997">
        <ele>237.6</ele>
        <time>2014-03-26T09:33:17Z</time>
      </trkpt>
      <trkpt lat="49.02499" lon="6.90006">
        <ele>237.2</ele>
        <time>2014-03-26T09:33:22Z</time>
      </trkpt>
      <trkpt lat="49.02503" lon="6.90015">
        <ele>236.9</ele>
        <time>2014-03-26T09:33:27Z</time>
      </trkpt>
      <trkpt lat="49.02505" lon="6.90024">
        <ele>237.2</ele>
        <time>2014-03-26T09:33:32Z</time>
      </trkpt>
      <trkpt lat="49.02509" lon="6.90033">
        <ele>237</ele>
        <time>2014-03-26T09:33:37Z</time>
      </trkpt>
      <trkpt lat="49.02513" lon="6.90042">
        <ele>237.3</ele>
        <time>2014-03-26T09:33:42Z</time>
      </trkpt>
      <trkpt lat="49.02517" lon="6.90051">
        <ele>237.2</ele>
        <time>2014-03-26T09:33:47Z</time>
      </trkpt>
      <trkpt lat="49.0252" lon="6.90061">
        <ele>236.9</ele>
        <time>2014-03-26T09:33:52Z</time>
      </trkpt>
      <trkpt lat="49.02524" lon="6.9007">
        <ele>237.6</ele>
        <time>2014-03-26T09:33:57Z</time>
      </trkpt>
      <trkpt lat="49.02528" lon="6.90079">
        <ele>237.6</ele>
        <time>2014-03-26T09:34:02Z</time>
      </trkpt>
      <trkpt lat="49.02532" lon="6.90088">
        <ele>238</ele>
        <time>2014-03-26T09:34:07Z</time>
      </trkpt>
      <trkpt lat="49.02535" lon="6.90097">
        <ele>238.4</ele>
        <time>2014-03-26T09:34:12Z</time>
      </trkpt>
      <trkpt lat="49.02543" lon="6.90116">
        <ele>239</ele>
        <time>2014-03-26T09:34:22Z</time>
      </trkpt>
      <trkpt lat="49.02546" lon="6.90125">
        <ele>238.8</ele>
        <time>2014-03-26T09:34:27Z</time>
      </trkpt>
      <trkpt lat="49.02549" lon="6.90134">
        <ele>239</ele>
        <time>2014-03-26T09:34:32Z</time>
      </trkpt>
      <trkpt lat="49.02553" lon="6.90143">
        <ele>239.8</ele>
        <time>2014-03-26T09:34:37Z</time>
      </trkpt>
      <trkpt lat="49.02557" lon="6.90152">
        <ele>240.4</ele>
        <time>2014-03-26T09:34:42Z</time>
      </trkpt>
      <trkpt lat="49.02561" lon="6.90161">
        <ele>239.9</ele>
        <time>2014-03-26T09:34:47Z</time>
      </trkpt>
      <trkpt lat="49.02564" lon="6.90169">
        <ele>240.8</ele>
        <time>2014-03-26T09:34:52Z</time>
      </trkpt>
      <trkpt lat="49.02568" lon="6.90179">
        <ele>240.5</ele>
        <time>2014-03-26T09:34:57Z</time>
      </trkpt>
      <trkpt lat="49.02571" lon="6.90188">
        <ele>241.2</ele>
        <time>2014-03-26T09:35:02Z</time>
      </trkpt>
      <trkpt lat="49.02575" lon="6.90197">
        <ele>241.6</ele>
        <time>2014-03-26T09:35:07Z</time>
      </trkpt>
      <trkpt lat="49.02578" lon="6.90205">
        <ele>242.5</ele>
        <time>2014-03-26T09:35:12Z</time>
      </trkpt>
      <trkpt lat="49.02582" lon="6.90214">
        <ele>242.6</ele>
        <time>2014-03-26T09:35:17Z</time>
      </trkpt>
      <trkpt lat="49.0259" lon="6.90231">
        <ele>242.9</ele>
        <time>2014-03-26T09:35:27Z</time>
      </trkpt>
      <trkpt lat="49.02594" lon="6.9024">
        <ele>242.5</ele>
        <time>2014-03-26T09:35:32Z</time>
      </trkpt>
      <trkpt lat="49.02598" lon="6.90249">
        <ele>242.6</ele>
        <time>2014-03-26T09:35:37Z</time>
      </trkpt>
      <trkpt lat="49.02602" lon="6.90258">
        <ele>242.1</ele>
        <time>2014-03-26T09:35:42Z</time>
      </trkpt>
      <trkpt lat="49.02605" lon="6.90267">
        <ele>242.6</ele>
        <time>2014-03-26T09:35:47Z</time>
      </trkpt>
      <trkpt lat="49.02609" lon="6.90276">
        <ele>243.4</ele>
        <time>2014-03-26T09:35:52Z</time>
      </trkpt>
      <trkpt lat="49.02612" lon="6.90285">
        <ele>243.1</ele>
        <time>2014-03-26T09:35:57Z</time>
      </trkpt>
      <trkpt lat="49.02616" lon="6.90294">
        <ele>243.6</ele>
        <time>2014-03-26T09:36:02Z</time>
      </trkpt>
      <trkpt lat="49.0262" lon="6.90303">
        <ele>243.3</ele>
        <time>2014-03-26T09:36:07Z</time>
      </trkpt>
      <trkpt lat="49.02623" lon="6.90312">
        <ele>242.7</ele>
        <time>2014-03-26T09:36:12Z</time>
      </trkpt>
      <trkpt lat="49.02627" lon="6.90322">
        <ele>243.1</ele>
        <time>2014-03-26T09:36:17Z</time>
      </trkpt>
      <trkpt lat="49.0263" lon="6.90331">
        <ele>244.4</ele>
        <time>2014-03-26T09:36:22Z</time>
      </trkpt>
      <trkpt lat="49.02638" lon="6.90348">
        <ele>244.7</ele>
        <time>2014-03-26T09:36:32Z</time>
      </trkpt>
      <trkpt lat="49.02642" lon="6.90357">
        <ele>245.1</ele>
        <time>2014-03-26T09:36:37Z</time>
      </trkpt>
      <trkpt lat="49.02646" lon="6.90366">
        <ele>245.2</ele>
        <time>2014-03-26T09:36:42Z</time>
      </trkpt>
      <trkpt lat="49.0265" lon="6.90375">
        <ele>244.9</ele>
        <time>2014-03-26T09:36:47Z</time>
      </trkpt>
      <trkpt lat="49.02654" lon="6.90384">
        <ele>244.7</ele>
        <time>2014-03-26T09:36:52Z</time>
      </trkpt>
      <trkpt lat="49.02657" lon="6.90393">
        <ele>245.2</ele>
        <time>2014-03-26T09:36:57Z</time>
      </trkpt>
      <trkpt lat="49.02661" lon="6.90402">
        <ele>245.2</ele>
        <time>2014-03-26T09:37:02Z</time>
      </trkpt>
      <trkpt lat="49.02664" lon="6.9041">
        <ele>245.4</ele>
        <time>2014-03-26T09:37:07Z</time>
      </trkpt>
      <trkpt lat="49.02668" lon="6.90419">
        <ele>245.2</ele>
        <time>2014-03-26T09:37:12Z</time>
      </trkpt>
      <trkpt lat="49.02671" lon="6.90428">
        <ele>244.7</ele>
        <time>2014-03-26T09:37:17Z</time>
      </trkpt>
      <trkpt lat="49.02675" lon="6.90437">
        <ele>244.5</ele>
        <time>2014-03-26T09:37:22Z</time>
      </trkpt>
      <trkpt lat="49.02679" lon="6.90446">
        <ele>244.9</ele>
        <time>2014-03-26T09:37:27Z</time>
      </trkpt>
      <trkpt lat="49.02685" lon="6.90463">
        <ele>244.6</ele>
        <time>2014-03-26T09:37:37Z</time>
      </trkpt>
      <trkpt lat="49.02689" lon="6.90472">
        <ele>244</ele>
        <time>2014-03-26T09:37:42Z</time>
      </trkpt>
      <trkpt lat="49.02693" lon="6.90481">
        <ele>243.8</ele>
        <time>2014-03-26T09:37:47Z</time>
      </trkpt>
      <trkpt lat="49.02697" lon="6.9049">
        <ele>243.9</ele>
        <time>2014-03-26T09:37:52Z</time>
      </trkpt>
      <trkpt lat="49.027" lon="6.90498">
        <ele>243.8</ele>
        <time>2014-03-26T09:37:57Z</time>
      </trkpt>
      <trkpt lat="49.02704" lon="6.90506">
        <ele>242.9</ele>
        <time>2014-03-26T09:38:02Z</time>
      </trkpt>
      <trkpt lat="49.02708" lon="6.90515">
        <ele>242.7</ele>
        <time>2014-03-26T09:38:07Z</time>
      </trkpt>
      <trkpt lat="49.02712" lon="6.90523">
        <ele>242.8</ele>
        <time>2014-03-26T09:38:12Z</time>
      </trkpt>
      <trkpt lat="49.02715" lon="6.90532">
        <ele>243</ele>
        <time>2014-03-26T09:38:17Z</time>
      </trkpt>
      <trkpt lat="49.02718" lon="6.9054">
        <ele>242.1</ele>
        <time>2014-03-26T09:38:22Z</time>
      </trkpt>
      <trkpt lat="49.02722" lon="6.90549">
        <ele>242.9</ele>
        <time>2014-03-26T09:38:27Z</time>
      </trkpt>
      <trkpt lat="49.02726" lon="6.90558">
        <ele>242.4</ele>
        <time>2014-03-26T09:38:32Z</time>
      </trkpt>
      <trkpt lat="49.02733" lon="6.90575">
        <ele>241.6</ele>
        <time>2014-03-26T09:38:42Z</time>
      </trkpt>
      <trkpt lat="49.02737" lon="6.90583">
        <ele>241.9</ele>
        <time>2014-03-26T09:38:47Z</time>
      </trkpt>
      <trkpt lat="49.0274" lon="6.90592">
        <ele>241.4</ele>
        <time>2014-03-26T09:38:52Z</time>
      </trkpt>
      <trkpt lat="49.02743" lon="6.906">
        <ele>241.7</ele>
        <time>2014-03-26T09:38:57Z</time>
      </trkpt>
      <trkpt lat="49.02747" lon="6.90608">
        <ele>241.5</ele>
        <time>2014-03-26T09:39:02Z</time>
      </trkpt>
      <trkpt lat="49.02751" lon="6.90617">
        <ele>241.2</ele>
        <time>2014-03-26T09:39:07Z</time>
      </trkpt>
      <trkpt lat="49.02754" lon="6.90625">
        <ele>241.4</ele>
        <time>2014-03-26T09:39:12Z</time>
      </trkpt>
      <trkpt lat="49.02758" lon="6.90634">
        <ele>241.5</ele>
        <time>2014-03-26T09:39:17Z</time>
      </trkpt>
      <trkpt lat="49.02761" lon="6.90643">
        <ele>241.9</ele>
        <time>2014-03-26T09:39:22Z</time>
      </trkpt>
      <trkpt lat="49.02764" lon="6.90652">
        <ele>241.8</ele>
        <time>2014-03-26T09:39:27Z</time>
      </trkpt>
      <trkpt lat="49.02768" lon="6.9066">
        <ele>241.7</ele>
        <time>2014-03-26T09:39:32Z</time>
      </trkpt>
      <trkpt lat="49.02773" lon="6.90668">
        <ele>241.1</ele>
        <time>2014-03-26T09:39:37Z</time>
      </trkpt>
      <trkpt lat="49.02785" lon="6.9067">
        <ele>241.7</ele>
        <time>2014-03-26T09:39:47Z</time>
      </trkpt>
      <trkpt lat="49.02791" lon="6.90665">
        <ele>241.6</ele>
        <time>2014-03-26T09:39:52Z</time>
      </trkpt>
      <trkpt lat="49.02796" lon="6.9066">
        <ele>242.1</ele>
        <time>2014-03-26T09:39:57Z</time>
      </trkpt>
      <trkpt lat="49.02802" lon="6.90655">
        <ele>241.3</ele>
        <time>2014-03-26T09:40:02Z</time>
      </trkpt>
      <trkpt lat="49.02807" lon="6.9065">
        <ele>241.8</ele>
        <time>2014-03-26T09:40:07Z</time>
      </trkpt>
      <trkpt lat="49.02812" lon="6.90645">
        <ele>241.2</ele>
        <time>2014-03-26T09:40:12Z</time>
      </trkpt>
      <trkpt lat="49.02817" lon="6.9064">
        <ele>240.6</ele>
        <time>2014-03-26T09:40:17Z</time>
      </trkpt>
      <trkpt lat="49.02822" lon="6.90636">
        <ele>240.8</ele>
        <time>2014-03-26T09:40:22Z</time>
      </trkpt>
      <trkpt lat="49.02826" lon="6.90633">
        <ele>240.1</ele>
        <time>2014-03-26T09:40:27Z</time>
      </trkpt>
      <trkpt lat="49.02831" lon="6.9063">
        <ele>239.7</ele>
        <time>2014-03-26T09:40:32Z</time>
      </trkpt>
      <trkpt lat="49.02837" lon="6.90628">
        <ele>239.6</ele>
        <time>2014-03-26T09:40:37Z</time>
      </trkpt>
      <trkpt lat="49.02843" lon="6.90624">
        <ele>239.4</ele>
        <time>2014-03-26T09:40:42Z</time>
      </trkpt>
      <trkpt lat="49.02856" lon="6.90615">
        <ele>238.1</ele>
        <time>2014-03-26T09:40:52Z</time>
      </trkpt>
      <trkpt lat="49.02862" lon="6.9061">
        <ele>237.8</ele>
        <time>2014-03-26T09:40:57Z</time>
      </trkpt>
      <trkpt lat="49.02868" lon="6.90605">
        <ele>237.4</ele>
        <time>2014-03-26T09:41:02Z</time>
      </trkpt>
      <trkpt lat="49.02874" lon="6.906">
        <ele>237.3</ele>
        <time>2014-03-26T09:41:07Z</time>
      </trkpt>
      <trkpt lat="49.0288" lon="6.90595">
        <ele>236.8</ele>
        <time>2014-03-26T09:41:12Z</time>
      </trkpt>
      <trkpt lat="49.02886" lon="6.90591">
        <ele>236.1</ele>
        <time>2014-03-26T09:41:17Z</time>
      </trkpt>
      <trkpt lat="49.02891" lon="6.90586">
        <ele>235.4</ele>
        <time>2014-03-26T09:41:22Z</time>
      </trkpt>
      <trkpt lat="49.02895" lon="6.90582">
        <ele>235.3</ele>
        <time>2014-03-26T09:41:27Z</time>
      </trkpt>
      <trkpt lat="49.02901" lon="6.90577">
        <ele>234.9</ele>
        <time>2014-03-26T09:41:32Z</time>
      </trkpt>
      <trkpt lat="49.02906" lon="6.90573">
        <ele>234.8</ele>
        <time>2014-03-26T09:41:37Z</time>
      </trkpt>
      <trkpt lat="49.02911" lon="6.90568">
        <ele>234.4</ele>
        <time>2014-03-26T09:41:42Z</time>
      </trkpt>
      <trkpt lat="49.02916" lon="6.90562">
        <ele>234.1</ele>
        <time>2014-03-26T09:41:47Z</time>
      </trkpt>
      <trkpt lat="49.02925" lon="6.90552">
        <ele>233.2</ele>
        <time>2014-03-26T09:41:57Z</time>
      </trkpt>
      <trkpt lat="49.02928" lon="6.9055">
        <ele>232.5</ele>
        <time>2014-03-26T09:42:02Z</time>
      </trkpt>
      <trkpt lat="49.02931" lon="6.90554">
        <ele>231.7</ele>
        <time>2014-03-26T09:42:07Z</time>
      </trkpt>
      <trkpt lat="49.02935" lon="6.90558">
        <ele>232.1</ele>
        <time>2014-03-26T09:42:12Z</time>
      </trkpt>
      <trkpt lat="49.02939" lon="6.90564">
        <ele>232.1</ele>
        <time>2014-03-26T09:42:17Z</time>
      </trkpt>
      <trkpt lat="49.02942" lon="6.9057">
        <ele>231.8</ele>
        <time>2014-03-26T09:42:22Z</time>
      </trkpt>
      <trkpt lat="49.02944" lon="6.90575">
        <ele>232.5</ele>
        <time>2014-03-26T09:42:27Z</time>
      </trkpt>
      <trkpt lat="49.02946" lon="6.90581">
        <ele>232.2</ele>
        <time>2014-03-26T09:42:32Z</time>
      </trkpt>
      <trkpt lat="49.02947" lon="6.90583">
        <ele>232.1</ele>
        <time>2014-03-26T09:42:37Z</time>
      </trkpt>
      <trkpt lat="49.02947" lon="6.90585">
        <ele>232.5</ele>
        <time>2014-03-26T09:42:42Z</time>
      </trkpt>
      <trkpt lat="49.02948" lon="6.90586">
        <ele>232.7</ele>
        <time>2014-03-26T09:42:47Z</time>
      </trkpt>
      <trkpt lat="49.02948" lon="6.90588">
        <ele>232</ele>
        <time>2014-03-26T09:42:54Z</time>
      </trkpt>
      <trkpt lat="49.02951" lon="6.90597">
        <ele>231.6</ele>
        <time>2014-03-26T09:43:06Z</time>
      </trkpt>
      <trkpt lat="49.02951" lon="6.90605">
        <ele>231.7</ele>
        <time>2014-03-26T09:43:11Z</time>
      </trkpt>
      <trkpt lat="49.02952" lon="6.90614">
        <ele>231.5</ele>
        <time>2014-03-26T09:43:16Z</time>
      </trkpt>
      <trkpt lat="49.02955" lon="6.90621">
        <ele>231.4</ele>
        <time>2014-03-26T09:43:21Z</time>
      </trkpt>
      <trkpt lat="49.0296" lon="6.90623">
        <ele>231.9</ele>
        <time>2014-03-26T09:43:26Z</time>
      </trkpt>
      <trkpt lat="49.02964" lon="6.90619">
        <ele>231</ele>
        <time>2014-03-26T09:43:31Z</time>
      </trkpt>
      <trkpt lat="49.02967" lon="6.90611">
        <ele>231.1</ele>
        <time>2014-03-26T09:43:36Z</time>
      </trkpt>
      <trkpt lat="49.0297" lon="6.90601">
        <ele>231.3</ele>
        <time>2014-03-26T09:43:41Z</time>
      </trkpt>
      <trkpt lat="49.02972" lon="6.90591">
        <ele>231.1</ele>
        <time>2014-03-26T09:43:46Z</time>
      </trkpt>
      <trkpt lat="49.02977" lon="6.90583">
        <ele>230.9</ele>
        <time>2014-03-26T09:43:51Z</time>
      </trkpt>
      <trkpt lat="49.02979" lon="6.90576">
        <ele>231.3</ele>
        <time>2014-03-26T09:43:56Z</time>
      </trkpt>
      <trkpt lat="49.02984" lon="6.90572">
        <ele>231.2</ele>
        <time>2014-03-26T09:44:01Z</time>
      </trkpt>
      <trkpt lat="49.02993" lon="6.90566">
        <ele>231.4</ele>
        <time>2014-03-26T09:44:11Z</time>
      </trkpt>
      <trkpt lat="49.02999" lon="6.90562">
        <ele>231.3</ele>
        <time>2014-03-26T09:44:16Z</time>
      </trkpt>
      <trkpt lat="49.03004" lon="6.90559">
        <ele>231.6</ele>
        <time>2014-03-26T09:44:21Z</time>
      </trkpt>
      <trkpt lat="49.0301" lon="6.90556">
        <ele>232.3</ele>
        <time>2014-03-26T09:44:26Z</time>
      </trkpt>
      <trkpt lat="49.03017" lon="6.90554">
        <ele>233.2</ele>
        <time>2014-03-26T09:44:31Z</time>
      </trkpt>
      <trkpt lat="49.03023" lon="6.90551">
        <ele>234.1</ele>
        <time>2014-03-26T09:44:36Z</time>
      </trkpt>
      <trkpt lat="49.03029" lon="6.90548">
        <ele>234.2</ele>
        <time>2014-03-26T09:44:41Z</time>
      </trkpt>
      <trkpt lat="49.03036" lon="6.90547">
        <ele>234.7</ele>
        <time>2014-03-26T09:44:46Z</time>
      </trkpt>
      <trkpt lat="49.03042" lon="6.90545">
        <ele>234.7</ele>
        <time>2014-03-26T09:44:51Z</time>
      </trkpt>
      <trkpt lat="49.03048" lon="6.90544">
        <ele>235.5</ele>
        <time>2014-03-26T09:44:56Z</time>
      </trkpt>
      <trkpt lat="49.03054" lon="6.90542">
        <ele>235.9</ele>
        <time>2014-03-26T09:45:01Z</time>
      </trkpt>
      <trkpt lat="49.0306" lon="6.90539">
        <ele>236</ele>
        <time>2014-03-26T09:45:06Z</time>
      </trkpt>
      <trkpt lat="49.03072" lon="6.90532">
        <ele>236.3</ele>
        <time>2014-03-26T09:45:16Z</time>
      </trkpt>
      <trkpt lat="49.03079" lon="6.9053">
        <ele>236</ele>
        <time>2014-03-26T09:45:21Z</time>
      </trkpt>
      <trkpt lat="49.03085" lon="6.90526">
        <ele>236</ele>
        <time>2014-03-26T09:45:26Z</time>
      </trkpt>
      <trkpt lat="49.03093" lon="6.90523">
        <ele>235.8</ele>
        <time>2014-03-26T09:45:31Z</time>
      </trkpt>
      <trkpt lat="49.031" lon="6.90519">
        <ele>235.8</ele>
        <time>2014-03-26T09:45:36Z</time>
      </trkpt>
      <trkpt lat="49.03107" lon="6.90515">
        <ele>234.9</ele>
        <time>2014-03-26T09:45:41Z</time>
      </trkpt>
      <trkpt lat="49.03115" lon="6.9051">
        <ele>234.4</ele>
        <time>2014-03-26T09:45:46Z</time>
      </trkpt>
      <trkpt lat="49.03123" lon="6.90507">
        <ele>234.1</ele>
        <time>2014-03-26T09:45:51Z</time>
      </trkpt>
      <trkpt lat="49.03129" lon="6.90503">
        <ele>233</ele>
        <time>2014-03-26T09:45:56Z</time>
      </trkpt>
      <trkpt lat="49.03136" lon="6.905">
        <ele>232.8</ele>
        <time>2014-03-26T09:46:01Z</time>
      </trkpt>
      <trkpt lat="49.03143" lon="6.90498">
        <ele>233.4</ele>
        <time>2014-03-26T09:46:06Z</time>
      </trkpt>
      <trkpt lat="49.0315" lon="6.90497">
        <ele>234</ele>
        <time>2014-03-26T09:46:11Z</time>
      </trkpt>
      <trkpt lat="49.0316" lon="6.90507">
        <ele>234.2</ele>
        <time>2014-03-26T09:46:21Z</time>
      </trkpt>
      <trkpt lat="49.03164" lon="6.90513">
        <ele>233.7</ele>
        <time>2014-03-26T09:46:26Z</time>
      </trkpt>
      <trkpt lat="49.03167" lon="6.90519">
        <ele>233.9</ele>
        <time>2014-03-26T09:46:31Z</time>
      </trkpt>
      <trkpt lat="49.03169" lon="6.90527">
        <ele>233.4</ele>
        <time>2014-03-26T09:46:36Z</time>
      </trkpt>
      <trkpt lat="49.03172" lon="6.90534">
        <ele>233.3</ele>
        <time>2014-03-26T09:46:41Z</time>
      </trkpt>
      <trkpt lat="49.03173" lon="6.90542">
        <ele>233</ele>
        <time>2014-03-26T09:46:46Z</time>
      </trkpt>
      <trkpt lat="49.03174" lon="6.90553">
        <ele>232.8</ele>
        <time>2014-03-26T09:46:51Z</time>
      </trkpt>
      <trkpt lat="49.03174" lon="6.90565">
        <ele>233.1</ele>
        <time>2014-03-26T09:46:56Z</time>
      </trkpt>
      <trkpt lat="49.03174" lon="6.90576">
        <ele>232.9</ele>
        <time>2014-03-26T09:47:01Z</time>
      </trkpt>
      <trkpt lat="49.03175" lon="6.90587">
        <ele>232.7</ele>
        <time>2014-03-26T09:47:06Z</time>
      </trkpt>
      <trkpt lat="49.03175" lon="6.90596">
        <ele>232.2</ele>
        <time>2014-03-26T09:47:11Z</time>
      </trkpt>
      <trkpt lat="49.03174" lon="6.90606">
        <ele>233.1</ele>
        <time>2014-03-26T09:47:16Z</time>
      </trkpt>
      <trkpt lat="49.03174" lon="6.90627">
        <ele>233.1</ele>
        <time>2014-03-26T09:47:26Z</time>
      </trkpt>
      <trkpt lat="49.03175" lon="6.90637">
        <ele>233</ele>
        <time>2014-03-26T09:47:31Z</time>
      </trkpt>
      <trkpt lat="49.03177" lon="6.90647">
        <ele>232.6</ele>
        <time>2014-03-26T09:47:36Z</time>
      </trkpt>
      <trkpt lat="49.03178" lon="6.90655">
        <ele>232.8</ele>
        <time>2014-03-26T09:47:41Z</time>
      </trkpt>
      <trkpt lat="49.03179" lon="6.90663">
        <ele>232.7</ele>
        <time>2014-03-26T09:47:46Z</time>
      </trkpt>
      <trkpt lat="49.03179" lon="6.90672">
        <ele>232.6</ele>
        <time>2014-03-26T09:47:51Z</time>
      </trkpt>
      <trkpt lat="49.0318" lon="6.90681">
        <ele>232.7</ele>
        <time>2014-03-26T09:47:56Z</time>
      </trkpt>
      <trkpt lat="49.0318" lon="6.90691">
        <ele>231.9</ele>
        <time>2014-03-26T09:48:01Z</time>
      </trkpt>
      <trkpt lat="49.0318" lon="6.907">
        <ele>231.5</ele>
        <time>2014-03-26T09:48:06Z</time>
      </trkpt>
      <trkpt lat="49.03179" lon="6.90709">
        <ele>231</ele>
        <time>2014-03-26T09:48:11Z</time>
      </trkpt>
      <trkpt lat="49.0318" lon="6.90717">
        <ele>231.6</ele>
        <time>2014-03-26T09:48:16Z</time>
      </trkpt>
      <trkpt lat="49.0318" lon="6.90726">
        <ele>231.3</ele>
        <time>2014-03-26T09:48:21Z</time>
      </trkpt>
      <trkpt lat="49.0318" lon="6.90744">
        <ele>231</ele>
        <time>2014-03-26T09:48:31Z</time>
      </trkpt>
      <trkpt lat="49.0318" lon="6.90755">
        <ele>230.9</ele>
        <time>2014-03-26T09:48:36Z</time>
      </trkpt>
      <trkpt lat="49.0318" lon="6.90765">
        <ele>231.4</ele>
        <time>2014-03-26T09:48:41Z</time>
      </trkpt>
      <trkpt lat="49.03181" lon="6.90777">
        <ele>231.7</ele>
        <time>2014-03-26T09:48:46Z</time>
      </trkpt>
      <trkpt lat="49.03183" lon="6.90788">
        <ele>232</ele>
        <time>2014-03-26T09:48:51Z</time>
      </trkpt>
      <trkpt lat="49.03184" lon="6.90797">
        <ele>232.1</ele>
        <time>2014-03-26T09:48:56Z</time>
      </trkpt>
      <trkpt lat="49.03187" lon="6.90806">
        <ele>232.4</ele>
        <time>2014-03-26T09:49:01Z</time>
      </trkpt>
      <trkpt lat="49.03189" lon="6.90814">
        <ele>233.2</ele>
        <time>2014-03-26T09:49:06Z</time>
      </trkpt>
      <trkpt lat="49.03192" lon="6.90821">
        <ele>233</ele>
        <time>2014-03-26T09:49:11Z</time>
      </trkpt>
      <trkpt lat="49.03196" lon="6.90829">
        <ele>232.9</ele>
        <time>2014-03-26T09:49:16Z</time>
      </trkpt>
      <trkpt lat="49.03199" lon="6.90836">
        <ele>233.6</ele>
        <time>2014-03-26T09:49:21Z</time>
      </trkpt>
      <trkpt lat="49.03203" lon="6.90843">
        <ele>233</ele>
        <time>2014-03-26T09:49:26Z</time>
      </trkpt>
      <trkpt lat="49.03213" lon="6.90856">
        <ele>232.7</ele>
        <time>2014-03-26T09:49:36Z</time>
      </trkpt>
      <trkpt lat="49.03217" lon="6.90864">
        <ele>232.8</ele>
        <time>2014-03-26T09:49:41Z</time>
      </trkpt>
      <trkpt lat="49.03222" lon="6.90871">
        <ele>232.7</ele>
        <time>2014-03-26T09:49:46Z</time>
      </trkpt>
      <trkpt lat="49.03225" lon="6.9088">
        <ele>232.3</ele>
        <time>2014-03-26T09:49:51Z</time>
      </trkpt>
      <trkpt lat="49.03228" lon="6.9089">
        <ele>232.1</ele>
        <time>2014-03-26T09:49:56Z</time>
      </trkpt>
      <trkpt lat="49.03231" lon="6.909">
        <ele>232</ele>
        <time>2014-03-26T09:50:01Z</time>
      </trkpt>
      <trkpt lat="49.03233" lon="6.90909">
        <ele>232</ele>
        <time>2014-03-26T09:50:06Z</time>
      </trkpt>
      <trkpt lat="49.03236" lon="6.90919">
        <ele>231.3</ele>
        <time>2014-03-26T09:50:11Z</time>
      </trkpt>
      <trkpt lat="49.03239" lon="6.90931">
        <ele>231.4</ele>
        <time>2014-03-26T09:50:16Z</time>
      </trkpt>
      <trkpt lat="49.03242" lon="6.90943">
        <ele>231.6</ele>
        <time>2014-03-26T09:50:21Z</time>
      </trkpt>
      <trkpt lat="49.03245" lon="6.90954">
        <ele>231.8</ele>
        <time>2014-03-26T09:50:26Z</time>
      </trkpt>
      <trkpt lat="49.03245" lon="6.90966">
        <ele>231.2</ele>
        <time>2014-03-26T09:50:31Z</time>
      </trkpt>
      <trkpt lat="49.03242" lon="6.90992">
        <ele>231.6</ele>
        <time>2014-03-26T09:50:41Z</time>
      </trkpt>
      <trkpt lat="49.03239" lon="6.91004">
        <ele>231.4</ele>
        <time>2014-03-26T09:50:46Z</time>
      </trkpt>
      <trkpt lat="49.03235" lon="6.91016">
        <ele>230.9</ele>
        <time>2014-03-26T09:50:51Z</time>
      </trkpt>
      <trkpt lat="49.03232" lon="6.91026">
        <ele>231.3</ele>
        <time>2014-03-26T09:50:56Z</time>
      </trkpt>
      <trkpt lat="49.03229" lon="6.91037">
        <ele>231.1</ele>
        <time>2014-03-26T09:51:01Z</time>
      </trkpt>
      <trkpt lat="49.03226" lon="6.91048">
        <ele>231.4</ele>
        <time>2014-03-26T09:51:06Z</time>
      </trkpt>
      <trkpt lat="49.03222" lon="6.91057">
        <ele>231.4</ele>
        <time>2014-03-26T09:51:11Z</time>
      </trkpt>
      <trkpt lat="49.03217" lon="6.91066">
        <ele>231.8</ele>
        <time>2014-03-26T09:51:16Z</time>
      </trkpt>
      <trkpt lat="49.03212" lon="6.91074">
        <ele>231.3</ele>
        <time>2014-03-26T09:51:21Z</time>
      </trkpt>
      <trkpt lat="49.03207" lon="6.91082">
        <ele>231.6</ele>
        <time>2014-03-26T09:51:26Z</time>
      </trkpt>
      <trkpt lat="49.03203" lon="6.91089">
        <ele>231.2</ele>
        <time>2014-03-26T09:51:31Z</time>
      </trkpt>
      <trkpt lat="49.03199" lon="6.91096">
        <ele>231.1</ele>
        <time>2014-03-26T09:51:36Z</time>
      </trkpt>
      <trkpt lat="49.03193" lon="6.91108">
        <ele>231.4</ele>
        <time>2014-03-26T09:51:46Z</time>
      </trkpt>
      <trkpt lat="49.0319" lon="6.91114">
        <ele>231.5</ele>
        <time>2014-03-26T09:51:51Z</time>
      </trkpt>
      <trkpt lat="49.03187" lon="6.9112">
        <ele>231</ele>
        <time>2014-03-26T09:51:56Z</time>
      </trkpt>
      <trkpt lat="49.03184" lon="6.91127">
        <ele>231.2</ele>
        <time>2014-03-26T09:52:01Z</time>
      </trkpt>
      <trkpt lat="49.03182" lon="6.91133">
        <ele>231.1</ele>
        <time>2014-03-26T09:52:06Z</time>
      </trkpt>
      <trkpt lat="49.03181" lon="6.91139">
        <ele>231.3</ele>
        <time>2014-03-26T09:52:11Z</time>
      </trkpt>
      <trkpt lat="49.03179" lon="6.91146">
        <ele>231.5</ele>
        <time>2014-03-26T09:52:16Z</time>
      </trkpt>
      <trkpt lat="49.03178" lon="6.91154">
        <ele>231</ele>
        <time>2014-03-26T09:52:21Z</time>
      </trkpt>
      <trkpt lat="49.03176" lon="6.91162">
        <ele>230.8</ele>
        <time>2014-03-26T09:52:26Z</time>
      </trkpt>
      <trkpt lat="49.03175" lon="6.91169">
        <ele>231.3</ele>
        <time>2014-03-26T09:52:31Z</time>
      </trkpt>
      <trkpt lat="49.03173" lon="6.91177">
        <ele>230.9</ele>
        <time>2014-03-26T09:52:36Z</time>
      </trkpt>
      <trkpt lat="49.03173" lon="6.91186">
        <ele>231</ele>
        <time>2014-03-26T09:52:41Z</time>
      </trkpt>
      <trkpt lat="49.03172" lon="6.91206">
        <ele>231.8</ele>
        <time>2014-03-26T09:52:51Z</time>
      </trkpt>
      <trkpt lat="49.0317" lon="6.91217">
        <ele>232.1</ele>
        <time>2014-03-26T09:52:56Z</time>
      </trkpt>
      <trkpt lat="49.03169" lon="6.91227">
        <ele>231.3</ele>
        <time>2014-03-26T09:53:01Z</time>
      </trkpt>
      <trkpt lat="49.03167" lon="6.91238">
        <ele>231.6</ele>
        <time>2014-03-26T09:53:06Z</time>
      </trkpt>
      <trkpt lat="49.03166" lon="6.91249">
        <ele>231.7</ele>
        <time>2014-03-26T09:53:11Z</time>
      </trkpt>
      <trkpt lat="49.03165" lon="6.9126">
        <ele>231.8</ele>
        <time>2014-03-26T09:53:16Z</time>
      </trkpt>
      <trkpt lat="49.03163" lon="6.91272">
        <ele>231.7</ele>
        <time>2014-03-26T09:53:21Z</time>
      </trkpt>
      <trkpt lat="49.03161" lon="6.91285">
        <ele>231.8</ele>
        <time>2014-03-26T09:53:26Z</time>
      </trkpt>
      <trkpt lat="49.03159" lon="6.91297">
        <ele>232.2</ele>
        <time>2014-03-26T09:53:31Z</time>
      </trkpt>
      <trkpt lat="49.03157" lon="6.91309">
        <ele>231.8</ele>
        <time>2014-03-26T09:53:36Z</time>
      </trkpt>
      <trkpt lat="49.03155" lon="6.91321">
        <ele>231.5</ele>
        <time>2014-03-26T09:53:41Z</time>
      </trkpt>
      <trkpt lat="49.03153" lon="6.91332">
        <ele>231.5</ele>
        <time>2014-03-26T09:53:46Z</time>
      </trkpt>
      <trkpt lat="49.03148" lon="6.91354">
        <ele>231.8</ele>
        <time>2014-03-26T09:53:56Z</time>
      </trkpt>
      <trkpt lat="49.03146" lon="6.91366">
        <ele>231.6</ele>
        <time>2014-03-26T09:54:01Z</time>
      </trkpt>
      <trkpt lat="49.03144" lon="6.91378">
        <ele>231.6</ele>
        <time>2014-03-26T09:54:06Z</time>
      </trkpt>
      <trkpt lat="49.03141" lon="6.91389">
        <ele>231.8</ele>
        <time>2014-03-26T09:54:11Z</time>
      </trkpt>
      <trkpt lat="49.03138" lon="6.91399">
        <ele>232.1</ele>
        <time>2014-03-26T09:54:16Z</time>
      </trkpt>
      <trkpt lat="49.03137" lon="6.9141">
        <ele>232.1</ele>
        <time>2014-03-26T09:54:21Z</time>
      </trkpt>
      <trkpt lat="49.03135" lon="6.9142">
        <ele>231.6</ele>
        <time>2014-03-26T09:54:26Z</time>
      </trkpt>
      <trkpt lat="49.03133" lon="6.9143">
        <ele>231.5</ele>
        <time>2014-03-26T09:54:31Z</time>
      </trkpt>
      <trkpt lat="49.03132" lon="6.91441">
        <ele>231.9</ele>
        <time>2014-03-26T09:54:36Z</time>
      </trkpt>
      <trkpt lat="49.03131" lon="6.9145">
        <ele>232.2</ele>
        <time>2014-03-26T09:54:41Z</time>
      </trkpt>
      <trkpt lat="49.0313" lon="6.91458">
        <ele>232.1</ele>
        <time>2014-03-26T09:54:46Z</time>
      </trkpt>
      <trkpt lat="49.03129" lon="6.91467">
        <ele>232.2</ele>
        <time>2014-03-26T09:54:51Z</time>
      </trkpt>
      <trkpt lat="49.03127" lon="6.91486">
        <ele>232.3</ele>
        <time>2014-03-26T09:55:01Z</time>
      </trkpt>
      <trkpt lat="49.03126" lon="6.91495">
        <ele>231.7</ele>
        <time>2014-03-26T09:55:06Z</time>
      </trkpt>
      <trkpt lat="49.03125" lon="6.91505">
        <ele>231.9</ele>
        <time>2014-03-26T09:55:11Z</time>
      </trkpt>
      <trkpt lat="49.03124" lon="6.91514">
        <ele>230.9</ele>
        <time>2014-03-26T09:55:16Z</time>
      </trkpt>
      <trkpt lat="49.03123" lon="6.91522">
        <ele>232.1</ele>
        <time>2014-03-26T09:55:21Z</time>
      </trkpt>
      <trkpt lat="49.03123" lon="6.91528">
        <ele>232.1</ele>
        <time>2014-03-26T09:55:26Z</time>
      </trkpt>
      <trkpt lat="49.03122" lon="6.91534">
        <ele>232.2</ele>
        <time>2014-03-26T09:55:31Z</time>
      </trkpt>
      <trkpt lat="49.03122" lon="6.91541">
        <ele>232.1</ele>
        <time>2014-03-26T09:55:36Z</time>
      </trkpt>
      <trkpt lat="49.03122" lon="6.91547">
        <ele>232.5</ele>
        <time>2014-03-26T09:55:41Z</time>
      </trkpt>
      <trkpt lat="49.0312" lon="6.91553">
        <ele>232.6</ele>
        <time>2014-03-26T09:55:46Z</time>
      </trkpt>
      <trkpt lat="49.03118" lon="6.91558">
        <ele>233.4</ele>
        <time>2014-03-26T09:55:51Z</time>
      </trkpt>
      <trkpt lat="49.03116" lon="6.91566">
        <ele>232.5</ele>
        <time>2014-03-26T09:55:56Z</time>
      </trkpt>
      <trkpt lat="49.0311" lon="6.9158">
        <ele>232.5</ele>
        <time>2014-03-26T09:56:06Z</time>
      </trkpt>
      <trkpt lat="49.03107" lon="6.91586">
        <ele>232.7</ele>
        <time>2014-03-26T09:56:11Z</time>
      </trkpt>
      <trkpt lat="49.03105" lon="6.91592">
        <ele>232.4</ele>
        <time>2014-03-26T09:56:16Z</time>
      </trkpt>
      <trkpt lat="49.03103" lon="6.91597">
        <ele>232.3</ele>
        <time>2014-03-26T09:56:21Z</time>
      </trkpt>
      <trkpt lat="49.03101" lon="6.91599">
        <ele>232.2</ele>
        <time>2014-03-26T09:56:26Z</time>
      </trkpt>
      <trkpt lat="49.03099" lon="6.91603">
        <ele>233.1</ele>
        <time>2014-03-26T09:56:31Z</time>
      </trkpt>
      <trkpt lat="49.03097" lon="6.91607">
        <ele>232.5</ele>
        <time>2014-03-26T09:56:36Z</time>
      </trkpt>
      <trkpt lat="49.03094" lon="6.91613">
        <ele>232.6</ele>
        <time>2014-03-26T09:56:41Z</time>
      </trkpt>
      <trkpt lat="49.03092" lon="6.9162">
        <ele>232.7</ele>
        <time>2014-03-26T09:56:46Z</time>
      </trkpt>
      <trkpt lat="49.0309" lon="6.91626">
        <ele>233</ele>
        <time>2014-03-26T09:56:51Z</time>
      </trkpt>
      <trkpt lat="49.03087" lon="6.91633">
        <ele>231.9</ele>
        <time>2014-03-26T09:56:56Z</time>
      </trkpt>
      <trkpt lat="49.03086" lon="6.91639">
        <ele>232.5</ele>
        <time>2014-03-26T09:57:01Z</time>
      </trkpt>
      <trkpt lat="49.03081" lon="6.91653">
        <ele>232.8</ele>
        <time>2014-03-26T09:57:11Z</time>
      </trkpt>
      <trkpt lat="49.03079" lon="6.91661">
        <ele>232.3</ele>
        <time>2014-03-26T09:57:16Z</time>
      </trkpt>
      <trkpt lat="49.03077" lon="6.91669">
        <ele>231.9</ele>
        <time>2014-03-26T09:57:21Z</time>
      </trkpt>
      <trkpt lat="49.03074" lon="6.91678">
        <ele>231.6</ele>
        <time>2014-03-26T09:57:26Z</time>
      </trkpt>
      <trkpt lat="49.03072" lon="6.91687">
        <ele>232.1</ele>
        <time>2014-03-26T09:57:31Z</time>
      </trkpt>
      <trkpt lat="49.0307" lon="6.91696">
        <ele>232.8</ele>
        <time>2014-03-26T09:57:36Z</time>
      </trkpt>
      <trkpt lat="49.03067" lon="6.91704">
        <ele>233</ele>
        <time>2014-03-26T09:57:41Z</time>
      </trkpt>
      <trkpt lat="49.03065" lon="6.91713">
        <ele>233</ele>
        <time>2014-03-26T09:57:46Z</time>
      </trkpt>
      <trkpt lat="49.03062" lon="6.91722">
        <ele>233</ele>
        <time>2014-03-26T09:57:51Z</time>
      </trkpt>
      <trkpt lat="49.03061" lon="6.91731">
        <ele>233.2</ele>
        <time>2014-03-26T09:57:56Z</time>
      </trkpt>
      <trkpt lat="49.03059" lon="6.9174">
        <ele>233</ele>
        <time>2014-03-26T09:58:01Z</time>
      </trkpt>
      <trkpt lat="49.03057" lon="6.91749">
        <ele>232.7</ele>
        <time>2014-03-26T09:58:06Z</time>
      </trkpt>
      <trkpt lat="49.03053" lon="6.91768">
        <ele>232.9</ele>
        <time>2014-03-26T09:58:16Z</time>
      </trkpt>
      <trkpt lat="49.03051" lon="6.91777">
        <ele>232.5</ele>
        <time>2014-03-26T09:58:21Z</time>
      </trkpt>
      <trkpt lat="49.0305" lon="6.91786">
        <ele>232.6</ele>
        <time>2014-03-26T09:58:26Z</time>
      </trkpt>
      <trkpt lat="49.03048" lon="6.91795">
        <ele>233.4</ele>
        <time>2014-03-26T09:58:31Z</time>
      </trkpt>
      <trkpt lat="49.03046" lon="6.91804">
        <ele>233.3</ele>
        <time>2014-03-26T09:58:36Z</time>
      </trkpt>
      <trkpt lat="49.03044" lon="6.91812">
        <ele>232.8</ele>
        <time>2014-03-26T09:58:41Z</time>
      </trkpt>
      <trkpt lat="49.03043" lon="6.91821">
        <ele>233.1</ele>
        <time>2014-03-26T09:58:46Z</time>
      </trkpt>
      <trkpt lat="49.03041" lon="6.91831">
        <ele>232.9</ele>
        <time>2014-03-26T09:58:51Z</time>
      </trkpt>
      <trkpt lat="49.03039" lon="6.91841">
        <ele>232.8</ele>
        <time>2014-03-26T09:58:56Z</time>
      </trkpt>
      <trkpt lat="49.03038" lon="6.91851">
        <ele>232.6</ele>
        <time>2014-03-26T09:59:01Z</time>
      </trkpt>
      <trkpt lat="49.03037" lon="6.91862">
        <ele>233.2</ele>
        <time>2014-03-26T09:59:06Z</time>
      </trkpt>
      <trkpt lat="49.03037" lon="6.91872">
        <ele>233.9</ele>
        <time>2014-03-26T09:59:11Z</time>
      </trkpt>
      <trkpt lat="49.0304" lon="6.9189">
        <ele>234.6</ele>
        <time>2014-03-26T09:59:21Z</time>
      </trkpt>
      <trkpt lat="49.03041" lon="6.919">
        <ele>234.9</ele>
        <time>2014-03-26T09:59:26Z</time>
      </trkpt>
      <trkpt lat="49.03043" lon="6.91909">
        <ele>235.5</ele>
        <time>2014-03-26T09:59:31Z</time>
      </trkpt>
      <trkpt lat="49.03045" lon="6.91919">
        <ele>236</ele>
        <time>2014-03-26T09:59:36Z</time>
      </trkpt>
      <trkpt lat="49.03047" lon="6.91926">
        <ele>236.1</ele>
        <time>2014-03-26T09:59:41Z</time>
      </trkpt>
      <trkpt lat="49.03047" lon="6.91933">
        <ele>236.8</ele>
        <time>2014-03-26T09:59:46Z</time>
      </trkpt>
      <trkpt lat="49.03048" lon="6.91943">
        <ele>237</ele>
        <time>2014-03-26T09:59:51Z</time>
      </trkpt>
      <trkpt lat="49.03046" lon="6.91953">
        <ele>237.4</ele>
        <time>2014-03-26T09:59:56Z</time>
      </trkpt>
      <trkpt lat="49.03043" lon="6.91961">
        <ele>236.7</ele>
        <time>2014-03-26T10:00:01Z</time>
      </trkpt>
      <trkpt lat="49.03039" lon="6.91969">
        <ele>236.6</ele>
        <time>2014-03-26T10:00:06Z</time>
      </trkpt>
      <trkpt lat="49.03034" lon="6.91977">
        <ele>235.8</ele>
        <time>2014-03-26T10:00:11Z</time>
      </trkpt>
      <trkpt lat="49.03028" lon="6.91982">
        <ele>235.6</ele>
        <time>2014-03-26T10:00:16Z</time>
      </trkpt>
      <trkpt lat="49.03016" lon="6.91987">
        <ele>235.2</ele>
        <time>2014-03-26T10:00:26Z</time>
      </trkpt>
      <trkpt lat="49.03011" lon="6.91989">
        <ele>234.2</ele>
        <time>2014-03-26T10:00:31Z</time>
      </trkpt>
      <trkpt lat="49.03007" lon="6.91993">
        <ele>234.7</ele>
        <time>2014-03-26T10:00:36Z</time>
      </trkpt>
      <trkpt lat="49.03003" lon="6.91998">
        <ele>233.6</ele>
        <time>2014-03-26T10:00:41Z</time>
      </trkpt>
      <trkpt lat="49.03" lon="6.92004">
        <ele>233.5</ele>
        <time>2014-03-26T10:00:46Z</time>
      </trkpt>
      <trkpt lat="49.02996" lon="6.92009">
        <ele>234.3</ele>
        <time>2014-03-26T10:00:51Z</time>
      </trkpt>
      <trkpt lat="49.02993" lon="6.92015">
        <ele>234.1</ele>
        <time>2014-03-26T10:00:56Z</time>
      </trkpt>
      <trkpt lat="49.02991" lon="6.92023">
        <ele>234.2</ele>
        <time>2014-03-26T10:01:01Z</time>
      </trkpt>
      <trkpt lat="49.02989" lon="6.92031">
        <ele>234.6</ele>
        <time>2014-03-26T10:01:06Z</time>
      </trkpt>
      <trkpt lat="49.02986" lon="6.92039">
        <ele>234.2</ele>
        <time>2014-03-26T10:01:11Z</time>
      </trkpt>
      <trkpt lat="49.02983" lon="6.92047">
        <ele>234.8</ele>
        <time>2014-03-26T10:01:16Z</time>
      </trkpt>
      <trkpt lat="49.0298" lon="6.92056">
        <ele>235.2</ele>
        <time>2014-03-26T10:01:21Z</time>
      </trkpt>
      <trkpt lat="49.02975" lon="6.92079">
        <ele>235.5</ele>
        <time>2014-03-26T10:01:31Z</time>
      </trkpt>
      <trkpt lat="49.02974" lon="6.92089">
        <ele>234.9</ele>
        <time>2014-03-26T10:01:36Z</time>
      </trkpt>
      <trkpt lat="49.02973" lon="6.92098">
        <ele>234.7</ele>
        <time>2014-03-26T10:01:41Z</time>
      </trkpt>
      <trkpt lat="49.02972" lon="6.92109">
        <ele>235.3</ele>
        <time>2014-03-26T10:01:46Z</time>
      </trkpt>
      <trkpt lat="49.0297" lon="6.92118">
        <ele>234.9</ele>
        <time>2014-03-26T10:01:51Z</time>
      </trkpt>
      <trkpt lat="49.02967" lon="6.92128">
        <ele>234.5</ele>
        <time>2014-03-26T10:01:56Z</time>
      </trkpt>
      <trkpt lat="49.02964" lon="6.92138">
        <ele>234.6</ele>
        <time>2014-03-26T10:02:01Z</time>
      </trkpt>
      <trkpt lat="49.02962" lon="6.92148">
        <ele>234.5</ele>
        <time>2014-03-26T10:02:06Z</time>
      </trkpt>
      <trkpt lat="49.0296" lon="6.9216">
        <ele>234.2</ele>
        <time>2014-03-26T10:02:11Z</time>
      </trkpt>
      <trkpt lat="49.02959" lon="6.9217">
        <ele>234.1</ele>
        <time>2014-03-26T10:02:16Z</time>
      </trkpt>
      <trkpt lat="49.0296" lon="6.92179">
        <ele>234.7</ele>
        <time>2014-03-26T10:02:21Z</time>
      </trkpt>
      <trkpt lat="49.02962" lon="6.92188">
        <ele>234.3</ele>
        <time>2014-03-26T10:02:26Z</time>
      </trkpt>
      <trkpt lat="49.02967" lon="6.92205">
        <ele>233.1</ele>
        <time>2014-03-26T10:02:36Z</time>
      </trkpt>
      <trkpt lat="49.02971" lon="6.92212">
        <ele>233.3</ele>
        <time>2014-03-26T10:02:41Z</time>
      </trkpt>
      <trkpt lat="49.02975" lon="6.92219">
        <ele>233</ele>
        <time>2014-03-26T10:02:46Z</time>
      </trkpt>
      <trkpt lat="49.0298" lon="6.92228">
        <ele>233.1</ele>
        <time>2014-03-26T10:02:51Z</time>
      </trkpt>
      <trkpt lat="49.02984" lon="6.92235">
        <ele>232.2</ele>
        <time>2014-03-26T10:02:56Z</time>
      </trkpt>
      <trkpt lat="49.02988" lon="6.92239">
        <ele>232.1</ele>
        <time>2014-03-26T10:03:01Z</time>
      </trkpt>
      <trkpt lat="49.02992" lon="6.92241">
        <ele>231.9</ele>
        <time>2014-03-26T10:03:06Z</time>
      </trkpt>
      <trkpt lat="49.02999" lon="6.9224">
        <ele>232.5</ele>
        <time>2014-03-26T10:03:11Z</time>
      </trkpt>
      <trkpt lat="49.03005" lon="6.92238">
        <ele>232.9</ele>
        <time>2014-03-26T10:03:16Z</time>
      </trkpt>
      <trkpt lat="49.03011" lon="6.92236">
        <ele>232.9</ele>
        <time>2014-03-26T10:03:21Z</time>
      </trkpt>
      <trkpt lat="49.03016" lon="6.92233">
        <ele>233.3</ele>
        <time>2014-03-26T10:03:26Z</time>
      </trkpt>
      <trkpt lat="49.03022" lon="6.92229">
        <ele>232.6</ele>
        <time>2014-03-26T10:03:31Z</time>
      </trkpt>
      <trkpt lat="49.03033" lon="6.92219">
        <ele>232.6</ele>
        <time>2014-03-26T10:03:41Z</time>
      </trkpt>
      <trkpt lat="49.03038" lon="6.92214">
        <ele>232.5</ele>
        <time>2014-03-26T10:03:46Z</time>
      </trkpt>
      <trkpt lat="49.03043" lon="6.92207">
        <ele>232.7</ele>
        <time>2014-03-26T10:03:51Z</time>
      </trkpt>
      <trkpt lat="49.03048" lon="6.922">
        <ele>232.7</ele>
        <time>2014-03-26T10:03:56Z</time>
      </trkpt>
      <trkpt lat="49.03052" lon="6.92194">
        <ele>233.4</ele>
        <time>2014-03-26T10:04:01Z</time>
      </trkpt>
      <trkpt lat="49.03056" lon="6.92186">
        <ele>233</ele>
        <time>2014-03-26T10:04:06Z</time>
      </trkpt>
      <trkpt lat="49.03061" lon="6.92179">
        <ele>232.2</ele>
        <time>2014-03-26T10:04:11Z</time>
      </trkpt>
      <trkpt lat="49.03065" lon="6.92172">
        <ele>232.3</ele>
        <time>2014-03-26T10:04:16Z</time>
      </trkpt>
      <trkpt lat="49.03069" lon="6.92164">
        <ele>232.4</ele>
        <time>2014-03-26T10:04:21Z</time>
      </trkpt>
      <trkpt lat="49.03073" lon="6.92157">
        <ele>232.7</ele>
        <time>2014-03-26T10:04:26Z</time>
      </trkpt>
      <trkpt lat="49.03077" lon="6.9215">
        <ele>233</ele>
        <time>2014-03-26T10:04:31Z</time>
      </trkpt>
      <trkpt lat="49.03081" lon="6.92143">
        <ele>232.6</ele>
        <time>2014-03-26T10:04:36Z</time>
      </trkpt>
      <trkpt lat="49.03091" lon="6.92129">
        <ele>232.8</ele>
        <time>2014-03-26T10:04:46Z</time>
      </trkpt>
      <trkpt lat="49.03096" lon="6.9212">
        <ele>232.7</ele>
        <time>2014-03-26T10:04:51Z</time>
      </trkpt>
      <trkpt lat="49.031" lon="6.92113">
        <ele>232.9</ele>
        <time>2014-03-26T10:04:56Z</time>
      </trkpt>
      <trkpt lat="49.03104" lon="6.92108">
        <ele>233</ele>
        <time>2014-03-26T10:05:01Z</time>
      </trkpt>
      <trkpt lat="49.03109" lon="6.92105">
        <ele>232.8</ele>
        <time>2014-03-26T10:05:06Z</time>
      </trkpt>
      <trkpt lat="49.03115" lon="6.92104">
        <ele>232.6</ele>
        <time>2014-03-26T10:05:11Z</time>
      </trkpt>
      <trkpt lat="49.0312" lon="6.92103">
        <ele>232.6</ele>
        <time>2014-03-26T10:05:16Z</time>
      </trkpt>
      <trkpt lat="49.03123" lon="6.92104">
        <ele>232.4</ele>
        <time>2014-03-26T10:05:21Z</time>
      </trkpt>
      <trkpt lat="49.03125" lon="6.92108">
        <ele>232.7</ele>
        <time>2014-03-26T10:05:26Z</time>
      </trkpt>
      <trkpt lat="49.03125" lon="6.92113">
        <ele>232.6</ele>
        <time>2014-03-26T10:05:31Z</time>
      </trkpt>
      <trkpt lat="49.03123" lon="6.9212">
        <ele>232.7</ele>
        <time>2014-03-26T10:05:36Z</time>
      </trkpt>
      <trkpt lat="49.03123" lon="6.92127">
        <ele>232.3</ele>
        <time>2014-03-26T10:05:41Z</time>
      </trkpt>
      <trkpt lat="49.03125" lon="6.92143">
        <ele>232.4</ele>
        <time>2014-03-26T10:05:51Z</time>
      </trkpt>
      <trkpt lat="49.03127" lon="6.9215">
        <ele>231.9</ele>
        <time>2014-03-26T10:05:56Z</time>
      </trkpt>
      <trkpt lat="49.03128" lon="6.92157">
        <ele>231.5</ele>
        <time>2014-03-26T10:06:01Z</time>
      </trkpt>
      <trkpt lat="49.0313" lon="6.92164">
        <ele>231.9</ele>
        <time>2014-03-26T10:06:06Z</time>
      </trkpt>
      <trkpt lat="49.03131" lon="6.92172">
        <ele>231.9</ele>
        <time>2014-03-26T10:06:11Z</time>
      </trkpt>
      <trkpt lat="49.03131" lon="6.92183">
        <ele>231.9</ele>
        <time>2014-03-26T10:06:16Z</time>
      </trkpt>
      <trkpt lat="49.03131" lon="6.92192">
        <ele>232.2</ele>
        <time>2014-03-26T10:06:21Z</time>
      </trkpt>
      <trkpt lat="49.0313" lon="6.922">
        <ele>231.6</ele>
        <time>2014-03-26T10:06:26Z</time>
      </trkpt>
      <trkpt lat="49.0313" lon="6.92209">
        <ele>232.4</ele>
        <time>2014-03-26T10:06:31Z</time>
      </trkpt>
      <trkpt lat="49.03129" lon="6.92218">
        <ele>232.9</ele>
        <time>2014-03-26T10:06:36Z</time>
      </trkpt>
      <trkpt lat="49.03126" lon="6.92227">
        <ele>232.3</ele>
        <time>2014-03-26T10:06:41Z</time>
      </trkpt>
      <trkpt lat="49.03123" lon="6.92237">
        <ele>231.7</ele>
        <time>2014-03-26T10:06:46Z</time>
      </trkpt>
      <trkpt lat="49.03115" lon="6.92259">
        <ele>231.9</ele>
        <time>2014-03-26T10:06:56Z</time>
      </trkpt>
      <trkpt lat="49.03111" lon="6.92269">
        <ele>232</ele>
        <time>2014-03-26T10:07:01Z</time>
      </trkpt>
      <trkpt lat="49.03107" lon="6.9228">
        <ele>232.2</ele>
        <time>2014-03-26T10:07:06Z</time>
      </trkpt>
      <trkpt lat="49.03102" lon="6.9229">
        <ele>232.1</ele>
        <time>2014-03-26T10:07:11Z</time>
      </trkpt>
      <trkpt lat="49.03098" lon="6.92299">
        <ele>232.8</ele>
        <time>2014-03-26T10:07:16Z</time>
      </trkpt>
      <trkpt lat="49.03094" lon="6.92309">
        <ele>232.7</ele>
        <time>2014-03-26T10:07:21Z</time>
      </trkpt>
      <trkpt lat="49.0309" lon="6.92319">
        <ele>232.8</ele>
        <time>2014-03-26T10:07:26Z</time>
      </trkpt>
      <trkpt lat="49.03086" lon="6.92328">
        <ele>232.4</ele>
        <time>2014-03-26T10:07:31Z</time>
      </trkpt>
      <trkpt lat="49.03084" lon="6.92337">
        <ele>232.2</ele>
        <time>2014-03-26T10:07:36Z</time>
      </trkpt>
      <trkpt lat="49.03081" lon="6.92346">
        <ele>232.5</ele>
        <time>2014-03-26T10:07:41Z</time>
      </trkpt>
      <trkpt lat="49.03079" lon="6.92355">
        <ele>232.1</ele>
        <time>2014-03-26T10:07:46Z</time>
      </trkpt>
      <trkpt lat="49.03077" lon="6.92364">
        <ele>232.3</ele>
        <time>2014-03-26T10:07:51Z</time>
      </trkpt>
      <trkpt lat="49.03074" lon="6.92371">
        <ele>232.4</ele>
        <time>2014-03-26T10:08:01Z</time>
      </trkpt>
      <trkpt lat="49.03073" lon="6.92372">
        <ele>232.2</ele>
        <time>2014-03-26T10:08:06Z</time>
      </trkpt>
      <trkpt lat="49.03072" lon="6.92373">
        <ele>232.3</ele>
        <time>2014-03-26T10:08:11Z</time>
      </trkpt>
      <trkpt lat="49.03072" lon="6.92373">
        <ele>231.9</ele>
        <time>2014-03-26T10:08:16Z</time>
      </trkpt>
      <trkpt lat="49.03072" lon="6.92374">
        <ele>232.5</ele>
        <time>2014-03-26T10:08:21Z</time>
      </trkpt>
      <trkpt lat="49.03072" lon="6.92374">
        <ele>232.8</ele>
        <time>2014-03-26T10:08:26Z</time>
      </trkpt>
      <trkpt lat="49.03072" lon="6.92373">
        <ele>232.8</ele>
        <time>2014-03-26T10:08:31Z</time>
      </trkpt>
      <trkpt lat="49.03072" lon="6.92373">
        <ele>233</ele>
        <time>2014-03-26T10:08:36Z</time>
      </trkpt>
      <trkpt lat="49.03072" lon="6.92376">
        <ele>232.8</ele>
        <time>2014-03-26T10:08:41Z</time>
      </trkpt>
      <trkpt lat="49.0307" lon="6.92384">
        <ele>232</ele>
        <time>2014-03-26T10:08:46Z</time>
      </trkpt>
      <trkpt lat="49.03068" lon="6.92392">
        <ele>232.4</ele>
        <time>2014-03-26T10:08:51Z</time>
      </trkpt>
      <trkpt lat="49.03065" lon="6.92403">
        <ele>231.6</ele>
        <time>2014-03-26T10:08:56Z</time>
      </trkpt>
      <trkpt lat="49.03058" lon="6.92425">
        <ele>232.8</ele>
        <time>2014-03-26T10:09:06Z</time>
      </trkpt>
      <trkpt lat="49.03055" lon="6.92437">
        <ele>233.3</ele>
        <time>2014-03-26T10:09:11Z</time>
      </trkpt>
      <trkpt lat="49.03053" lon="6.92448">
        <ele>232.5</ele>
        <time>2014-03-26T10:09:16Z</time>
      </trkpt>
      <trkpt lat="49.03051" lon="6.9246">
        <ele>232</ele>
        <time>2014-03-26T10:09:21Z</time>
      </trkpt>
      <trkpt lat="49.03051" lon="6.92471">
        <ele>232.3</ele>
        <time>2014-03-26T10:09:26Z</time>
      </trkpt>
      <trkpt lat="49.03053" lon="6.92482">
        <ele>232.4</ele>
        <time>2014-03-26T10:09:31Z</time>
      </trkpt>
      <trkpt lat="49.03055" lon="6.92493">
        <ele>231.8</ele>
        <time>2014-03-26T10:09:36Z</time>
      </trkpt>
      <trkpt lat="49.03057" lon="6.92503">
        <ele>231.1</ele>
        <time>2014-03-26T10:09:41Z</time>
      </trkpt>
      <trkpt lat="49.03059" lon="6.92513">
        <ele>232.1</ele>
        <time>2014-03-26T10:09:46Z</time>
      </trkpt>
      <trkpt lat="49.03062" lon="6.92522">
        <ele>232.5</ele>
        <time>2014-03-26T10:09:51Z</time>
      </trkpt>
      <trkpt lat="49.03063" lon="6.92531">
        <ele>232.8</ele>
        <time>2014-03-26T10:09:56Z</time>
      </trkpt>
      <trkpt lat="49.03066" lon="6.9254">
        <ele>232.9</ele>
        <time>2014-03-26T10:10:01Z</time>
      </trkpt>
      <trkpt lat="49.03074" lon="6.92559">
        <ele>232.8</ele>
        <time>2014-03-26T10:10:11Z</time>
      </trkpt>
      <trkpt lat="49.03078" lon="6.92569">
        <ele>233.2</ele>
        <time>2014-03-26T10:10:16Z</time>
      </trkpt>
      <trkpt lat="49.03082" lon="6.92579">
        <ele>233.4</ele>
        <time>2014-03-26T10:10:21Z</time>
      </trkpt>
      <trkpt lat="49.03085" lon="6.9259">
        <ele>232.8</ele>
        <time>2014-03-26T10:10:26Z</time>
      </trkpt>
      <trkpt lat="49.03088" lon="6.926">
        <ele>232.8</ele>
        <time>2014-03-26T10:10:31Z</time>
      </trkpt>
      <trkpt lat="49.03092" lon="6.92611">
        <ele>232.7</ele>
        <time>2014-03-26T10:10:36Z</time>
      </trkpt>
      <trkpt lat="49.03096" lon="6.9262">
        <ele>232.5</ele>
        <time>2014-03-26T10:10:41Z</time>
      </trkpt>
      <trkpt lat="49.031" lon="6.92629">
        <ele>232.2</ele>
        <time>2014-03-26T10:10:46Z</time>
      </trkpt>
      <trkpt lat="49.03103" lon="6.92639">
        <ele>232.2</ele>
        <time>2014-03-26T10:10:51Z</time>
      </trkpt>
      <trkpt lat="49.03106" lon="6.92649">
        <ele>232.6</ele>
        <time>2014-03-26T10:10:56Z</time>
      </trkpt>
      <trkpt lat="49.03109" lon="6.92659">
        <ele>232.4</ele>
        <time>2014-03-26T10:11:01Z</time>
      </trkpt>
      <trkpt lat="49.03112" lon="6.92669">
        <ele>232.1</ele>
        <time>2014-03-26T10:11:06Z</time>
      </trkpt>
      <trkpt lat="49.0312" lon="6.92689">
        <ele>232.4</ele>
        <time>2014-03-26T10:11:16Z</time>
      </trkpt>
      <trkpt lat="49.03123" lon="6.92701">
        <ele>232</ele>
        <time>2014-03-26T10:11:21Z</time>
      </trkpt>
      <trkpt lat="49.03126" lon="6.92711">
        <ele>232</ele>
        <time>2014-03-26T10:11:26Z</time>
      </trkpt>
      <trkpt lat="49.03128" lon="6.92721">
        <ele>231.3</ele>
        <time>2014-03-26T10:11:31Z</time>
      </trkpt>
      <trkpt lat="49.0313" lon="6.92732">
        <ele>232.2</ele>
        <time>2014-03-26T10:11:36Z</time>
      </trkpt>
      <trkpt lat="49.03133" lon="6.92743">
        <ele>231.4</ele>
        <time>2014-03-26T10:11:41Z</time>
      </trkpt>
      <trkpt lat="49.03138" lon="6.92754">
        <ele>231.9</ele>
        <time>2014-03-26T10:11:46Z</time>
      </trkpt>
      <trkpt lat="49.03141" lon="6.92765">
        <ele>232.8</ele>
        <time>2014-03-26T10:11:51Z</time>
      </trkpt>
      <trkpt lat="49.03144" lon="6.92776">
        <ele>232.2</ele>
        <time>2014-03-26T10:11:56Z</time>
      </trkpt>
      <trkpt lat="49.03147" lon="6.92787">
        <ele>232.6</ele>
        <time>2014-03-26T10:12:01Z</time>
      </trkpt>
      <trkpt lat="49.0315" lon="6.92798">
        <ele>232.2</ele>
        <time>2014-03-26T10:12:06Z</time>
      </trkpt>
      <trkpt lat="49.03153" lon="6.92809">
        <ele>231.1</ele>
        <time>2014-03-26T10:12:11Z</time>
      </trkpt>
      <trkpt lat="49.0316" lon="6.92832">
        <ele>231.2</ele>
        <time>2014-03-26T10:12:21Z</time>
      </trkpt>
      <trkpt lat="49.03164" lon="6.92842">
        <ele>231.4</ele>
        <time>2014-03-26T10:12:26Z</time>
      </trkpt>
      <trkpt lat="49.03168" lon="6.92853">
        <ele>231.9</ele>
        <time>2014-03-26T10:12:31Z</time>
      </trkpt>
      <trkpt lat="49.03172" lon="6.92863">
        <ele>231.8</ele>
        <time>2014-03-26T10:12:36Z</time>
      </trkpt>
      <trkpt lat="49.03176" lon="6.92874">
        <ele>231.2</ele>
        <time>2014-03-26T10:12:41Z</time>
      </trkpt>
      <trkpt lat="49.0318" lon="6.92884">
        <ele>230.8</ele>
        <time>2014-03-26T10:12:46Z</time>
      </trkpt>
      <trkpt lat="49.03184" lon="6.92894">
        <ele>230.5</ele>
        <time>2014-03-26T10:12:51Z</time>
      </trkpt>
      <trkpt lat="49.03187" lon="6.92905">
        <ele>230.2</ele>
        <time>2014-03-26T10:12:56Z</time>
      </trkpt>
      <trkpt lat="49.0319" lon="6.92916">
        <ele>230</ele>
        <time>2014-03-26T10:13:01Z</time>
      </trkpt>
      <trkpt lat="49.03195" lon="6.92925">
        <ele>229.7</ele>
        <time>2014-03-26T10:13:06Z</time>
      </trkpt>
      <trkpt lat="49.032" lon="6.92934">
        <ele>230</ele>
        <time>2014-03-26T10:13:11Z</time>
      </trkpt>
      <trkpt lat="49.03204" lon="6.92944">
        <ele>230.3</ele>
        <time>2014-03-26T10:13:16Z</time>
      </trkpt>
      <trkpt lat="49.03212" lon="6.92964">
        <ele>230.8</ele>
        <time>2014-03-26T10:13:26Z</time>
      </trkpt>
      <trkpt lat="49.03216" lon="6.92975">
        <ele>230.8</ele>
        <time>2014-03-26T10:13:31Z</time>
      </trkpt>
      <trkpt lat="49.03219" lon="6.92984">
        <ele>230.9</ele>
        <time>2014-03-26T10:13:36Z</time>
      </trkpt>
      <trkpt lat="49.03223" lon="6.92994">
        <ele>231.4</ele>
        <time>2014-03-26T10:13:41Z</time>
      </trkpt>
      <trkpt lat="49.03228" lon="6.93004">
        <ele>230.7</ele>
        <time>2014-03-26T10:13:46Z</time>
      </trkpt>
      <trkpt lat="49.03232" lon="6.93014">
        <ele>231.5</ele>
        <time>2014-03-26T10:13:51Z</time>
      </trkpt>
      <trkpt lat="49.03235" lon="6.93024">
        <ele>230.9</ele>
        <time>2014-03-26T10:13:56Z</time>
      </trkpt>
      <trkpt lat="49.03238" lon="6.93035">
        <ele>231.2</ele>
        <time>2014-03-26T10:14:01Z</time>
      </trkpt>
      <trkpt lat="49.0324" lon="6.93045">
        <ele>230.5</ele>
        <time>2014-03-26T10:14:06Z</time>
      </trkpt>
      <trkpt lat="49.03242" lon="6.93056">
        <ele>230.8</ele>
        <time>2014-03-26T10:14:11Z</time>
      </trkpt>
      <trkpt lat="49.03245" lon="6.93067">
        <ele>230.8</ele>
        <time>2014-03-26T10:14:16Z</time>
      </trkpt>
      <trkpt lat="49.03248" lon="6.93078">
        <ele>230.5</ele>
        <time>2014-03-26T10:14:21Z</time>
      </trkpt>
      <trkpt lat="49.03253" lon="6.931">
        <ele>232.2</ele>
        <time>2014-03-26T10:14:31Z</time>
      </trkpt>
      <trkpt lat="49.03256" lon="6.93111">
        <ele>231.5</ele>
        <time>2014-03-26T10:14:36Z</time>
      </trkpt>
      <trkpt lat="49.03259" lon="6.93122">
        <ele>231.2</ele>
        <time>2014-03-26T10:14:41Z</time>
      </trkpt>
      <trkpt lat="49.03261" lon="6.93132">
        <ele>231.5</ele>
        <time>2014-03-26T10:14:46Z</time>
      </trkpt>
      <trkpt lat="49.03264" lon="6.93143">
        <ele>231.2</ele>
        <time>2014-03-26T10:14:51Z</time>
      </trkpt>
      <trkpt lat="49.03266" lon="6.93153">
        <ele>231.5</ele>
        <time>2014-03-26T10:14:56Z</time>
      </trkpt>
      <trkpt lat="49.03268" lon="6.93163">
        <ele>232</ele>
        <time>2014-03-26T10:15:01Z</time>
      </trkpt>
      <trkpt lat="49.03271" lon="6.93172">
        <ele>231.6</ele>
        <time>2014-03-26T10:15:06Z</time>
      </trkpt>
      <trkpt lat="49.03273" lon="6.93181">
        <ele>231.4</ele>
        <time>2014-03-26T10:15:11Z</time>
      </trkpt>
      <trkpt lat="49.03275" lon="6.93191">
        <ele>232</ele>
        <time>2014-03-26T10:15:16Z</time>
      </trkpt>
      <trkpt lat="49.03277" lon="6.932">
        <ele>232.5</ele>
        <time>2014-03-26T10:15:21Z</time>
      </trkpt>
      <trkpt lat="49.0328" lon="6.93209">
        <ele>232.7</ele>
        <time>2014-03-26T10:15:26Z</time>
      </trkpt>
      <trkpt lat="49.03284" lon="6.9323">
        <ele>234</ele>
        <time>2014-03-26T10:15:36Z</time>
      </trkpt>
      <trkpt lat="49.03286" lon="6.93239">
        <ele>233.7</ele>
        <time>2014-03-26T10:15:41Z</time>
      </trkpt>
      <trkpt lat="49.03289" lon="6.93248">
        <ele>233.3</ele>
        <time>2014-03-26T10:15:46Z</time>
      </trkpt>
      <trkpt lat="49.03292" lon="6.93257">
        <ele>233.2</ele>
        <time>2014-03-26T10:15:51Z</time>
      </trkpt>
      <trkpt lat="49.03294" lon="6.93267">
        <ele>234.5</ele>
        <time>2014-03-26T10:15:56Z</time>
      </trkpt>
      <trkpt lat="49.03296" lon="6.93276">
        <ele>234.5</ele>
        <time>2014-03-26T10:16:01Z</time>
      </trkpt>
      <trkpt lat="49.03299" lon="6.93284">
        <ele>234.6</ele>
        <time>2014-03-26T10:16:06Z</time>
      </trkpt>
      <trkpt lat="49.033" lon="6.93293">
        <ele>234.2</ele>
        <time>2014-03-26T10:16:11Z</time>
      </trkpt>
      <trkpt lat="49.03302" lon="6.93303">
        <ele>233.7</ele>
        <time>2014-03-26T10:16:16Z</time>
      </trkpt>
      <trkpt lat="49.03303" lon="6.93311">
        <ele>233</ele>
        <time>2014-03-26T10:16:21Z</time>
      </trkpt>
      <trkpt lat="49.03303" lon="6.93319">
        <ele>233</ele>
        <time>2014-03-26T10:16:26Z</time>
      </trkpt>
      <trkpt lat="49.03303" lon="6.93326">
        <ele>232.5</ele>
        <time>2014-03-26T10:16:31Z</time>
      </trkpt>
      <trkpt lat="49.03305" lon="6.93344">
        <ele>231.5</ele>
        <time>2014-03-26T10:16:41Z</time>
      </trkpt>
      <trkpt lat="49.03306" lon="6.93354">
        <ele>233.1</ele>
        <time>2014-03-26T10:16:46Z</time>
      </trkpt>
      <trkpt lat="49.03306" lon="6.93364">
        <ele>233.5</ele>
        <time>2014-03-26T10:16:51Z</time>
      </trkpt>
      <trkpt lat="49.03307" lon="6.93375">
        <ele>233</ele>
        <time>2014-03-26T10:16:56Z</time>
      </trkpt>
      <trkpt lat="49.03307" lon="6.93385">
        <ele>231.6</ele>
        <time>2014-03-26T10:17:01Z</time>
      </trkpt>
      <trkpt lat="49.03307" lon="6.93395">
        <ele>232</ele>
        <time>2014-03-26T10:17:06Z</time>
      </trkpt>
      <trkpt lat="49.03309" lon="6.93404">
        <ele>232.6</ele>
        <time>2014-03-26T10:17:11Z</time>
      </trkpt>
      <trkpt lat="49.0331" lon="6.93413">
        <ele>231.9</ele>
        <time>2014-03-26T10:17:16Z</time>
      </trkpt>
      <trkpt lat="49.03314" lon="6.93422">
        <ele>231.4</ele>
        <time>2014-03-26T10:17:21Z</time>
      </trkpt>
      <trkpt lat="49.03316" lon="6.93431">
        <ele>231.4</ele>
        <time>2014-03-26T10:17:26Z</time>
      </trkpt>
      <trkpt lat="49.0332" lon="6.93438">
        <ele>231.3</ele>
        <time>2014-03-26T10:17:31Z</time>
      </trkpt>
      <trkpt lat="49.03321" lon="6.93446">
        <ele>231.6</ele>
        <time>2014-03-26T10:17:36Z</time>
      </trkpt>
      <trkpt lat="49.03324" lon="6.93462">
        <ele>231.3</ele>
        <time>2014-03-26T10:17:46Z</time>
      </trkpt>
      <trkpt lat="49.03325" lon="6.93472">
        <ele>231.2</ele>
        <time>2014-03-26T10:17:51Z</time>
      </trkpt>
      <trkpt lat="49.03325" lon="6.93481">
        <ele>232.2</ele>
        <time>2014-03-26T10:17:56Z</time>
      </trkpt>
      <trkpt lat="49.03326" lon="6.93489">
        <ele>232.1</ele>
        <time>2014-03-26T10:18:01Z</time>
      </trkpt>
      <trkpt lat="49.03327" lon="6.93497">
        <ele>232.3</ele>
        <time>2014-03-26T10:18:06Z</time>
      </trkpt>
      <trkpt lat="49.03328" lon="6.93505">
        <ele>232.6</ele>
        <time>2014-03-26T10:18:11Z</time>
      </trkpt>
      <trkpt lat="49.0333" lon="6.93508">
        <ele>232.6</ele>
        <time>2014-03-26T10:18:16Z</time>
      </trkpt>
      <trkpt lat="49.03332" lon="6.9351">
        <ele>232.7</ele>
        <time>2014-03-26T10:18:21Z</time>
      </trkpt>
      <trkpt lat="49.03336" lon="6.93511">
        <ele>232.7</ele>
        <time>2014-03-26T10:18:26Z</time>
      </trkpt>
      <trkpt lat="49.03339" lon="6.9351">
        <ele>233.3</ele>
        <time>2014-03-26T10:18:31Z</time>
      </trkpt>
      <trkpt lat="49.03344" lon="6.93507">
        <ele>233.4</ele>
        <time>2014-03-26T10:18:36Z</time>
      </trkpt>
      <trkpt lat="49.03348" lon="6.93509">
        <ele>233.6</ele>
        <time>2014-03-26T10:18:41Z</time>
      </trkpt>
      <trkpt lat="49.03357" lon="6.93507">
        <ele>234.4</ele>
        <time>2014-03-26T10:18:51Z</time>
      </trkpt>
      <trkpt lat="49.03362" lon="6.93506">
        <ele>235.6</ele>
        <time>2014-03-26T10:18:56Z</time>
      </trkpt>
      <trkpt lat="49.03367" lon="6.93506">
        <ele>236.3</ele>
        <time>2014-03-26T10:19:01Z</time>
      </trkpt>
      <trkpt lat="49.03372" lon="6.93506">
        <ele>237</ele>
        <time>2014-03-26T10:19:06Z</time>
      </trkpt>
      <trkpt lat="49.03378" lon="6.93506">
        <ele>237.7</ele>
        <time>2014-03-26T10:19:11Z</time>
      </trkpt>
      <trkpt lat="49.03385" lon="6.93505">
        <ele>238.4</ele>
        <time>2014-03-26T10:19:16Z</time>
      </trkpt>
      <trkpt lat="49.03392" lon="6.93505">
        <ele>239.2</ele>
        <time>2014-03-26T10:19:21Z</time>
      </trkpt>
      <trkpt lat="49.03399" lon="6.93505">
        <ele>241</ele>
        <time>2014-03-26T10:19:26Z</time>
      </trkpt>
      <trkpt lat="49.03406" lon="6.93508">
        <ele>241</ele>
        <time>2014-03-26T10:19:31Z</time>
      </trkpt>
      <trkpt lat="49.03412" lon="6.93513">
        <ele>241.9</ele>
        <time>2014-03-26T10:19:36Z</time>
      </trkpt>
      <trkpt lat="49.03414" lon="6.93518">
        <ele>242.2</ele>
        <time>2014-03-26T10:19:41Z</time>
      </trkpt>
      <trkpt lat="49.03416" lon="6.93524">
        <ele>242.3</ele>
        <time>2014-03-26T10:19:46Z</time>
      </trkpt>
      <trkpt lat="49.03423" lon="6.93537">
        <ele>241.8</ele>
        <time>2014-03-26T10:19:56Z</time>
      </trkpt>
      <trkpt lat="49.03425" lon="6.9354">
        <ele>242.9</ele>
        <time>2014-03-26T10:20:01Z</time>
      </trkpt>
      <trkpt lat="49.03426" lon="6.93545">
        <ele>243.1</ele>
        <time>2014-03-26T10:20:06Z</time>
      </trkpt>
      <trkpt lat="49.03427" lon="6.93546">
        <ele>242.6</ele>
        <time>2014-03-26T10:20:11Z</time>
      </trkpt>
      <trkpt lat="49.03427" lon="6.9355">
        <ele>242.6</ele>
        <time>2014-03-26T10:20:16Z</time>
      </trkpt>
      <trkpt lat="49.03429" lon="6.93557">
        <ele>241.4</ele>
        <time>2014-03-26T10:20:21Z</time>
      </trkpt>
      <trkpt lat="49.0343" lon="6.93565">
        <ele>240.8</ele>
        <time>2014-03-26T10:20:26Z</time>
      </trkpt>
      <trkpt lat="49.03431" lon="6.93573">
        <ele>240.4</ele>
        <time>2014-03-26T10:20:31Z</time>
      </trkpt>
      <trkpt lat="49.03432" lon="6.93576">
        <ele>241.6</ele>
        <time>2014-03-26T10:20:36Z</time>
      </trkpt>
      <trkpt lat="49.03432" lon="6.93576">
        <ele>242</ele>
        <time>2014-03-26T10:20:41Z</time>
      </trkpt>
      <trkpt lat="49.03433" lon="6.9358">
        <ele>241.9</ele>
        <time>2014-03-26T10:20:46Z</time>
      </trkpt>
      <trkpt lat="49.03435" lon="6.93586">
        <ele>240.7</ele>
        <time>2014-03-26T10:20:51Z</time>
      </trkpt>
      <trkpt lat="49.03438" lon="6.93602">
        <ele>239.6</ele>
        <time>2014-03-26T10:21:01Z</time>
      </trkpt>
      <trkpt lat="49.03439" lon="6.93611">
        <ele>240.2</ele>
        <time>2014-03-26T10:21:06Z</time>
      </trkpt>
      <trkpt lat="49.0344" lon="6.93619">
        <ele>239.7</ele>
        <time>2014-03-26T10:21:11Z</time>
      </trkpt>
      <trkpt lat="49.03441" lon="6.93628">
        <ele>239</ele>
        <time>2014-03-26T10:21:16Z</time>
      </trkpt>
      <trkpt lat="49.03441" lon="6.93637">
        <ele>239</ele>
        <time>2014-03-26T10:21:21Z</time>
      </trkpt>
      <trkpt lat="49.03442" lon="6.93646">
        <ele>239.2</ele>
        <time>2014-03-26T10:21:26Z</time>
      </trkpt>
      <trkpt lat="49.03442" lon="6.93653">
        <ele>238.9</ele>
        <time>2014-03-26T10:21:31Z</time>
      </trkpt>
      <trkpt lat="49.03444" lon="6.93663">
        <ele>238.9</ele>
        <time>2014-03-26T10:21:36Z</time>
      </trkpt>
      <trkpt lat="49.03445" lon="6.93672">
        <ele>237.7</ele>
        <time>2014-03-26T10:21:41Z</time>
      </trkpt>
      <trkpt lat="49.03447" lon="6.93681">
        <ele>237.9</ele>
        <time>2014-03-26T10:21:46Z</time>
      </trkpt>
      <trkpt lat="49.03448" lon="6.9369">
        <ele>237.9</ele>
        <time>2014-03-26T10:21:51Z</time>
      </trkpt>
      <trkpt lat="49.0345" lon="6.93698">
        <ele>238</ele>
        <time>2014-03-26T10:21:56Z</time>
      </trkpt>
      <trkpt lat="49.03453" lon="6.93712">
        <ele>237.4</ele>
        <time>2014-03-26T10:22:06Z</time>
      </trkpt>
      <trkpt lat="49.03454" lon="6.93719">
        <ele>237.1</ele>
        <time>2014-03-26T10:22:11Z</time>
      </trkpt>
      <trkpt lat="49.03456" lon="6.93725">
        <ele>236.9</ele>
        <time>2014-03-26T10:22:16Z</time>
      </trkpt>
      <trkpt lat="49.03458" lon="6.93733">
        <ele>236.4</ele>
        <time>2014-03-26T10:22:21Z</time>
      </trkpt>
      <trkpt lat="49.0346" lon="6.93741">
        <ele>236.8</ele>
        <time>2014-03-26T10:22:26Z</time>
      </trkpt>
      <trkpt lat="49.03461" lon="6.9375">
        <ele>237.1</ele>
        <time>2014-03-26T10:22:31Z</time>
      </trkpt>
      <trkpt lat="49.03463" lon="6.9376">
        <ele>236.2</ele>
        <time>2014-03-26T10:22:36Z</time>
      </trkpt>
      <trkpt lat="49.03464" lon="6.93768">
        <ele>235.8</ele>
        <time>2014-03-26T10:22:41Z</time>
      </trkpt>
      <trkpt lat="49.03466" lon="6.93776">
        <ele>235.7</ele>
        <time>2014-03-26T10:22:46Z</time>
      </trkpt>
      <trkpt lat="49.03468" lon="6.93786">
        <ele>235.9</ele>
        <time>2014-03-26T10:22:51Z</time>
      </trkpt>
      <trkpt lat="49.03472" lon="6.93795">
        <ele>235.6</ele>
        <time>2014-03-26T10:22:56Z</time>
      </trkpt>
      <trkpt lat="49.03475" lon="6.93803">
        <ele>234.9</ele>
        <time>2014-03-26T10:23:01Z</time>
      </trkpt>
      <trkpt lat="49.03482" lon="6.93809">
        <ele>234.9</ele>
        <time>2014-03-26T10:23:11Z</time>
      </trkpt>
      <trkpt lat="49.03485" lon="6.93811">
        <ele>234.7</ele>
        <time>2014-03-26T10:23:16Z</time>
      </trkpt>
      <trkpt lat="49.03489" lon="6.93812">
        <ele>234.4</ele>
        <time>2014-03-26T10:23:21Z</time>
      </trkpt>
      <trkpt lat="49.03495" lon="6.93812">
        <ele>234.3</ele>
        <time>2014-03-26T10:23:26Z</time>
      </trkpt>
      <trkpt lat="49.03499" lon="6.93813">
        <ele>234.1</ele>
        <time>2014-03-26T10:23:31Z</time>
      </trkpt>
      <trkpt lat="49.03506" lon="6.93812">
        <ele>234.6</ele>
        <time>2014-03-26T10:23:36Z</time>
      </trkpt>
      <trkpt lat="49.03512" lon="6.93811">
        <ele>235.3</ele>
        <time>2014-03-26T10:23:41Z</time>
      </trkpt>
      <trkpt lat="49.03518" lon="6.93809">
        <ele>235.3</ele>
        <time>2014-03-26T10:23:46Z</time>
      </trkpt>
      <trkpt lat="49.03525" lon="6.93807">
        <ele>234.9</ele>
        <time>2014-03-26T10:23:51Z</time>
      </trkpt>
      <trkpt lat="49.03532" lon="6.93804">
        <ele>234.7</ele>
        <time>2014-03-26T10:23:56Z</time>
      </trkpt>
      <trkpt lat="49.03538" lon="6.93802">
        <ele>234.3</ele>
        <time>2014-03-26T10:24:01Z</time>
      </trkpt>
      <trkpt lat="49.03544" lon="6.93799">
        <ele>235.7</ele>
        <time>2014-03-26T10:24:06Z</time>
      </trkpt>
      <trkpt lat="49.03555" lon="6.93795">
        <ele>234.3</ele>
        <time>2014-03-26T10:24:16Z</time>
      </trkpt>
      <trkpt lat="49.0356" lon="6.93793">
        <ele>234.7</ele>
        <time>2014-03-26T10:24:21Z</time>
      </trkpt>
      <trkpt lat="49.03566" lon="6.93791">
        <ele>234.1</ele>
        <time>2014-03-26T10:24:26Z</time>
      </trkpt>
      <trkpt lat="49.03573" lon="6.93789">
        <ele>234</ele>
        <time>2014-03-26T10:24:31Z</time>
      </trkpt>
      <trkpt lat="49.03578" lon="6.93788">
        <ele>233.8</ele>
        <time>2014-03-26T10:24:36Z</time>
      </trkpt>
      <trkpt lat="49.03582" lon="6.93788">
        <ele>233.8</ele>
        <time>2014-03-26T10:24:41Z</time>
      </trkpt>
      <trkpt lat="49.03588" lon="6.93789">
        <ele>232.8</ele>
        <time>2014-03-26T10:24:46Z</time>
      </trkpt>
      <trkpt lat="49.03594" lon="6.93791">
        <ele>233.2</ele>
        <time>2014-03-26T10:24:51Z</time>
      </trkpt>
      <trkpt lat="49.036" lon="6.93797">
        <ele>233.1</ele>
        <time>2014-03-26T10:24:56Z</time>
      </trkpt>
      <trkpt lat="49.03605" lon="6.93805">
        <ele>233.1</ele>
        <time>2014-03-26T10:25:01Z</time>
      </trkpt>
      <trkpt lat="49.03609" lon="6.9381">
        <ele>232.6</ele>
        <time>2014-03-26T10:25:06Z</time>
      </trkpt>
      <trkpt lat="49.0361" lon="6.93814">
        <ele>232.7</ele>
        <time>2014-03-26T10:25:11Z</time>
      </trkpt>
      <trkpt lat="49.03607" lon="6.9383">
        <ele>232.7</ele>
        <time>2014-03-26T10:25:21Z</time>
      </trkpt>
      <trkpt lat="49.03605" lon="6.93839">
        <ele>232.6</ele>
        <time>2014-03-26T10:25:26Z</time>
      </trkpt>
      <trkpt lat="49.03605" lon="6.93849">
        <ele>231.7</ele>
        <time>2014-03-26T10:25:31Z</time>
      </trkpt>
      <trkpt lat="49.03605" lon="6.93857">
        <ele>232.3</ele>
        <time>2014-03-26T10:25:36Z</time>
      </trkpt>
      <trkpt lat="49.03607" lon="6.93866">
        <ele>232.7</ele>
        <time>2014-03-26T10:25:41Z</time>
      </trkpt>
      <trkpt lat="49.03608" lon="6.93875">
        <ele>232.7</ele>
        <time>2014-03-26T10:25:46Z</time>
      </trkpt>
      <trkpt lat="49.03609" lon="6.93884">
        <ele>232.9</ele>
        <time>2014-03-26T10:25:51Z</time>
      </trkpt>
      <trkpt lat="49.0361" lon="6.93893">
        <ele>231.7</ele>
        <time>2014-03-26T10:25:56Z</time>
      </trkpt>
      <trkpt lat="49.03611" lon="6.93901">
        <ele>231.6</ele>
        <time>2014-03-26T10:26:01Z</time>
      </trkpt>
      <trkpt lat="49.03612" lon="6.93909">
        <ele>231.9</ele>
        <time>2014-03-26T10:26:06Z</time>
      </trkpt>
      <trkpt lat="49.03612" lon="6.93917">
        <ele>232.3</ele>
        <time>2014-03-26T10:26:11Z</time>
      </trkpt>
      <trkpt lat="49.03612" lon="6.93925">
        <ele>231.9</ele>
        <time>2014-03-26T10:26:16Z</time>
      </trkpt>
      <trkpt lat="49.03616" lon="6.93934">
        <ele>232</ele>
        <time>2014-03-26T10:26:26Z</time>
      </trkpt>
      <trkpt lat="49.03617" lon="6.93934">
        <ele>231.7</ele>
        <time>2014-03-26T10:26:31Z</time>
      </trkpt>
      <trkpt lat="49.03618" lon="6.93934">
        <ele>231.9</ele>
        <time>2014-03-26T10:26:36Z</time>
      </trkpt>
      <trkpt lat="49.03619" lon="6.93935">
        <ele>232.3</ele>
        <time>2014-03-26T10:26:41Z</time>
      </trkpt>
      <trkpt lat="49.0362" lon="6.93935">
        <ele>232.3</ele>
        <time>2014-03-26T10:26:42Z</time>
      </trkpt>
    </trkseg>
  </trk>
</gpx>